[[[{"header":{"parameterUnit":"kt","parameterCategory":2,"dx":1,"dy":1,"la1":29.587661999999998,"la2":31.0,"lo1":-88.76705300000003,"lo2":-86.6583820000003,"nx":115,"ny":88,"refTime":"2022-09-29T06:00:00:Z","depth":0,"parameterNumber":1,"parameterNumberName":"U-component_of_WINDS"},"data":[18.9216,19.1499,19.1499,19.1499,19.1499,19.1499,19.1499,19.1499,19.1499,19.1499,19.1499,19.1499,19.1499,19.1499,19.1499,19.1499,19.1499,19.1587,19.2053,19.2619,19.3183,19.3943,19.5252,19.7065,19.9058,20.2002,20.522,20.7902,21.0645,21.2243,21.3634,21.5343,21.6132,21.6372,21.644,21.6542,21.6542,21.6542,21.6542,21.6542,21.6542,21.6542,21.6542,21.6542,21.6542,21.6542,21.6542,21.6542,21.6542,21.7397,21.9238,22.1343,22.3052,22.4332,22.4858,22.5056,22.5056,22.5056,22.5056,22.5056,22.5056,22.5056,22.5056,22.5056,22.5056,22.5056,22.5056,22.5056,22.5056,22.5056,22.5056,22.5056,22.5056,22.5056,22.5056,22.5056,22.5056,22.5056,22.5056,22.5056,22.5056,22.5121,22.5121,22.5713,22.6962,22.8839,23.0286,23.1667,23.2953,23.3413,23.3808,23.3808,23.3808,23.3808,23.3808,23.3808,23.3808,23.3808,23.3808,23.3808,23.3808,23.3808,23.3808,23.3808,23.3808,23.3808,23.3808,23.3808,23.3808,23.3808,23.3808,23.3808,23.3808,23.3808,23.3808,18.9158,19.1325,19.1499,19.1499,19.1499,19.1499,19.1499,19.1499,19.1499,19.1499,19.1499,19.1499,19.1499,19.1499,19.1499,19.1499,19.1499,19.1499,19.1499,19.1922,19.2445,19.2908,19.3814,19.4885,19.6478,19.9121,20.2503,20.5777,20.9214,21.1165,21.2888,21.4927,21.5585,21.5892,21.6372,21.6542,21.6542,21.6542,21.6542,21.6542,21.6542,21.6542,21.6542,21.6542,21.6542,21.6542,21.6542,21.6542,21.6542,21.7529,21.891,22.0882,22.2526,22.3973,22.453,22.5056,22.5056,22.5056,22.5056,22.5056,22.5056,22.5056,22.5056,22.5056,22.5056,22.5056,22.5056,22.5056,22.5056,22.5056,22.5056,22.5056,22.5056,22.5056,22.5056,22.5056,22.5056,22.5056,22.5056,22.5056,22.5056,22.5056,22.5121,22.5121,22.6568,22.8672,23.0352,23.1733,23.2887,23.3479,23.3808,23.3808,23.3808,23.3808,23.3808,23.3808,23.3808,23.3808,23.3808,23.3808,23.3808,23.3808,23.3808,23.3808,23.3808,23.3808,23.3808,23.3808,23.3808,23.3808,23.3808,23.3808,23.3808,23.3808,23.3808,18.8794,19.038,19.115,19.1499,19.1499,19.1499,19.1499,19.1499,19.1499,19.1499,19.1499,19.1499,19.1499,19.1499,19.1499,19.1499,19.1499,19.1499,19.1499,19.1543,19.1835,19.2097,19.2532,19.3383,19.4714,19.6285,19.9551,20.28,20.6532,20.9113,21.1746,21.374,21.51,21.5723,21.644,21.6542,21.6542,21.6542,21.6542,21.6542,21.6542,21.6542,21.6542,21.6542,21.6542,21.6542,21.6542,21.6542,21.6542,21.7134,21.7792,21.9536,22.1606,22.325,22.4236,22.4793,22.5056,22.5056,22.5056,22.5056,22.5056,22.5056,22.5056,22.5056,22.5056,22.5056,22.5056,22.5056,22.5056,22.5056,22.5056,22.5056,22.5056,22.5056,22.5056,22.5056,22.5056,22.5056,22.5056,22.5056,22.5056,22.5121,22.5187,22.5253,22.6765,22.8869,23.0549,23.1966,23.3019,23.3808,23.3808,23.3808,23.3808,23.3808,23.3808,23.3808,23.3808,23.3808,23.3808,23.3808,23.3808,23.3808,23.3808,23.3808,23.3808,23.3808,23.3808,23.3808,23.3808,23.3808,23.3808,23.3808,23.3808,23.3808,23.3808,18.8617,18.9623,19.0918,19.1499,19.1499,19.1499,19.1499,19.1499,19.1499,19.1499,19.1499,19.1499,19.1499,19.1499,19.1499,19.1499,19.1499,19.1499,19.1499,19.1543,19.1543,19.1718,19.1806,19.2402,19.3399,19.48,19.6622,19.9285,20.3474,20.7447,21.0535,21.2995,21.4298,21.555,21.6474,21.6542,21.6542,21.6542,21.6542,21.6542,21.6542,21.6542,21.6542,21.6542,21.6542,21.6542,21.6542,21.6542,21.6542,21.6542,21.6542,21.7858,22.0159,22.2,22.3579,22.4727,22.5056,22.5056,22.5056,22.5056,22.5056,22.5056,22.5056,22.5056,22.5056,22.5056,22.5056,22.5056,22.5056,22.5056,22.5056,22.5056,22.5056,22.5056,22.5056,22.5056,22.5056,22.5056,22.5056,22.5056,22.5056,22.5187,22.5319,22.6042,22.7422,22.8773,23.0286,23.1638,23.2558,23.3611,23.3611,23.3808,23.3808,23.3808,23.3808,23.3808,23.3808,23.3808,23.3808,23.3808,23.3808,23.3808,23.3808,23.3808,23.3808,23.3808,23.3808,23.3808,23.3808,23.3808,23.3808,23.3808,23.3808,23.3808,23.3808,18.9133,18.9609,19.0918,19.1499,19.1499,19.1499,19.1499,19.1499,19.1499,19.1499,19.1499,19.1499,19.1499,19.1499,19.1499,19.1499,19.1499,19.1499,19.1499,19.1499,19.1499,19.1499,19.1543,19.1616,19.2532,19.3528,19.5098,19.74,20.0854,20.5506,20.9983,21.2923,21.3951,21.51,21.6235,21.644,21.6542,21.6542,21.6542,21.6542,21.6542,21.6542,21.6542,21.6542,21.6542,21.6542,21.6542,21.6542,21.6542,21.6542,21.6674,21.72,21.9173,22.1014,22.3184,22.4332,22.4924,22.5056,22.5056,22.5056,22.5056,22.5056,22.5056,22.5056,22.5056,22.5056,22.5056,22.5056,22.5056,22.5056,22.5056,22.5056,22.5056,22.5056,22.5056,22.5056,22.5056,22.5056,22.5056,22.5056,22.5056,22.5121,22.5253,22.5319,22.6502,22.759,22.8971,23.0549,23.1769,23.315,23.3479,23.3808,23.3808,23.3808,23.3808,23.3808,23.3808,23.3808,23.3808,23.3808,23.3808,23.3808,23.3808,23.3808,23.3808,23.3808,23.3808,23.3808,23.3808,23.3808,23.3808,23.3808,23.3808,23.3808,23.3808,18.905,18.9366,19.083,19.1499,19.1499,19.1499,19.1499,19.1499,19.1499,19.1499,19.1499,19.1499,19.1499,19.1499,19.1499,19.1499,19.1499,19.1499,19.1499,19.1499,19.1499,19.1499,19.1499,19.1587,19.201,19.2966,19.4372,19.6141,19.9756,20.4518,20.8905,21.1629,21.3563,21.4717,21.5688,21.6338,21.6508,21.6542,21.6542,21.6542,21.6542,21.6542,21.6542,21.6542,21.6542,21.6542,21.6542,21.6542,21.6542,21.6542,21.6542,21.6871,21.7529,21.9273,22.1246,22.3579,22.4464,22.5056,22.5056,22.5056,22.5056,22.5056,22.5056,22.5056,22.5056,22.5056,22.5056,22.5056,22.5056,22.5056,22.5056,22.5056,22.5056,22.5056,22.5056,22.5056,22.5056,22.5056,22.5056,22.5056,22.5056,22.5056,22.5056,22.5056,22.5582,22.6998,22.8379,22.9891,23.1272,23.2624,23.3216,23.3742,23.3808,23.3808,23.3808,23.3808,23.3808,23.3808,23.3808,23.3808,23.3808,23.3808,23.3808,23.3808,23.3808,23.3808,23.3808,23.3808,23.3808,23.3808,23.3808,23.3808,23.3808,23.3808,23.3808,18.9296,18.9119,19.0681,19.1369,19.1485,19.1499,19.1499,19.1499,19.1499,19.1499,19.1499,19.1499,19.1499,19.1499,19.1499,19.1499,19.1499,19.1499,19.1499,19.1499,19.1499,19.1499,19.1499,19.1543,19.1835,19.2619,19.3728,19.5481,19.8315,20.2304,20.6494,21.0177,21.2673,21.4232,21.5308,21.6166,21.6406,21.6542,21.6542,21.6542,21.6542,21.6542,21.6542,21.6542,21.6542,21.6542,21.6542,21.6542,21.6542,21.6542,21.6542,21.6542,21.6608,21.7958,21.9536,22.2198,22.3973,22.5056,22.5056,22.5056,22.5056,22.5056,22.5056,22.5056,22.5056,22.5056,22.5056,22.5056,22.5056,22.5056,22.5056,22.5056,22.5056,22.5056,22.5056,22.5056,22.5056,22.5056,22.5056,22.5056,22.5056,22.5056,22.5056,22.5056,22.5384,22.6735,22.8116,22.9563,23.0943,23.2098,23.2887,23.3611,23.3808,23.3808,23.3808,23.3808,23.3808,23.3808,23.3808,23.3808,23.3808,23.3808,23.3808,23.3808,23.3808,23.3808,23.3808,23.3808,23.3808,23.3808,23.3808,23.3808,23.3808,23.3808,23.3808,19.0142,18.9215,19.0333,19.1162,19.1514,19.1572,19.1543,19.1499,19.1499,19.1499,19.1499,19.1499,19.1499,19.1499,19.1499,19.1499,19.1499,19.1499,19.1499,19.1499,19.1499,19.1499,19.1499,19.1499,19.1631,19.2184,19.3269,19.4672,19.5972,20.0144,20.4612,20.8591,21.181,21.374,21.5066,21.5861,21.6372,21.6542,21.6542,21.6542,21.6542,21.6542,21.6542,21.6542,21.6542,21.6542,21.6542,21.6542,21.6542,21.6542,21.6542,21.6542,21.6937,21.7892,21.9273,22.1145,22.3478,22.453,22.499,22.5056,22.5056,22.5056,22.5056,22.5056,22.5056,22.5056,22.5056,22.5056,22.5056,22.5056,22.5056,22.5056,22.5056,22.5056,22.5056,22.5056,22.5056,22.5056,22.5056,22.5056,22.5056,22.5056,22.5056,22.5056,22.5253,22.637,22.7422,22.8971,23.0286,23.1404,23.2624,23.3413,23.3808,23.3808,23.3808,23.3808,23.3808,23.3808,23.3808,23.3808,23.3808,23.3808,23.3808,23.3808,23.3808,23.3808,23.3808,23.3808,23.3808,23.3808,23.3808,23.3808,23.3808,23.3808,23.3808,19.1729,19.1572,19.1086,19.1391,19.2285,19.2358,19.1966,19.1543,19.1499,19.1499,19.1499,19.1499,19.1499,19.1499,19.1499,19.1499,19.1499,19.1499,19.1499,19.1499,19.1499,19.1499,19.1499,19.1499,19.1499,19.1849,19.2836,19.4158,19.5549,19.8462,20.2282,20.6584,21.0727,21.2852,21.4403,21.5378,21.5998,21.6508,21.6542,21.6542,21.6542,21.6542,21.6542,21.6542,21.6542,21.6542,21.6542,21.6542,21.6542,21.6542,21.6542,21.6542,21.6608,21.7168,21.7858,21.9304,22.1409,22.3083,22.453,22.499,22.499,22.5056,22.5056,22.5056,22.5056,22.5056,22.5056,22.5056,22.5056,22.5056,22.5056,22.5056,22.5056,22.5056,22.5056,22.5056,22.5056,22.5056,22.5056,22.5056,22.5056,22.5056,22.5056,22.5056,22.5056,22.591,22.6765,22.8182,22.9563,23.0943,23.2295,23.3216,23.3808,23.3808,23.3808,23.3808,23.3808,23.3808,23.3808,23.3808,23.3808,23.3808,23.3808,23.3808,23.3808,23.3808,23.3808,23.3808,23.3808,23.3808,23.3808,23.3808,23.3808,23.3808,23.3808,19.3029,19.2734,19.1914,19.2329,19.3322,19.2608,19.2181,19.1864,19.1572,19.1499,19.1499,19.1499,19.1499,19.1499,19.1499,19.1499,19.1499,19.1499,19.1499,19.1499,19.1499,19.1499,19.1499,19.1499,19.1499,19.1762,19.2445,19.3728,19.5141,19.7316,20.049,20.3851,20.7876,21.1165,21.2709,21.4717,21.5723,21.6406,21.6542,21.6542,21.6542,21.6542,21.6542,21.6542,21.6542,21.6542,21.6542,21.6542,21.6542,21.6542,21.6542,21.6542,21.6542,21.6542,21.7366,21.8681,21.9405,22.1409,22.3513,22.4332,22.453,22.499,22.5056,22.5056,22.5056,22.5056,22.5056,22.5056,22.5056,22.5056,22.5056,22.5056,22.5056,22.5056,22.5056,22.5056,22.5056,22.5056,22.5056,22.5056,22.5056,22.5056,22.5056,22.5056,22.5056,22.5713,22.591,22.7094,22.8474,23.0023,23.1638,23.269,23.3676,23.3742,23.3808,23.3808,23.3808,23.3808,23.3808,23.3808,23.3808,23.3808,23.3808,23.3808,23.3808,23.3808,23.3808,23.3808,23.3808,23.3808,23.3808,23.3808,23.3808,23.3808,23.3808,19.4135,19.2468,19.2797,19.3621,19.4424,19.2143,19.1751,19.2502,19.1922,19.1587,19.1499,19.1499,19.1499,19.1499,19.1499,19.1499,19.1499,19.1499,19.1499,19.1499,19.1499,19.1499,19.1499,19.1499,19.1499,19.166,19.2228,19.3038,19.4201,19.6141,19.8811,20.2144,20.4885,20.7422,20.9734,21.3315,21.5585,21.6406,21.6508,21.6542,21.6542,21.6542,21.6542,21.6542,21.6542,21.6542,21.6542,21.6542,21.6542,21.6542,21.6542,21.6542,21.6542,21.6542,21.7103,21.8286,21.8615,22.0128,22.243,22.2759,22.3513,22.4398,22.499,22.5056,22.5056,22.5056,22.5056,22.5056,22.5056,22.5056,22.5056,22.5056,22.5056,22.5056,22.5056,22.5056,22.5056,22.5056,22.5056,22.5056,22.5056,22.5056,22.5056,22.5056,22.5056,22.5056,22.5121,22.591,22.7357,22.8971,23.0615,23.1901,23.3216,23.3479,23.3808,23.3808,23.3808,23.3808,23.3808,23.3808,23.3808,23.3808,23.3808,23.3808,23.3808,23.3808,23.3808,23.3808,23.3808,23.3808,23.3808,23.3808,23.3808,23.3808,23.3808,19.6478,19.5555,19.3432,19.3207,19.4264,19.3959,19.3404,19.2877,19.2474,19.2097,19.1499,19.1499,19.1499,19.1499,19.1499,19.1499,19.1499,19.1499,19.1499,19.1499,19.1499,19.1499,19.1499,19.1499,19.1499,19.1485,19.1879,19.2402,19.3383,19.5098,19.7483,19.9899,20.2322,20.4963,20.8065,21.197,21.4927,21.5688,21.6201,21.6542,21.6542,21.6542,21.6542,21.6542,21.6542,21.6542,21.6542,21.6542,21.6542,21.6542,21.6542,21.6542,21.6542,21.6542,21.6774,21.7366,21.8089,21.8944,21.9733,22.0194,22.1115,22.3184,22.4201,22.4924,22.5056,22.5056,22.5056,22.5056,22.5056,22.5056,22.5056,22.5056,22.5056,22.5056,22.5056,22.5056,22.5056,22.5056,22.5056,22.5056,22.5056,22.5056,22.5056,22.5056,22.5056,22.5056,22.5121,22.5713,22.6831,22.8116,22.9628,23.0878,23.2493,23.3216,23.3808,23.3808,23.3808,23.3808,23.3808,23.3808,23.3808,23.3808,23.3808,23.3808,23.3808,23.3808,23.3808,23.3808,23.3808,23.3808,23.3808,23.3808,23.3808,23.3808,23.3808,19.8674,19.7277,19.5224,19.4772,19.536,19.4897,19.4275,19.369,19.3466,19.2821,19.201,19.1616,19.1499,19.1499,19.1499,19.1499,19.1499,19.1499,19.1499,19.1499,19.1499,19.1499,19.1499,19.1499,19.1499,19.1499,19.1485,19.1966,19.288,19.4329,19.625,19.7964,20.0103,20.2919,20.6277,20.9966,21.3208,21.4822,21.6132,21.6542,21.6542,21.6542,21.6542,21.6542,21.6542,21.6542,21.6542,21.6542,21.6542,21.6542,21.6542,21.6542,21.6542,21.6542,21.6608,21.674,21.73,21.8089,21.8681,21.901,21.9405,22.1474,22.3118,22.4464,22.5056,22.5056,22.5056,22.5056,22.5056,22.5056,22.5056,22.5056,22.5056,22.5056,22.5056,22.5056,22.5056,22.5056,22.5056,22.5056,22.5056,22.5056,22.5056,22.5056,22.5056,22.5056,22.5187,22.545,22.6305,22.7458,22.8247,22.9365,23.1374,23.2427,23.2756,23.3347,23.3808,23.3808,23.3808,23.3808,23.3808,23.3808,23.3808,23.3808,23.3808,23.3808,23.3808,23.3808,23.3808,23.3808,23.3808,23.3808,23.3808,23.3808,23.3808,20.0705,19.805,19.8013,19.7809,19.7289,19.524,19.4734,19.5116,19.4531,19.3766,19.3081,19.2097,19.1674,19.1499,19.1499,19.1499,19.1499,19.1499,19.1499,19.1499,19.1499,19.1499,19.1499,19.1499,19.1499,19.1499,19.1499,19.1922,19.2793,19.3599,19.4543,19.5718,19.8439,20.1319,20.469,20.8065,21.1302,21.4127,21.5857,21.6303,21.6508,21.6542,21.6542,21.6542,21.6542,21.6542,21.6542,21.6542,21.6542,21.6542,21.6542,21.6542,21.6542,21.6542,21.6542,21.6542,21.6805,21.7266,21.7892,21.8221,21.855,21.9405,22.0983,22.2921,22.4398,22.4793,22.5056,22.5056,22.5056,22.5056,22.5056,22.5056,22.5056,22.5056,22.5056,22.5056,22.5056,22.5056,22.5056,22.5056,22.5056,22.5056,22.5056,22.5056,22.5056,22.5056,22.5121,22.5187,22.5976,22.6801,22.7393,22.8247,23.0256,23.1374,23.1733,23.2493,23.3282,23.3545,23.3742,23.3808,23.3808,23.3808,23.3808,23.3808,23.3808,23.3808,23.3808,23.3808,23.3808,23.3808,23.3808,23.3808,23.3808,23.3808,23.3808,20.2786,20.2049,20.1418,20.0345,19.8918,19.7243,19.6643,19.6614,19.5425,19.4843,19.4435,19.3254,19.214,19.1631,19.1499,19.1499,19.1499,19.1499,19.1499,19.1499,19.1499,19.1499,19.1499,19.1499,19.1499,19.1499,19.1499,19.1674,19.2097,19.275,19.3642,19.4672,19.7191,20.0246,20.3434,20.6455,20.9427,21.2745,21.4648,21.5892,21.644,21.6542,21.6542,21.6542,21.6542,21.6542,21.6542,21.6542,21.6542,21.6542,21.6542,21.6542,21.6542,21.6542,21.6542,21.6542,21.6542,21.6805,21.7068,21.7331,21.7695,21.8484,21.9799,22.1049,22.2987,22.4595,22.5056,22.4924,22.499,22.5056,22.5056,22.5056,22.5056,22.5056,22.5056,22.5056,22.5056,22.5056,22.5056,22.5056,22.5056,22.5056,22.5056,22.5056,22.5056,22.5056,22.5056,22.5056,22.5713,22.6538,22.6932,22.7195,22.8971,23.022,23.0878,23.1798,23.2756,23.3282,23.3676,23.3808,23.3808,23.3808,23.3808,23.3808,23.3808,23.3808,23.3808,23.3808,23.3808,23.3808,23.3808,23.3808,23.4005,23.3808,23.4071,20.4926,20.479,20.3448,20.2071,20.0678,19.9008,19.8146,19.7765,19.7024,19.6355,19.5684,19.4785,19.3615,19.2184,19.1572,19.1499,19.1499,19.1499,19.1499,19.1499,19.1499,19.1499,19.1499,19.1499,19.1499,19.1499,19.1499,19.1499,19.1631,19.214,19.2951,19.4287,19.6243,19.8894,20.2104,20.4792,20.7788,21.0618,21.3137,21.5031,21.6201,21.6542,21.6542,21.6542,21.6542,21.6542,21.6542,21.6542,21.6542,21.6542,21.6542,21.6542,21.6542,21.6542,21.6542,21.6542,21.6542,21.6542,21.6542,21.6542,21.6971,21.7629,21.8484,21.9339,22.0917,22.2789,22.4105,22.4135,22.4661,22.5056,22.5056,22.5056,22.5056,22.5056,22.5056,22.5056,22.5056,22.5056,22.5056,22.5056,22.5056,22.5056,22.5056,22.5056,22.5056,22.5056,22.5056,22.5056,22.5516,22.6042,22.6239,22.6472,22.7721,22.8971,22.9826,23.0615,23.1338,23.2427,23.2756,23.3216,23.3479,23.3808,23.3808,23.3808,23.3808,23.3808,23.3808,23.3874,23.3939,23.3874,23.3874,23.4466,23.5057,23.486,23.5386,20.6743,20.6607,20.4687,20.3344,20.2276,20.0705,19.9558,19.9013,19.8737,19.7912,19.708,19.662,19.5328,19.3599,19.2402,19.1572,19.1499,19.1499,19.1499,19.1499,19.1499,19.1499,19.1499,19.1499,19.1499,19.1499,19.1499,19.1499,19.1543,19.1543,19.2445,19.3857,19.5311,19.7316,20.0815,20.3654,20.6263,20.9251,21.1818,21.4092,21.5792,21.644,21.6542,21.6542,21.6542,21.6542,21.6542,21.6542,21.6542,21.6542,21.6542,21.6542,21.6542,21.6542,21.6542,21.6542,21.6542,21.6542,21.6542,21.6542,21.6708,21.6971,21.7629,21.8352,21.9536,22.1115,22.2329,22.2627,22.3907,22.453,22.453,22.4924,22.5056,22.5056,22.5056,22.5056,22.5056,22.5056,22.5056,22.5056,22.5056,22.5056,22.5056,22.5056,22.5056,22.5056,22.5056,22.5056,22.5187,22.5319,22.5516,22.5713,22.6633,22.7458,22.8247,22.8905,22.9826,23.1206,23.1733,23.2295,23.2887,23.3479,23.3611,23.3742,23.3808,23.3808,23.3808,23.3874,23.4005,23.4202,23.4597,23.5218,23.5941,23.6401,23.673,20.6254,20.6741,20.634,20.4994,20.3304,20.2163,20.1641,20.1047,19.949,19.9142,19.9672,19.7609,19.6375,19.5455,19.3814,19.2184,19.1499,19.1499,19.1499,19.1499,19.1499,19.1499,19.1499,19.1499,19.1499,19.1499,19.1499,19.1499,19.1499,19.1499,19.2097,19.3297,19.4885,19.7024,19.9818,20.2862,20.584,20.8691,21.1448,21.3421,21.4687,21.5826,21.6542,21.6542,21.6542,21.6542,21.6542,21.6542,21.6542,21.6542,21.6542,21.6542,21.6542,21.6542,21.6542,21.6542,21.6542,21.6542,21.6542,21.6542,21.6542,21.6542,21.6905,21.7563,21.8484,21.9207,22.0093,22.1211,22.2526,22.3381,22.371,22.4398,22.4924,22.5056,22.5056,22.5056,22.5056,22.5056,22.5056,22.5056,22.5056,22.5056,22.5056,22.5056,22.5056,22.5056,22.5056,22.5056,22.5056,22.5056,22.5121,22.5253,22.5516,22.6173,22.6765,22.7488,22.8379,22.9628,23.0352,23.1206,23.2098,23.3019,23.3347,23.3545,23.3611,23.3808,23.3808,23.3874,23.4466,23.4955,23.5349,23.6073,23.7191,23.7848,23.8374,20.5859,20.6254,20.6645,20.614,20.5059,20.3868,20.3172,20.2665,20.1383,20.0647,20.0055,19.9185,19.7914,19.65,19.5124,19.3685,19.2402,19.1762,19.1499,19.1499,19.1499,19.1499,19.1499,19.1499,19.1499,19.1499,19.1499,19.1499,19.1499,19.1499,19.201,19.301,19.4158,19.6225,19.9017,20.2023,20.4831,20.7864,21.0828,21.303,21.4232,21.5757,21.6474,21.6542,21.6542,21.6542,21.6542,21.6542,21.6542,21.6542,21.6542,21.6542,21.6542,21.6542,21.6542,21.6542,21.6542,21.6542,21.6542,21.6542,21.6542,21.6542,21.6542,21.6971,21.7431,21.7826,21.8352,21.9668,22.1049,22.2132,22.2789,22.3579,22.4368,22.4858,22.5056,22.5056,22.5056,22.5056,22.5056,22.5056,22.5056,22.5056,22.5056,22.5056,22.5056,22.5056,22.5056,22.5056,22.5056,22.5056,22.5056,22.5187,22.5253,22.5647,22.5844,22.6239,22.6765,22.7919,22.8905,23.0023,23.1009,23.2032,23.2558,23.3084,23.3545,23.3808,23.3939,23.4268,23.5057,23.5744,23.6467,23.7322,23.844,23.9426,24.0018,20.52,20.5693,20.6353,20.6743,20.6574,20.5435,20.4482,20.385,20.3235,20.2112,20.0656,20.0664,19.9163,19.763,19.7054,19.5599,19.3771,19.2358,19.1718,19.1499,19.1499,19.1499,19.1499,19.1499,19.1499,19.1499,19.1499,19.1499,19.1499,19.1543,19.1966,19.288,19.3814,19.5693,19.8334,20.0896,20.4008,20.732,21.0361,21.268,21.4197,21.5654,21.6542,21.6542,21.6542,21.6542,21.6542,21.6542,21.6542,21.6542,21.6542,21.6542,21.6542,21.6542,21.6542,21.6542,21.6542,21.6542,21.6542,21.6542,21.6542,21.6542,21.6542,21.6608,21.6642,21.6674,21.73,21.8352,21.9436,22.0554,22.2101,22.2789,22.3513,22.4368,22.4793,22.5056,22.5056,22.5056,22.5056,22.5056,22.5056,22.5056,22.5056,22.5056,22.5056,22.5056,22.5056,22.5056,22.5056,22.5056,22.5056,22.5056,22.5056,22.5056,22.5056,22.5319,22.5582,22.6932,22.7721,22.8905,22.9658,23.0812,23.1798,23.2427,23.2887,23.3611,23.4202,23.4663,23.5481,23.6664,23.7651,23.8571,23.9624,24.0676,24.1399,20.3456,20.566,20.576,20.6222,20.6742,20.6541,20.594,20.5229,20.3988,20.3467,20.3207,20.078,20.0339,19.9625,19.759,19.6482,19.548,19.3927,19.2213,19.1704,19.1587,19.1499,19.1499,19.1499,19.1499,19.1499,19.1499,19.1499,19.1499,19.1587,19.2053,19.288,19.3771,19.5862,19.8334,20.0896,20.3969,20.7282,21.0361,21.2716,21.4197,21.5688,21.6508,21.6542,21.6542,21.6542,21.6542,21.6542,21.6542,21.6542,21.6542,21.6542,21.6542,21.6542,21.6542,21.6542,21.6542,21.6542,21.6542,21.6542,21.6542,21.6542,21.6542,21.6542,21.6542,21.6542,21.674,21.7068,21.7431,21.8121,21.9339,22.1312,22.2789,22.3513,22.4464,22.499,22.5056,22.5056,22.5056,22.5056,22.5056,22.5056,22.5056,22.5056,22.5056,22.5056,22.5056,22.5056,22.5056,22.5056,22.5056,22.5056,22.5056,22.5056,22.5056,22.5253,22.5253,22.6107,22.6568,22.7387,22.7942,22.9556,23.1272,23.1798,23.2558,23.3347,23.4071,23.4794,23.5875,23.7425,23.844,23.9295,24.0478,24.1859,24.2057,20.2141,20.3456,20.418,20.5169,20.6123,20.6222,20.622,20.611,20.5534,20.4767,20.3714,20.2808,20.1454,20.0253,19.8585,19.7206,19.6264,19.4682,19.3338,19.2328,19.166,19.1543,19.1499,19.1499,19.1499,19.1499,19.1499,19.1499,19.1674,19.1966,19.2402,19.2864,19.4757,19.6748,19.8976,20.2023,20.487,20.7889,21.0901,21.303,21.4232,21.5688,21.6542,21.6542,21.6542,21.6542,21.6542,21.6542,21.6542,21.6542,21.6542,21.6542,21.6542,21.6542,21.6542,21.6542,21.6542,21.6542,21.6542,21.6542,21.6542,21.6542,21.6542,21.6542,21.6542,21.6542,21.6542,21.6542,21.6674,21.7168,21.8615,22.0786,22.2132,22.2921,22.4236,22.499,22.5056,22.5056,22.5056,22.5056,22.5056,22.5056,22.5056,22.5056,22.5056,22.5056,22.5056,22.5056,22.5056,22.5056,22.5056,22.5056,22.5056,22.5056,22.5056,22.5056,22.5056,22.545,22.5976,22.6335,22.7022,22.8767,23.0615,23.1535,23.2361,23.315,23.4005,23.486,23.581,23.7059,23.8308,23.9689,24.0807,24.1531,24.1991,20.1089,20.1484,20.2568,20.3949,20.51,20.52,20.5499,20.6024,20.6186,20.5249,20.4113,20.3995,20.2745,20.0766,19.9722,19.8474,19.7004,19.5687,19.456,19.3289,19.2255,19.1791,19.1747,19.1543,19.1543,19.1499,19.1499,19.1631,19.1879,19.2489,19.3038,19.3857,19.5905,19.796,20.0164,20.31,20.5979,20.868,21.152,21.3386,21.4613,21.5826,21.6542,21.6542,21.6542,21.6542,21.6542,21.6542,21.6542,21.6542,21.6542,21.6542,21.6542,21.6542,21.6542,21.6542,21.6542,21.6542,21.6542,21.6542,21.6542,21.6542,21.6542,21.6542,21.6542,21.6542,21.6542,21.6542,21.6542,21.7037,21.8023,21.9502,22.0817,22.2198,22.3579,22.453,22.4661,22.4858,22.5056,22.5056,22.5056,22.5056,22.5056,22.5056,22.5056,22.5056,22.5056,22.5056,22.5056,22.5056,22.5056,22.5056,22.5056,22.5056,22.5056,22.5056,22.5056,22.5319,22.5384,22.5612,22.6598,22.811,22.9592,23.0812,23.2098,23.2953,23.3742,23.4663,23.5218,23.6401,23.7613,23.8571,23.9624,24.1005,24.1662,20.0234,20.1418,20.1484,20.2404,20.362,20.3752,20.3885,20.4086,20.4714,20.4778,20.4343,20.3854,20.3492,20.3638,20.0762,19.9397,19.8726,19.6822,19.5589,19.4374,19.3407,19.2617,19.2472,19.1863,19.1675,19.1747,19.1543,19.201,19.2663,19.2923,19.4174,19.5862,19.6766,19.8789,20.1702,20.3851,20.6378,20.94,21.2027,21.374,21.5066,21.5964,21.6542,21.6542,21.6542,21.6542,21.6542,21.6542,21.6411,21.6477,21.6542,21.6214,21.6379,21.6411,21.6345,21.6214,21.6214,21.6345,21.6411,21.6411,21.6542,21.6542,21.6542,21.6542,21.6542,21.6542,21.6542,21.6542,21.6542,21.6708,21.7134,21.8089,21.947,22.0882,22.2329,22.3052,22.3381,22.4368,22.5056,22.5056,22.5056,22.5056,22.5056,22.5056,22.5056,22.5056,22.5056,22.5056,22.5056,22.5056,22.5056,22.5056,22.5056,22.5056,22.5056,22.5056,22.5056,22.5056,22.5056,22.5253,22.6269,22.762,22.8869,23.0417,23.2361,23.3479,23.3808,23.4137,23.4663,23.5649,23.6533,23.7322,23.8111,23.9492,24.0478,19.9545,20.0169,20.0169,20.0958,20.2239,20.2239,20.2765,20.349,20.389,20.3796,20.3536,20.3882,20.3576,20.2669,20.1607,20.0643,19.9324,19.7653,19.599,19.4769,19.4245,19.3429,19.261,19.2181,19.2291,19.292,19.3096,19.3254,19.3728,19.4714,19.5752,19.7084,19.8913,20.1199,20.3637,20.5685,20.8166,21.0691,21.2745,21.4197,21.5308,21.6166,21.6508,21.6542,21.6542,21.6542,21.6542,21.6542,21.6082,21.5293,21.4538,21.4077,21.4077,21.4077,21.4077,21.4077,21.4898,21.5293,21.5424,21.6082,21.6477,21.6542,21.6542,21.6542,21.6542,21.6542,21.6542,21.6542,21.6542,21.6542,21.6642,21.7037,21.8089,21.9436,22.0817,22.2,22.2921,22.4236,22.4924,22.5056,22.5056,22.5056,22.5056,22.5056,22.5056,22.5056,22.5056,22.5056,22.5056,22.5056,22.5056,22.5056,22.5056,22.5056,22.5056,22.5056,22.5056,22.5056,22.5056,22.5056,22.6239,22.762,22.9168,23.0943,23.269,23.3808,23.3808,23.4005,23.4334,23.4729,23.5481,23.627,23.6927,23.798,23.8703,19.9282,19.9282,19.9282,19.984,20.076,20.0826,20.1418,20.237,20.2765,20.261,20.2519,20.347,20.3069,20.1786,20.1978,20.1276,19.974,19.8431,19.6792,19.5364,19.5427,19.4482,19.2928,19.2559,19.321,19.4149,19.4392,19.48,19.5353,19.6832,19.7835,19.8375,20.1361,20.3637,20.5476,20.7738,20.9993,21.207,21.3704,21.4927,21.5719,21.6303,21.6542,21.6542,21.6542,21.6542,21.6542,21.6542,21.5753,21.3978,21.2762,21.2236,21.2433,21.2433,21.2499,21.263,21.332,21.3846,21.4044,21.4735,21.549,21.5885,21.5819,21.6182,21.6411,21.6542,21.6542,21.6542,21.6542,21.6542,21.6542,21.6608,21.7037,21.8089,21.9405,22.0983,22.2693,22.417,22.5056,22.5056,22.5056,22.5056,22.5056,22.5056,22.5056,22.5056,22.5056,22.5056,22.5056,22.5056,22.5056,22.5056,22.5056,22.5056,22.5056,22.5056,22.5056,22.5056,22.5056,22.5056,22.5976,22.7064,22.8773,23.1046,23.2229,23.3611,23.3808,23.3808,23.3808,23.4005,23.4597,23.5057,23.5678,23.6533,23.7256,19.9217,19.9282,19.9217,19.9116,19.9182,19.9379,19.9511,19.9774,20.0892,20.142,20.1524,20.2192,20.2392,20.2161,20.1761,20.1034,20.0029,19.9409,19.8394,19.7278,19.6649,19.5605,19.3633,19.3528,19.4227,19.5134,19.5587,19.6502,19.8002,19.9017,20.0164,20.1683,20.3496,20.5399,20.7244,20.9389,21.1339,21.303,21.4508,21.5585,21.6372,21.6542,21.6542,21.6542,21.6411,21.6345,21.6279,21.6082,21.4964,21.2828,21.2236,21.1973,21.2104,21.2236,21.1907,21.1907,21.2236,21.2367,21.2367,21.2828,21.332,21.4372,21.457,21.503,21.5985,21.6082,21.6214,21.6279,21.6411,21.6542,21.6542,21.6542,21.6542,21.6871,21.8155,22.0128,22.2526,22.4236,22.499,22.5056,22.5056,22.5056,22.5056,22.5056,22.5056,22.5056,22.5056,22.5056,22.5056,22.5056,22.5056,22.5056,22.5056,22.5056,22.5056,22.5056,22.5056,22.5056,22.5056,22.5056,22.5516,22.5976,22.7028,22.9497,23.144,23.2953,23.3742,23.3808,23.3808,23.3808,23.3808,23.3808,23.4466,23.5284,23.6007,19.6455,19.6455,19.6455,19.6455,19.6521,19.7538,19.7867,19.813,19.9445,20.0037,20.0269,20.1231,20.1502,20.1215,20.1769,20.1024,19.9686,19.9817,19.916,19.7809,19.6801,19.5478,19.4294,19.4679,19.6011,19.7752,19.8279,19.9191,20.0733,20.1603,20.2605,20.3812,20.5476,20.732,20.9389,21.0828,21.2494,21.4298,21.5066,21.5788,21.634,21.6542,21.6542,21.6411,21.5622,21.5293,21.5096,21.4307,21.2959,21.1216,21.0788,21.0361,20.9539,20.9473,20.9473,20.9605,21.0164,21.0756,21.0887,21.1512,21.2565,21.2893,21.3091,21.3354,21.388,21.4833,21.5161,21.5359,21.5951,21.6542,21.6542,21.6542,21.6542,21.6576,21.7826,21.947,22.1409,22.3675,22.4924,22.5056,22.5056,22.5056,22.5056,22.5056,22.5056,22.5056,22.5056,22.5056,22.5056,22.5056,22.5056,22.5056,22.5056,22.5056,22.5056,22.5056,22.5056,22.5056,22.5056,22.5056,22.5121,22.5516,22.6107,22.8576,23.0286,23.1769,23.2624,23.2953,23.3282,23.3808,23.3808,23.3742,23.3676,23.4429,23.4889,19.4746,19.4746,19.4746,19.4746,19.4943,19.5894,19.6355,19.6486,19.7407,19.7836,19.8099,19.9379,19.9719,19.97,20.0951,20.0922,19.9564,19.935,19.8836,19.7716,19.6808,19.6114,19.5708,19.5925,19.7458,19.9675,20.0686,20.1832,20.3068,20.4433,20.5243,20.6071,20.7776,20.9538,21.0983,21.2387,21.3634,21.5239,21.555,21.5732,21.5817,21.5819,21.5622,21.5195,21.4307,21.3452,21.2991,21.1611,21.0197,20.8619,20.8619,20.7994,20.6744,20.6448,20.6448,20.658,20.7402,20.8027,20.8619,20.9572,21.0361,21.1315,21.1545,21.171,21.2301,21.3189,21.3715,21.3846,21.503,21.5885,21.5951,21.6214,21.6542,21.6542,21.8186,21.9865,22.108,22.3346,22.4858,22.5056,22.5056,22.5056,22.5056,22.5056,22.5056,22.5056,22.5056,22.5056,22.5056,22.5056,22.5056,22.5056,22.5056,22.5056,22.5056,22.5056,22.5056,22.5056,22.5056,22.5056,22.5253,22.5516,22.6305,22.7721,22.9036,23.0154,23.0943,23.1404,23.1769,23.2164,23.2756,23.3019,23.3216,23.3611,23.4071,19.4614,19.4548,19.4746,19.4483,19.4417,19.468,19.4811,19.4811,19.5009,19.5272,19.5535,19.6618,19.7275,19.7514,19.9013,20.0068,19.9419,19.8311,19.7536,19.7147,19.7478,19.7644,19.7481,19.7088,19.802,19.9633,20.226,20.4031,20.5191,20.6955,20.814,20.8755,21.0544,21.1637,21.1926,21.3951,21.5205,21.542,21.587,21.5719,21.4602,21.4438,21.3846,21.2696,21.2104,21.1282,20.9999,20.8586,20.7205,20.6021,20.5824,20.5035,20.408,20.3883,20.3784,20.3883,20.3752,20.4409,20.5561,20.6021,20.7336,20.898,20.9802,21.0295,21.1249,21.1973,21.2301,21.2499,21.3517,21.4504,21.4767,21.549,21.6148,21.6674,21.8515,22.0093,22.108,22.3215,22.5056,22.4924,22.5056,22.5056,22.5056,22.5056,22.5056,22.5056,22.5056,22.5056,22.5056,22.5056,22.5056,22.5056,22.5056,22.5056,22.5056,22.5056,22.5056,22.5056,22.5056,22.5056,22.5253,22.5319,22.5976,22.6436,22.7751,22.8379,22.9168,23.022,23.0483,23.0812,23.1243,23.1667,23.1864,23.2229,23.2821,19.0962,19.1787,19.1883,19.1853,19.1984,19.2935,19.333,19.3461,19.4351,19.4746,19.4877,19.5272,19.5565,19.5701,19.6238,19.6508,19.6411,19.5614,19.5601,19.6267,19.6521,19.6906,19.74,19.8491,19.9216,19.9678,20.2101,20.4922,20.7283,20.8689,21.0113,21.1456,21.2243,21.3173,21.4227,21.4961,21.5161,21.4819,21.496,21.4372,21.3123,21.2959,21.2696,21.1907,20.9309,20.7533,20.7073,20.5626,20.4672,20.4278,20.4212,20.4015,20.3554,20.3586,20.3586,20.3586,20.3488,20.3752,20.4146,20.418,20.4607,20.5593,20.6416,20.7205,20.7862,20.9572,21.0558,21.1019,21.2071,21.3452,21.4044,21.3846,21.4077,21.5161,21.6805,21.8252,21.9304,22.1869,22.3447,22.3741,22.4398,22.499,22.5056,22.5056,22.5056,22.5056,22.5056,22.5056,22.5056,22.5056,22.5056,22.5056,22.5056,22.5056,22.5056,22.5056,22.5056,22.5056,22.5056,22.5056,22.5121,22.5121,22.5384,22.5582,22.6107,22.6633,22.759,22.8839,22.9431,22.9694,22.9957,23.0154,23.0417,23.0746,23.1009,18.8135,18.8894,18.899,18.899,18.9055,18.991,19.0305,19.0436,19.1817,19.2475,19.2606,19.3562,19.4022,19.3957,19.2905,19.2707,19.3203,19.3331,19.404,19.5005,19.5159,19.5879,19.7132,19.8439,19.9411,20.0674,20.253,20.5122,20.8061,20.936,21.0824,21.2449,21.299,21.3586,21.4455,21.4899,21.452,21.3713,21.3649,21.2926,21.1611,21.1413,21.0887,20.9802,20.6645,20.4837,20.4903,20.4015,20.3028,20.2042,20.1976,20.1515,20.0497,20.0397,20.0366,20.0366,20.0366,20.066,20.1187,20.1647,20.2173,20.2765,20.4048,20.4969,20.5232,20.6481,20.7665,20.7895,20.9375,21.0592,21.115,21.0953,21.115,21.286,21.503,21.7037,21.8155,22.0457,22.2198,22.2395,22.3447,22.453,22.4858,22.5056,22.5056,22.5056,22.5056,22.5056,22.5056,22.5056,22.5056,22.5056,22.5056,22.5056,22.5056,22.5056,22.5056,22.5056,22.5056,22.5056,22.5056,22.5056,22.5056,22.5384,22.5319,22.5779,22.6042,22.7159,22.7225,22.762,22.8379,22.8576,22.8672,22.9694,22.9826,18.6162,18.6294,18.6257,18.6359,18.6294,18.6425,18.6359,18.6783,18.7836,18.8362,18.8822,19.1058,19.2278,19.2015,18.9611,18.9055,19.0406,19.1656,19.2766,19.3523,19.3691,19.4883,19.6884,19.7113,19.9227,20.2083,20.2829,20.4751,20.7487,20.9155,21.0687,21.2023,21.281,21.3222,21.3358,21.3934,21.3583,21.2301,21.217,21.1413,21.0065,20.9736,20.8356,20.5955,20.4212,20.3357,20.3225,20.3257,20.191,19.9116,19.9019,19.7836,19.5307,19.5009,19.514,19.514,19.4978,19.56,19.7109,19.8327,19.9545,20.0826,20.2042,20.316,20.3094,20.362,20.3949,20.3686,20.5988,20.6613,20.5857,20.681,20.8257,20.9999,21.3583,21.5556,21.6248,21.8647,22.0387,22.0751,22.1869,22.3184,22.453,22.499,22.4858,22.4793,22.499,22.5056,22.5056,22.5056,22.5056,22.5056,22.5056,22.5056,22.5056,22.5056,22.5056,22.5056,22.5056,22.5056,22.5056,22.5056,22.5056,22.5056,22.5056,22.5056,22.5056,22.5253,22.5582,22.591,22.6699,22.7064,22.7159,22.8409,22.8672,18.5241,18.6162,18.6228,18.6228,18.6228,18.6228,18.6228,18.6294,18.6622,18.6754,18.6885,18.7609,18.8003,18.7872,18.7148,18.6981,18.7543,18.8888,19.0215,19.1414,19.253,19.3539,19.4879,19.671,19.8216,19.9065,20.0985,20.3203,20.5626,20.8414,21.068,21.2026,21.2425,21.2526,21.2559,21.2694,21.2071,21.0756,21.0558,20.9802,20.8454,20.7402,20.5955,20.4212,20.2699,20.1418,20.0432,19.9411,19.7964,19.6126,19.5995,19.56,19.4781,19.4746,19.4746,19.4746,19.4746,19.5009,19.5403,19.5798,19.6192,19.6652,19.803,19.9279,20.0366,20.1418,20.237,20.3028,20.2305,20.1615,20.1255,20.3259,20.5725,20.806,20.9243,21.1183,21.3288,21.5985,21.766,21.7923,21.983,22.1606,22.2066,22.2921,22.3513,22.3644,22.4368,22.5056,22.5056,22.499,22.499,22.5056,22.5056,22.499,22.5056,22.4858,22.5056,22.5056,22.4858,22.4793,22.5056,22.5056,22.5056,22.4267,22.4858,22.499,22.4793,22.4924,22.5187,22.5187,22.5384,22.5713,22.5844,22.5976,22.6305,18.3729,18.4452,18.4481,18.4452,18.4452,18.4481,18.4452,18.4547,18.511,18.5373,18.5234,18.3889,18.3722,18.4287,18.4652,18.5158,18.5722,18.6966,18.7937,18.8858,19.0269,19.1408,19.2618,19.4816,19.6693,19.811,19.9647,20.1802,20.4254,20.6845,20.9276,21.1084,21.1347,21.1282,21.1347,21.1282,21.0558,20.9079,20.9013,20.8388,20.6942,20.5495,20.4114,20.2633,20.066,19.9182,19.8327,19.6946,19.5434,19.4022,19.3299,19.2773,19.2182,19.159,19.1261,19.1261,19.1261,19.1261,19.1261,19.1883,19.2409,19.3067,19.4448,19.5894,19.731,19.8165,19.8722,19.895,19.813,19.7441,19.7639,19.9511,20.1779,20.3851,20.5396,20.7237,21.0131,21.24,21.4175,21.4898,21.7266,21.9041,21.937,22.0817,22.1935,22.2198,22.2724,22.3149,22.3346,22.3907,22.417,22.417,22.371,22.3412,22.328,22.3346,22.328,22.3346,22.3346,22.3346,22.3215,22.3346,22.3346,22.328,22.3083,22.328,22.4105,22.4236,22.4464,22.5056,22.5056,22.5056,22.5056,22.5056,22.5056,18.1693,18.1693,18.1636,18.1607,18.1636,18.155,18.1522,18.1653,18.296,18.361,18.3456,18.0801,18.0363,18.1384,18.2441,18.3486,18.4591,18.5619,18.6148,18.6374,18.7536,18.8822,19.0233,19.1842,19.4702,19.8023,19.8719,20.0266,20.3026,20.4409,20.6481,20.9013,20.9473,20.9539,20.9736,20.9736,20.9079,20.7796,20.7665,20.6876,20.5495,20.408,20.2568,20.1055,19.849,19.6977,19.6583,19.5237,19.3694,19.2278,19.0831,18.9546,18.8289,18.6937,18.6148,18.6301,18.6169,18.5943,18.6169,18.7325,18.8832,19.0191,19.1442,19.2728,19.4079,19.4175,19.3613,19.2859,19.3552,19.4246,19.4513,19.5921,19.7725,19.9602,20.1774,20.4308,20.6809,20.8618,21.0131,21.171,21.4109,21.6016,21.6345,21.8318,22.0028,22.0093,22.0817,22.1308,22.1374,22.2132,22.2724,22.2329,22.1737,22.108,22.1045,22.0848,22.1176,22.1045,22.0948,22.1211,22.1308,22.1176,22.0848,22.1637,22.1176,22.1672,22.2395,22.2789,22.3184,22.3806,22.4201,22.453,22.4661,22.4661,22.453,17.9774,17.9813,17.9427,17.926,17.9205,17.8693,17.8468,17.8524,17.9395,18.0375,18.1398,18.1247,18.1227,18.1644,18.2468,18.2852,18.2972,18.444,18.5174,18.5249,18.6199,18.7054,18.7991,19.0521,19.2505,19.3956,19.575,19.8016,20.0497,20.0718,20.2141,20.4804,20.6087,20.7205,20.8257,20.8257,20.8125,20.7731,20.6679,20.5429,20.4015,20.2633,20.066,19.8293,19.7372,19.5991,19.3724,19.2212,19.0831,18.9348,18.7937,18.7223,18.7265,18.5975,18.5412,18.5736,18.477,18.4108,18.424,18.5537,18.6994,18.8452,18.8444,18.8878,19.0257,18.9978,18.911,18.857,18.97,19.0878,19.1633,19.3161,19.5442,19.792,19.9834,20.1515,20.3397,20.539,20.7205,20.8651,21.0295,21.1972,21.3222,21.4767,21.6279,21.7595,21.9502,22.0716,22.0848,22.1014,22.0751,22.0194,22.0356,22.0488,22.0782,22.0585,22.0453,22.0782,22.0585,22.0256,22.0356,22.0585,22.0716,22.0356,22.0519,22.0585,22.108,22.1277,22.1474,22.19,22.2097,22.1965,22.2097,22.2724,22.3118,18.0117,17.9863,17.9351,17.8999,17.8753,17.8149,17.79,17.7774,17.6467,17.6562,17.7766,17.8562,17.9411,18.0281,18.096,18.1382,18.1622,18.324,18.387,18.3725,18.5281,18.6331,18.7071,18.9414,19.1125,19.2277,19.4063,19.5816,19.7442,19.8976,20.0223,20.1581,20.3654,20.5363,20.6744,20.681,20.7139,20.7763,20.579,20.3983,20.2568,20.1779,20.0003,19.7175,19.6355,19.4645,19.1751,19.0305,18.8888,18.7441,18.5635,18.4738,18.495,18.3484,18.2802,18.3094,18.2607,18.2277,18.221,18.3049,18.4116,18.5488,18.572,18.5986,18.6258,18.5633,18.5454,18.5838,18.6947,18.8184,18.9252,19.0346,19.194,19.4096,19.5648,19.74,19.9524,20.1709,20.364,20.5222,20.74,20.9243,21.0131,21.2104,21.3814,21.4472,21.5688,21.7068,21.7726,21.7331,21.6576,21.5985,21.6379,21.6871,21.6805,21.6905,21.6871,21.6905,21.6905,21.6871,21.6871,21.6871,21.6805,21.6871,21.6805,21.7397,21.8778,21.8844,21.9567,22.0159,22.0782,22.0782,22.0848,22.1409,22.1211,18.0942,18.0629,18.007,17.9382,17.8676,17.8097,17.7639,17.7152,17.4296,17.3564,17.4431,17.5243,17.6655,17.8507,17.9058,17.9765,18.0729,18.2082,18.2451,0.0,18.4343,18.561,18.6171,18.8111,18.9888,19.1393,19.276,19.379,19.4745,19.746,19.8844,19.9107,20.1547,20.3456,20.4706,20.5166,20.5955,20.7073,20.4541,20.2633,20.1418,20.0958,19.9445,19.6912,19.5302,19.3168,19.0275,18.8822,18.7339,18.5782,18.3693,18.2531,18.2396,18.0782,17.9794,17.9807,17.9903,18.0081,18.0282,18.0551,18.1223,18.2674,18.3686,18.3683,18.2415,18.2331,18.2963,18.4045,18.4849,18.5804,18.705,18.7362,18.8178,18.9813,19.1277,19.3148,19.5787,19.8075,19.9966,20.1239,20.4528,20.6578,20.7007,20.9342,21.1183,21.1578,21.2236,21.2663,21.3715,21.2762,21.1907,21.217,21.2236,21.2236,21.2893,21.2301,21.2762,21.2236,21.263,21.2959,21.2959,21.2959,21.2959,21.2433,21.2893,21.3551,21.5393,21.5885,21.674,21.8384,21.891,21.9041,21.8975,21.8778,21.8318,17.9403,18.0376,17.9405,17.8012,17.625,17.5309,17.4042,17.2584,0.0,0.0,0.0,17.4898,17.5803,17.7669,17.8366,17.9148,18.0158,18.1339,18.1528,18.1071,18.2371,18.3067,18.3357,18.554,18.7518,18.9175,19.0084,19.1995,19.4735,19.4008,19.4486,19.6427,19.8774,20.0169,20.0466,20.2765,20.4015,20.4212,20.2633,20.1615,20.1352,19.9082,19.7043,19.5272,19.379,19.1686,18.8822,18.7375,18.5606,18.3486,18.2236,18.1521,18.1251,17.9295,17.8506,17.8912,17.7214,17.6595,17.7819,17.9087,18.0471,18.2016,18.261,18.2413,18.1363,18.2755,18.3531,18.2911,18.2637,18.2825,18.3726,18.4329,18.5723,18.841,18.9967,19.1291,19.2624,19.4793,19.6459,19.7127,19.9724,20.1688,20.2663,20.5198,20.7205,20.8388,20.944,21.0887,21.1973,21.0263,20.9342,21.1249,21.1447,21.1973,21.217,21.1907,21.2236,21.1775,21.1973,21.2236,21.2236,21.2236,21.2236,21.171,21.2236,21.2301,21.2762,21.2893,21.3222,21.3683,21.3814,21.3814,21.3683,21.2794,21.2268,17.8994,0.0,17.8398,17.7225,0.0,17.5005,17.3716,17.2318,17.2346,17.2572,17.3075,17.3207,17.388,17.5071,17.5938,17.6939,17.8005,17.9362,18.0117,18.0478,18.1982,18.2857,18.3308,18.5662,18.7187,18.7775,18.8904,19.0225,19.1568,19.135,19.2334,19.4459,19.5756,19.7146,19.8565,20.0392,20.0629,19.9116,19.8393,19.8064,19.7967,19.6618,19.5237,19.3694,0.0,0.0,0.0,0.0,0.0,0.0,0.0,0.0,0.0,0.0,0.0,17.6863,17.4484,17.3011,17.2989,17.4411,17.5602,17.6358,17.8077,17.8673,17.776,17.998,18.1811,18.2784,18.2276,18.2313,18.3362,18.3769,18.4582,18.6048,18.7487,18.8743,18.9836,19.1869,19.372,19.4903,19.6862,19.8877,20.0438,20.243,20.3983,20.5462,20.6317,20.7205,20.8421,20.7007,20.6053,20.75,20.7829,20.7829,20.7829,20.7829,20.7763,20.7829,20.7829,20.7829,20.7829,20.7829,20.7829,20.7829,20.7829,20.8158,20.8651,20.8914,20.9112,20.9802,21.0,20.9638,20.798,20.8051,20.8549,17.8315,17.818,17.7265,17.6591,17.6015,17.4866,17.3919,17.3027,17.1391,17.0564,17.0519,17.1084,17.1741,17.2419,17.3349,17.4321,17.5513,17.7289,17.8695,17.9707,18.2033,18.3375,18.4129,18.627,18.7213,18.7186,18.8185,18.8606,18.8554,18.9452,19.0751,19.2247,19.3014,19.4489,19.6584,0.0,0.0,0.0,19.4746,19.4746,19.4746,19.4483,19.3694,19.2278,19.0831,0.0,18.5599,18.3711,18.189,18.0183,17.984,0.0,0.0,0.0,0.0,0.0,0.0,0.0,0.0,0.0,0.0,0.0,17.2666,17.4191,17.431,17.7323,18.0359,18.2688,18.2544,18.2525,18.3272,18.3316,18.3477,18.3795,18.4797,18.6057,18.7277,18.9283,19.1114,19.2697,19.4594,19.6466,19.8175,19.9612,20.0852,20.2402,20.2699,20.306,20.3682,20.2956,20.2495,20.2495,20.2922,20.2988,20.3049,20.3179,20.344,20.3049,20.3049,20.3147,20.3276,20.3244,20.3147,20.321,20.3049,20.3542,20.4564,20.4796,20.5156,20.6277,20.6673,20.5971,20.2962,20.3904,20.5485,17.5782,17.6904,17.6306,17.58,17.5329,17.3278,17.2307,17.2144,17.1534,17.0753,16.978,16.9209,16.991,17.1573,17.1406,17.2136,17.3681,17.5932,17.7484,17.8656,18.1534,18.3524,18.4555,18.5689,18.6698,18.7458,18.7247,18.7789,18.9046,18.8722,18.8691,18.8854,19.123,19.2419,19.2284,19.2429,19.3252,19.4746,19.4746,19.4746,19.4746,19.3593,19.2212,19.0831,18.9384,18.6717,18.2706,18.259,18.1325,17.8463,17.9873,18.0612,18.0303,17.6627,17.3939,0.0,16.6273,0.0,0.0,0.0,0.0,0.0,0.0,0.0,0.0,17.7904,18.1264,18.178,18.2566,18.2431,18.0832,18.0718,18.125,18.2565,18.2866,18.3769,18.5638,18.7277,18.8088,18.7774,19.0928,19.31,19.3476,19.5131,19.7335,19.9304,19.9702,19.9096,19.7686,19.8139,19.8835,19.8606,19.9662,20.0672,20.1134,20.1288,20.1252,20.1252,20.1186,20.1318,20.1186,20.1186,20.1252,20.1252,20.1119,20.1252,20.1553,20.1553,20.1619,20.1752,20.2768,20.241,19.9522,19.9715,20.128,17.3623,17.3515,17.3872,17.2285,16.9369,16.811,16.8518,16.9971,16.8746,16.8022,16.7703,16.6504,16.6559,16.7501,16.7422,16.8637,17.0954,17.1817,17.4293,17.8058,18.0146,18.2283,18.4494,18.6027,18.6865,18.7045,18.6843,18.7079,18.7716,18.6809,18.6688,18.7484,18.8357,18.8684,18.8473,18.911,19.0184,19.1735,19.2165,19.2444,19.2379,19.1787,19.0765,18.9318,18.7148,18.489,18.2467,18.0823,17.977,17.9295,18.0559,18.0507,17.85,17.4177,16.9606,0.0,0.0,0.0,0.0,0.0,0.0,0.0,0.0,0.0,0.0,0.0,17.8983,0.0,18.2204,0.0,18.1874,18.0923,18.0343,18.0161,17.9163,17.9091,18.0605,18.2473,18.3858,18.4661,18.7822,19.0269,19.1091,19.3038,19.4938,19.643,19.5785,19.5174,19.5507,19.6045,19.6657,19.7153,19.7755,19.8364,19.8965,19.8618,19.8321,19.8225,19.7624,19.7128,19.7128,19.7128,19.7128,19.7128,19.7128,19.7128,19.7061,19.7128,19.7128,19.7169,19.7394,19.7139,19.6049,19.6741,19.793,17.021,16.8909,16.8686,16.642,16.2802,16.2572,16.4061,16.6399,16.4975,16.4243,16.4154,16.2976,16.2443,16.2447,16.282,16.4233,16.6574,16.7351,17.1062,17.6955,17.8585,18.1383,18.5113,18.6768,18.7318,18.692,18.6823,18.6781,18.6719,18.571,18.5585,18.6367,18.5574,18.4869,18.4479,18.5877,18.7421,18.8949,18.9639,19.0173,19.0502,19.0173,18.9378,18.8042,18.5248,18.3221,18.2065,17.9596,17.8779,18.0016,18.0276,17.9005,17.6025,17.0317,0.0,0.0,0.0,0.0,0.0,0.0,0.0,0.0,0.0,15.6067,15.7546,0.0,17.3624,0.0,18.0454,18.387,18.3236,18.1192,0.0,0.0,17.5134,17.3972,17.504,17.6882,17.8983,18.1149,18.4326,18.7016,18.8959,19.0987,19.2558,19.3188,19.2329,19.2309,19.4235,19.4591,19.4794,19.5271,19.5471,19.5778,19.6065,19.577,19.5249,19.4924,19.3618,19.2716,19.2716,19.2716,19.2716,19.2716,19.2716,19.2716,19.2743,19.2716,19.2584,19.2333,19.2245,19.2341,19.2701,19.3977,19.517,16.4366,16.2868,15.8862,15.7099,15.7105,15.8232,15.9451,16.0809,16.0635,15.9777,15.8505,15.8362,15.7656,15.6693,15.8056,0.0,0.0,16.3265,16.8557,17.4762,17.7291,18.1786,18.7563,18.7795,18.7885,18.7829,18.749,18.7049,18.6625,18.6599,18.6032,18.4845,18.3372,18.1631,18.0005,18.2099,18.4841,18.781,18.8329,18.9217,19.0406,18.9217,18.8101,18.708,18.4298,18.1988,18.0316,17.962,17.9425,17.9574,17.7647,17.5511,17.3069,0.0,0.0,0.0,0.0,0.0,0.0,0.0,0.0,0.0,0.0,0.0,0.0,0.0,0.0,0.0,17.6367,0.0,18.3948,18.0136,0.0,0.0,0.0,16.894,17.0004,17.1283,17.3288,17.629,0.0,0.0,0.0,0.0,18.9536,18.9708,19.0349,19.1182,19.2129,19.2321,19.2177,19.209,19.2262,19.254,19.3094,19.327,19.2997,19.1567,18.9933,18.9158,18.9158,18.909,18.9022,18.9158,18.9047,18.9022,18.9022,18.9124,18.874,18.7977,18.8793,18.9413,18.8924,19.067,19.2632,15.6651,15.0524,14.7876,14.7358,14.8316,14.8676,15.0053,15.2118,15.2046,15.1759,15.1113,15.018,14.9599,14.9321,14.902,0.0,0.0,0.0,16.4485,17.3182,17.6101,18.1128,18.7746,18.8013,18.8013,18.7923,18.7792,18.749,18.7088,18.68,18.3066,17.6208,0.0,0.0,17.6499,17.8067,18.0659,18.4268,18.6435,18.8123,18.9217,18.8625,18.7222,18.4969,18.3532,18.212,18.0666,18.0146,17.9161,17.7692,17.5691,17.1438,0.0,0.0,0.0,0.0,0.0,0.0,0.0,0.0,0.0,0.0,0.0,13.8695,0.0,0.0,0.0,0.0,16.218,16.8176,17.5851,17.6545,0.0,0.0,0.0,0.0,0.0,0.0,0.0,16.8911,17.486,17.9689,18.2229,18.5541,18.7893,18.8331,18.8462,18.9154,19.1003,0.0,19.1691,19.3009,19.3342,19.3253,19.2825,19.2843,19.2265,19.0218,18.8589,18.7624,18.7624,18.7624,18.7624,18.7624,18.7624,18.7624,18.7624,18.7062,18.6614,18.7244,18.7668,18.802,18.8255,18.8909,18.9808,14.7082,0.0,0.0,0.0,0.0,13.9818,14.102,14.3151,14.3075,14.282,14.2243,14.1161,0.0,0.0,0.0,0.0,0.0,0.0,16.0491,16.869,17.535,18.1122,18.6038,18.6109,18.6054,18.5872,18.4588,18.3514,18.2739,18.022,17.4744,16.6568,0.0,0.0,0.0,0.0,17.6665,18.1144,18.4266,18.6445,18.7734,18.777,18.6292,18.3386,18.2508,18.2,18.1785,17.9999,17.796,17.559,17.1081,0.0,0.0,0.0,0.0,0.0,0.0,0.0,0.0,0.0,0.0,0.0,0.0,0.0,0.0,0.0,0.0,0.0,0.0,0.0,16.5822,17.0389,17.0888,0.0,0.0,0.0,0.0,0.0,0.0,0.0,0.0,0.0,17.6751,18.1075,18.4739,0.0,0.0,18.7946,19.0156,19.0434,19.1036,19.269,0.0,0.0,0.0,19.2054,19.1429,18.9149,18.7868,18.6662,18.5397,18.4397,18.3976,18.4415,18.4833,18.4777,18.3868,18.2941,18.2913,18.4233,18.4394,18.4429,18.5025,18.5226,18.5539,0.0,0.0,0.0,0.0,0.0,0.0,0.0,0.0,13.4396,13.3435,0.0,13.1837,0.0,0.0,0.0,0.0,0.0,0.0,0.0,0.0,17.4896,18.2008,18.1517,18.1517,18.1466,18.0877,17.6365,17.3351,17.1299,16.422,0.0,0.0,0.0,0.0,0.0,0.0,17.3286,17.9051,18.1693,18.3966,18.6155,18.6323,18.5166,18.291,18.1215,18.1415,18.3378,17.8831,17.5389,17.3554,16.2755,0.0,0.0,0.0,0.0,0.0,0.0,0.0,0.0,0.0,0.0,0.0,0.0,0.0,0.0,0.0,0.0,0.0,0.0,0.0,0.0,16.1184,0.0,0.0,0.0,0.0,0.0,0.0,0.0,0.0,0.0,0.0,16.8226,17.3696,17.9369,18.3651,0.0,0.0,0.0,0.0,18.9798,18.942,18.979,18.9918,18.9372,18.9671,18.9475,18.7849,0.0,0.0,18.1593,17.8365,17.6897,17.8272,17.9789,17.9672,17.639,17.5723,17.6184,17.7432,17.7694,17.7454,17.7307,17.8315,17.9461,0.0,0.0,0.0,0.0,0.0,0.0,0.0,0.0,0.0,0.0,0.0,12.1772,0.0,0.0,0.0,0.0,0.0,0.0,0.0,0.0,16.0807,16.6986,17.1285,17.1238,17.0381,0.0,16.7244,15.9802,0.0,0.0,0.0,0.0,0.0,0.0,0.0,0.0,16.8653,17.4251,17.958,18.3078,18.4506,18.5062,18.5158,18.4889,18.3113,18.0921,17.8409,17.386,16.8113,0.0,0.0,0.0,0.0,0.0,0.0,0.0,0.0,0.0,0.0,0.0,0.0,0.0,0.0,0.0,0.0,0.0,0.0,0.0,0.0,0.0,0.0,0.0,16.2188,0.0,0.0,0.0,0.0,0.0,0.0,0.0,0.0,0.0,15.9467,16.733,17.4965,17.9949,18.2755,18.546,18.8831,0.0,0.0,0.0,0.0,0.0,0.0,0.0,18.7216,18.57,18.3971,18.1888,17.9219,17.6385,17.4548,17.5134,0.0,0.0,16.9856,16.9762,17.0867,17.2339,17.2387,17.2163,17.2007,17.2989,17.3964,0.0,0.0,0.0,0.0,0.0,0.0,0.0,0.0,0.0,11.5679,11.4655,0.0,0.0,0.0,0.0,0.0,0.0,0.0,0.0,0.0,0.0,0.0,15.9088,15.9425,0.0,0.0,0.0,0.0,0.0,0.0,0.0,0.0,0.0,0.0,0.0,0.0,16.546,17.1546,17.7926,18.192,18.3473,18.346,18.3989,18.4977,18.3771,18.0874,17.5969,0.0,0.0,0.0,0.0,0.0,0.0,0.0,0.0,0.0,0.0,0.0,0.0,0.0,0.0,0.0,0.0,0.0,0.0,0.0,0.0,0.0,0.0,0.0,0.0,0.0,15.5739,0.0,0.0,0.0,0.0,0.0,0.0,0.0,0.0,0.0,0.0,0.0,16.8114,17.4653,17.8963,18.2852,18.6664,18.8004,18.8973,0.0,0.0,0.0,0.0,0.0,0.0,0.0,0.0,0.0,0.0,0.0,0.0,0.0,0.0,16.4219,16.1025,16.1314,16.2464,16.3674,0.0,0.0,0.0,0.0,0.0,0.0,0.0,0.0,0.0,0.0,0.0,0.0,0.0,0.0,0.0,0.0,0.0,0.0,10.4906,0.0,0.0,0.0,0.0,0.0,0.0,0.0,0.0,0.0,0.0,0.0,0.0,0.0,0.0,0.0,0.0,0.0,0.0,0.0,0.0,0.0,0.0,0.0,17.1235,17.6768,18.0701,18.2959,18.1647,18.1715,18.3203,18.3097,18.1048,17.6802,0.0,0.0,0.0,0.0,0.0,0.0,0.0,0.0,0.0,0.0,0.0,0.0,0.0,0.0,0.0,0.0,0.0,0.0,0.0,0.0,0.0,0.0,0.0,0.0,0.0,0.0,15.213,15.9392,16.1008,0.0,0.0,0.0,0.0,0.0,0.0,0.0,0.0,0.0,0.0,17.4842,18.0379,18.3306,18.6111,18.7923,18.7975,18.7923,18.7923,18.7904,18.7833,18.6929,0.0,0.0,0.0,0.0,0.0,0.0,0.0,0.0,0.0,0.0,0.0,0.0,0.0,0.0,0.0,0.0,0.0,0.0,0.0,0.0,0.0,0.0,0.0,0.0,0.0,0.0,0.0,0.0,0.0,0.0,0.0,0.0,0.0,0.0,0.0,0.0,0.0,0.0,0.0,0.0,0.0,0.0,0.0,0.0,0.0,0.0,0.0,0.0,0.0,0.0,0.0,0.0,0.0,0.0,16.2815,16.8114,17.7047,18.1902,18.2708,18.2881,18.3564,18.4644,18.285,17.9247,0.0,0.0,0.0,0.0,0.0,0.0,0.0,0.0,0.0,0.0,0.0,0.0,0.0,0.0,0.0,0.0,0.0,0.0,0.0,0.0,0.0,0.0,0.0,0.0,0.0,0.0,0.0,0.0,16.2296,16.2999,15.416,0.0,0.0,0.0,0.0,0.0,0.0,0.0,0.0,0.0,0.0,17.7115,18.1701,18.4845,18.6684,18.639,18.6353,18.6353,18.6353,18.6353,18.4983,18.1054,0.0,0.0,0.0,0.0,0.0,0.0,0.0,0.0,0.0,0.0,0.0,0.0,0.0,0.0,0.0,0.0,0.0,0.0,0.0,0.0,0.0,0.0,0.0,0.0,0.0,0.0,0.0,0.0,0.0,0.0,0.0,0.0,0.0,0.0,0.0,0.0,0.0,0.0,0.0,0.0,0.0,0.0,0.0,0.0,0.0,0.0,0.0,0.0,0.0,0.0,0.0,0.0,0.0,16.1909,16.7768,17.7622,18.3033,18.3585,18.3604,18.4436,18.6249,18.2475,17.7378,0.0,0.0,0.0,0.0,0.0,0.0,0.0,0.0,0.0,0.0,0.0,0.0,0.0,0.0,0.0,0.0,0.0,0.0,0.0,0.0,0.0,0.0,0.0,0.0,0.0,0.0,0.0,0.0,15.5395,15.8838,15.4346,0.0,0.0,0.0,0.0,0.0,0.0,0.0,0.0,0.0,0.0,17.4422,17.9812,18.35,0.0,0.0,18.5022,18.4931,18.486,18.595,18.4665,17.8481,17.3248,0.0,0.0,0.0,0.0,0.0,0.0,0.0,0.0,0.0,0.0,0.0,0.0,0.0,0.0,0.0,0.0,0.0,0.0,0.0,0.0,0.0,0.0,0.0,0.0,0.0,0.0,0.0,0.0,0.0,0.0,0.0,0.0,0.0,0.0,0.0,0.0,0.0,0.0,0.0,0.0,0.0,0.0,0.0,0.0,0.0,0.0,0.0,0.0,0.0,0.0,0.0,0.0,0.0,16.9267,17.857,18.405,18.54,18.4054,18.47,18.7361,18.1863,17.5543,0.0,0.0,0.0,0.0,0.0,0.0,0.0,0.0,0.0,0.0,0.0,0.0,0.0,0.0,0.0,0.0,0.0,0.0,0.0,0.0,0.0,0.0,0.0,0.0,0.0,0.0,0.0,0.0,0.0,0.0,0.0,0.0,0.0,0.0,0.0,0.0,0.0,0.0,0.0,0.0,0.0,17.2185,17.7772,18.2061,18.4487,0.0,0.0,18.3431,18.3431,18.6044,18.5111,17.6201,0.0,0.0,0.0,0.0,0.0,0.0,0.0,0.0,0.0,0.0,0.0,0.0,0.0,0.0,0.0,0.0,0.0,0.0,0.0,0.0,0.0,0.0,0.0,0.0,0.0,0.0,0.0,0.0,0.0,0.0,0.0,0.0,0.0,0.0,0.0,0.0,0.0,0.0,0.0,0.0,0.0,0.0,0.0,0.0,0.0,0.0,0.0,0.0,0.0,0.0,0.0,0.0,0.0,0.0,16.8901,17.9978,18.5785,18.5862,18.551,18.5976,18.7261,18.0262,0.0,0.0,0.0,0.0,0.0,0.0,0.0,0.0,0.0,0.0,0.0,0.0,0.0,0.0,0.0,0.0,0.0,0.0,0.0,0.0,0.0,0.0,0.0,0.0,0.0,0.0,0.0,11.3517,0.0,0.0,0.0,0.0,0.0,0.0,0.0,0.0,0.0,0.0,0.0,0.0,0.0,0.0,17.1122,17.667,18.0136,18.2303,0.0,0.0,18.0926,18.0888,18.2562,18.096,0.0,0.0,0.0,0.0,0.0,0.0,0.0,0.0,0.0,0.0,0.0,0.0,0.0,0.0,0.0,0.0,0.0,0.0,0.0,0.0,0.0,0.0,0.0,0.0,0.0,0.0,0.0,0.0,0.0,0.0,0.0,0.0,0.0,0.0,0.0,0.0,0.0,0.0,0.0,0.0,0.0,0.0,0.0,0.0,0.0,0.0,0.0,0.0,0.0,0.0,0.0,0.0,0.0,0.0,16.0463,16.8376,17.9485,18.5711,18.6589,18.6641,18.6952,18.7584,17.9893,17.2662,0.0,0.0,0.0,0.0,0.0,0.0,0.0,0.0,0.0,0.0,0.0,0.0,0.0,0.0,0.0,0.0,0.0,0.0,0.0,0.0,0.0,0.0,0.0,0.0,0.0,0.0,0.0,0.0,0.0,0.0,0.0,0.0,0.0,0.0,0.0,0.0,0.0,0.0,0.0,0.0,0.0,0.0,17.5866,17.6152,0.0,0.0,0.0,17.8002,17.8653,0.0,0.0,0.0,0.0,0.0,0.0,0.0,0.0,0.0,0.0,0.0,0.0,0.0,0.0,0.0,0.0,0.0,0.0,0.0,0.0,0.0,0.0,0.0,0.0,0.0,0.0,0.0,0.0,0.0,0.0,0.0,0.0,0.0,0.0,0.0,0.0,0.0,0.0,0.0,0.0,0.0,0.0,0.0,0.0,0.0,0.0,0.0,0.0,0.0,0.0,0.0,0.0,0.0,0.0,0.0,0.0,0.0,16.7624,17.803,18.47,18.7333,18.7523,18.7584,18.7851,18.0663,17.2869,0.0,0.0,0.0,0.0,0.0,0.0,0.0,0.0,0.0,0.0,0.0,0.0,0.0,0.0,0.0,0.0,0.0,0.0,0.0,0.0,0.0,0.0,0.0,0.0,0.0,0.0,0.0,0.0,0.0,0.0,0.0,0.0,0.0,0.0,0.0,0.0,0.0,0.0,0.0,0.0,0.0,16.5395,17.4703,17.1084,16.7418,0.0,0.0,0.0,17.6375,17.8778,0.0,0.0,0.0,0.0,0.0,0.0,0.0,0.0,0.0,0.0,0.0,0.0,0.0,0.0,0.0,0.0,0.0,0.0,0.0,0.0,0.0,0.0,0.0,0.0,0.0,0.0,0.0,0.0,0.0,0.0,0.0,0.0,0.0,0.0,0.0,0.0,0.0,0.0,0.0,0.0,0.0,0.0,0.0,0.0,0.0,0.0,0.0,0.0,0.0,0.0,0.0,0.0,0.0,0.0,0.0,0.0,16.7023,17.7347,18.4407,18.8062,18.7997,18.7867,18.787,18.2804,17.5081,0.0,0.0,0.0,0.0,0.0,0.0,0.0,0.0,0.0,0.0,0.0,0.0,0.0,0.0,0.0,0.0,0.0,0.0,0.0,0.0,0.0,0.0,0.0,0.0,0.0,0.0,0.0,0.0,0.0,0.0,0.0,0.0,0.0,0.0,0.0,0.0,0.0,0.0,0.0,0.0,0.0,16.0798,17.1235,16.6038,0.0,0.0,0.0,0.0,17.3451,17.2659,0.0,0.0,0.0,0.0,0.0,0.0,0.0,0.0,0.0,0.0,0.0,0.0,0.0,0.0,0.0,0.0,0.0,0.0,0.0,0.0,0.0,0.0,0.0,0.0,0.0,0.0,0.0,0.0,0.0,0.0,0.0,0.0,0.0,0.0,0.0,0.0,0.0,0.0,0.0,0.0,0.0,0.0,0.0,0.0,0.0,0.0,0.0,0.0,0.0,0.0,0.0,0.0,0.0,0.0,0.0,0.0,16.4683,17.4439,18.2316,18.8299,18.8146,18.8013,18.787,18.416,17.6525,0.0,0.0,0.0,0.0,0.0,0.0,0.0,0.0,0.0,0.0,0.0,0.0,0.0,0.0,0.0,0.0,0.0,0.0,0.0,0.0,0.0,0.0,0.0,0.0,0.0,0.0,0.0,0.0,0.0,0.0,0.0,0.0,0.0,0.0,0.0,0.0,0.0,0.0,0.0,0.0,14.8395,15.3329,16.1884,0.0,0.0,0.0,0.0,0.0,0.0,16.6824,16.3192,0.0,0.0,0.0,0.0,0.0,0.0,0.0,0.0,0.0,0.0,0.0,0.0,0.0,0.0,0.0,0.0,0.0,0.0,0.0,0.0,0.0,0.0,0.0,0.0,0.0,0.0,0.0,0.0,0.0,0.0,0.0,0.0,0.0,0.0,0.0,0.0,0.0,0.0,0.0,0.0,0.0,0.0,0.0,0.0,0.0,0.0,0.0,0.0,0.0,0.0,0.0,0.0,0.0,0.0,0.0,16.116,17.063,17.9358,18.7315,18.7846,18.8016,18.787,18.4659,17.6899,16.411,0.0,0.0,0.0,0.0,0.0,0.0,0.0,0.0,0.0,0.0,0.0,0.0,0.0,0.0,0.0,0.0,0.0,0.0,0.0,0.0,0.0,0.0,0.0,0.0,0.0,0.0,0.0,0.0,0.0,0.0,0.0,0.0,0.0,0.0,0.0,0.0,0.0,0.0,0.0,13.9188,14.4113,0.0,0.0,0.0,0.0,0.0,0.0,0.0,0.0,15.6181,0.0,0.0,0.0,0.0,0.0,0.0,0.0,0.0,0.0,0.0,0.0,0.0,0.0,0.0,0.0,0.0,0.0,0.0,0.0,0.0,0.0,0.0,0.0,0.0,0.0,0.0,0.0,0.0,0.0,0.0,0.0,0.0,0.0,0.0,0.0,0.0,0.0,0.0,0.0,0.0,0.0,0.0,0.0,0.0,0.0,0.0,0.0,0.0,0.0,0.0,0.0,0.0,0.0,0.0,0.0,0.0,16.6723,17.5972,18.3095,18.6706,18.8293,18.796,18.366,17.4812,0.0,0.0,0.0,0.0,0.0,0.0,0.0,0.0,0.0,0.0,0.0,0.0,0.0,0.0,0.0,0.0,0.0,0.0,0.0,0.0,0.0,0.0,0.0,0.0,0.0,0.0,0.0,0.0,0.0,0.0,0.0,0.0,0.0,0.0,0.0,0.0,0.0,0.0,0.0,11.7198,12.4929,0.0,0.0,0.0,0.0,0.0,0.0,0.0,0.0,14.7924,0.0,0.0,0.0,0.0,0.0,0.0,0.0,0.0,0.0,0.0,0.0,0.0,0.0,0.0,0.0,0.0,0.0,0.0,0.0,0.0,0.0,0.0,0.0,0.0,0.0,0.0,0.0,0.0,0.0,0.0,0.0,0.0,0.0,0.0,0.0,0.0,0.0,0.0,0.0,0.0,0.0,0.0,0.0,0.0,0.0,0.0,0.0,0.0,0.0,0.0,0.0,0.0,0.0,0.0,0.0,0.0,0.0,0.0,17.3281,18.0927,18.5952,18.8367,18.7693,17.9467,16.941,0.0,0.0,0.0,0.0,0.0,0.0,0.0,0.0,0.0,0.0,0.0,0.0,0.0,0.0,0.0,0.0,0.0,0.0,0.0,0.0,0.0,0.0,0.0,0.0,0.0,0.0,0.0,0.0,0.0,0.0,0.0,0.0,0.0,0.0,0.0,0.0,0.0,0.0,0.0,0.0,0.0,0.0,0.0,0.0,0.0,0.0,0.0,0.0,0.0,0.0,0.0,0.0,0.0,0.0,0.0,0.0,0.0,0.0,0.0,0.0,0.0,0.0,0.0,0.0,0.0,0.0,0.0,0.0,0.0,0.0,0.0,0.0,0.0,0.0,0.0,0.0,0.0,0.0,0.0,0.0,0.0,0.0,0.0,0.0,0.0,0.0,0.0,0.0,0.0,0.0,0.0,0.0,0.0,0.0,0.0,0.0,0.0,0.0,0.0,0.0,0.0,0.0,0.0,0.0,0.0,0.0,0.0,0.0,17.0352,17.8011,18.4999,18.844,18.7941,17.5171,16.3216,0.0,0.0,0.0,0.0,0.0,0.0,0.0,0.0,0.0,0.0,0.0,0.0,0.0,0.0,0.0,0.0,0.0,0.0,0.0,0.0,0.0,0.0,0.0,0.0,0.0,0.0,0.0,0.0,0.0,0.0,0.0,0.0,0.0,0.0,0.0,0.0,0.0,0.0,0.0,0.0,0.0,0.0,0.0,0.0,0.0,0.0,0.0,0.0,13.1067,0.0,0.0,0.0,0.0,0.0,0.0,0.0,0.0,0.0,0.0,0.0,0.0,0.0,0.0,0.0,0.0,0.0,0.0,0.0,0.0,0.0,0.0,0.0,0.0,0.0,0.0,0.0,0.0,0.0,0.0,0.0,0.0,0.0,0.0,0.0,0.0,0.0,0.0,0.0,0.0,0.0,0.0,0.0,0.0,0.0,0.0,0.0,0.0,0.0,0.0,0.0,0.0,0.0,0.0,0.0,0.0,0.0,0.0,0.0,16.6455,17.2137,18.3218,18.8694,18.7569,17.2333,15.7493,0.0,0.0,0.0,0.0,0.0,0.0,0.0,0.0,0.0,0.0,0.0,0.0,0.0,0.0,0.0,0.0,0.0,0.0,0.0,0.0,0.0,0.0,0.0,0.0,0.0,0.0,0.0,0.0,0.0,0.0,0.0,0.0,0.0,0.0,0.0,0.0,0.0,0.0,0.0,0.0,0.0,0.0,0.0,0.0,0.0,0.0,0.0,0.0,0.0,0.0,0.0,0.0,0.0,0.0,0.0,0.0,0.0,0.0,0.0,0.0,0.0,0.0,0.0,0.0,0.0,0.0,0.0,0.0,0.0,0.0,0.0,0.0,0.0,0.0,0.0,0.0,0.0,0.0,0.0,0.0,0.0,0.0,0.0,0.0,0.0,0.0,0.0,0.0,0.0,0.0,0.0,0.0,0.0,0.0,0.0,0.0,0.0,0.0,0.0,0.0,0.0,0.0,0.0,0.0,0.0,0.0,0.0,0.0,15.9735,16.8659,17.8902,18.0994,17.4346,16.1271,14.8914,0.0,0.0,0.0,0.0,0.0,0.0,0.0,0.0,0.0,0.0,0.0,0.0,0.0,0.0,0.0,0.0,0.0,0.0,0.0,0.0,0.0,0.0,0.0,0.0,0.0,0.0,0.0,0.0,0.0,0.0,0.0,0.0,0.0,0.0,0.0,0.0,0.0,0.0,0.0,0.0,0.0,0.0,0.0,0.0,0.0,0.0,0.0,0.0,0.0,0.0,0.0,0.0,0.0,0.0,0.0,0.0,0.0,0.0,0.0,0.0,0.0,0.0,0.0,0.0,0.0,0.0,0.0,0.0,0.0,0.0,0.0,0.0,0.0,0.0,0.0,0.0,0.0,0.0,0.0,0.0,0.0,0.0,0.0,0.0,0.0,0.0,0.0,0.0,0.0,0.0,0.0,0.0,0.0,0.0,0.0,0.0,0.0,0.0,0.0,0.0,0.0,0.0,0.0,0.0,0.0,0.0,0.0,0.0,0.0,16.1976,16.8513,16.7962,15.9809,15.0179,14.0207,0.0,0.0,0.0,0.0,0.0,0.0,0.0,0.0,0.0,0.0,0.0,0.0,0.0,0.0,0.0,0.0,0.0,0.0,0.0,0.0,0.0,0.0,0.0,0.0,0.0,0.0,0.0,0.0,0.0,0.0,0.0,0.0,0.0,0.0,0.0,0.0,0.0,0.0,0.0,0.0,0.0,0.0,0.0,0.0,0.0,0.0,0.0,0.0,0.0,0.0,0.0,0.0,0.0,0.0,0.0,0.0,0.0,0.0,0.0,0.0,0.0,0.0,0.0,0.0,0.0,0.0,0.0,0.0,0.0,0.0,0.0,0.0,0.0,0.0,0.0,0.0,0.0,0.0,0.0,0.0,0.0,0.0,0.0,0.0,0.0,0.0,0.0,0.0,0.0,0.0,0.0,0.0,0.0,0.0,0.0,0.0,0.0,0.0,0.0,0.0,0.0,0.0,0.0,0.0,0.0,0.0,0.0,0.0,0.0,14.998,14.9356,14.8624,14.7555,14.1313,13.2015,0.0,0.0,0.0,0.0,0.0,0.0,0.0,0.0,0.0,0.0,0.0,0.0,0.0,0.0,0.0,0.0,0.0,0.0,0.0,0.0,0.0,0.0,0.0,0.0,0.0,0.0,0.0,0.0,0.0,0.0,0.0,0.0,0.0,0.0,0.0,0.0,0.0,0.0,0.0,0.0,0.0,0.0,0.0,0.0,0.0,0.0,0.0,0.0,0.0,0.0,0.0,0.0,0.0,0.0,0.0,0.0,0.0,0.0,0.0,0.0,0.0,0.0,0.0,0.0,0.0,0.0,0.0,0.0,0.0,0.0,0.0,0.0,0.0,0.0,0.0,0.0,0.0,0.0,0.0,0.0,0.0,0.0,0.0,0.0,0.0,0.0,0.0,0.0,0.0,0.0,0.0,0.0,0.0,0.0,0.0,0.0,0.0,0.0,0.0,0.0,0.0,0.0,0.0,0.0,0.0,0.0,0.0,0.0,0.0,12.9316,13.147,13.2679,13.2913,12.7277,12.0206,11.1636,0.0,0.0,0.0,0.0,0.0,0.0,0.0,0.0,0.0,0.0,0.0,0.0,0.0,0.0,0.0,0.0,0.0,0.0,0.0,0.0,0.0,0.0,0.0,0.0,0.0,0.0,0.0,0.0,0.0,0.0,0.0,0.0,0.0,0.0,0.0,0.0,0.0,0.0,0.0,0.0,0.0,0.0,0.0,0.0,0.0,0.0,0.0,0.0,0.0,0.0,0.0,0.0,0.0,0.0,0.0,0.0,0.0,0.0,0.0,0.0,0.0,0.0,0.0,0.0,0.0,0.0,0.0,0.0,0.0,0.0,0.0,0.0,0.0,0.0,0.0,0.0,0.0,0.0,0.0,0.0,0.0,0.0,0.0,0.0,0.0,0.0,0.0,0.0,0.0,0.0,0.0,0.0,0.0,0.0,0.0,0.0,0.0,0.0,0.0,0.0,0.0,0.0,0.0,0.0,0.0,0.0,0.0,0.0,11.5292,11.8696,12.0641,12.0787,11.6789,11.1614,0.0,0.0,0.0,0.0,0.0,0.0,0.0,0.0,0.0,0.0,0.0,0.0,0.0,0.0,0.0,0.0,0.0,0.0,0.0,0.0,0.0,0.0,0.0,0.0,0.0,0.0,0.0,0.0,0.0,0.0,0.0,0.0,0.0,0.0,0.0,0.0,0.0,0.0,0.0,0.0,0.0,0.0,0.0,0.0,0.0,0.0,0.0,0.0,0.0,0.0,0.0,0.0,0.0,0.0,0.0,0.0,0.0,0.0,0.0,0.0,0.0,0.0,0.0,0.0,0.0,0.0,0.0,0.0,0.0,0.0,0.0,0.0,0.0,0.0,0.0,0.0,0.0,0.0,0.0,0.0,0.0,0.0,0.0,0.0,0.0,0.0,0.0,0.0,0.0,0.0,0.0,0.0,0.0,0.0,0.0,0.0,0.0,0.0,0.0,0.0,0.0,0.0,0.0,0.0,0.0,0.0,0.0,0.0,0.0,11.0072,11.1974,11.2924,11.2794,11.1149,10.7286,0.0,0.0,0.0,0.0,0.0,0.0,0.0,0.0,0.0,0.0,0.0,0.0,0.0,0.0,0.0,0.0,0.0,0.0,0.0,0.0,0.0,0.0,0.0,0.0,0.0,0.0,0.0,0.0,0.0,0.0,0.0,0.0,0.0,0.0,0.0,0.0,0.0,0.0,0.0,0.0,0.0,0.0,0.0,0.0,0.0,0.0,0.0,0.0,0.0,0.0,0.0,0.0,0.0,0.0,0.0,0.0,0.0,0.0,0.0,0.0,0.0,0.0,0.0,0.0,0.0,0.0,0.0,0.0,0.0,0.0,0.0,0.0,0.0,0.0,0.0,0.0,0.0,0.0,0.0,0.0,0.0,0.0,0.0,0.0,0.0,0.0,0.0,0.0,0.0,0.0,0.0,0.0,0.0,0.0,0.0,0.0,0.0,0.0,0.0,0.0,0.0,0.0,0.0,0.0,0.0,0.0,0.0,0.0,0.0,10.2186,0.0,10.6336,0.0,10.3665,10.064,0.0,0.0,0.0,0.0,0.0,0.0,0.0,0.0,0.0,0.0,0.0,0.0,0.0,0.0,0.0,0.0,0.0,0.0,0.0,0.0,0.0,0.0,0.0,0.0,0.0,0.0,0.0,0.0,0.0,0.0,0.0,0.0,0.0,0.0,0.0,0.0,0.0,0.0,0.0,0.0,0.0,0.0,0.0,0.0,0.0,0.0,0.0,0.0,0.0,0.0,0.0,0.0,0.0,0.0,0.0,0.0,0.0,0.0,0.0,0.0,0.0,0.0,0.0,0.0,0.0,0.0,0.0,0.0,0.0,0.0,0.0,0.0,0.0,0.0,0.0,0.0,0.0,0.0,0.0,0.0,0.0,0.0,0.0,0.0,0.0,0.0,0.0,0.0,0.0,0.0,0.0,0.0,0.0,0.0,0.0,0.0,0.0,0.0,0.0,0.0,0.0,0.0,0.0,0.0,0.0,0.0,0.0,0.0,0.0,9.587,9.9606,10.1549,0.0,9.9542,9.6963,0.0,0.0,0.0,0.0,0.0,0.0,0.0,0.0,0.0,0.0,0.0,0.0,0.0,0.0,0.0,0.0,0.0,0.0,0.0,0.0,0.0,0.0,0.0,0.0,0.0,0.0,0.0,0.0,0.0,0.0,0.0,0.0,0.0,0.0,0.0,0.0,0.0,0.0,0.0,0.0,0.0,0.0,0.0,0.0,0.0,0.0,0.0,0.0,0.0,0.0,0.0,0.0,0.0,0.0,0.0,0.0,0.0,0.0,0.0,0.0,0.0,0.0,0.0,0.0,0.0,0.0,0.0,0.0,0.0,0.0,0.0,0.0,0.0,0.0,0.0,0.0,0.0,0.0,0.0,0.0,0.0,0.0,0.0,0.0,0.0,0.0,0.0,0.0,0.0,0.0,0.0,0.0,0.0,0.0,0.0,0.0,0.0,0.0,0.0,0.0,0.0,0.0,0.0,0.0,0.0,0.0,0.0,0.0,0.0,0.0,9.579,9.8267,9.8342,9.8267,9.6019,0.0,0.0,0.0,0.0,0.0,0.0,0.0,0.0,0.0,0.0,0.0,0.0,0.0,0.0,0.0,0.0,0.0,0.0,0.0,0.0,0.0,0.0,0.0,0.0,0.0,0.0,0.0,0.0,0.0,0.0,0.0,0.0,0.0,0.0,0.0,0.0,0.0,0.0,0.0,0.0,0.0,0.0,0.0,0.0,0.0,0.0,0.0,0.0,0.0,0.0,0.0,0.0,0.0,0.0,0.0,0.0,0.0,0.0,0.0,0.0,0.0,0.0,0.0,0.0,0.0,0.0,0.0,0.0,0.0,0.0,0.0,0.0,0.0,0.0,0.0,0.0,0.0,0.0,0.0,0.0,0.0,0.0,0.0,0.0,0.0,0.0,0.0,0.0,0.0,0.0,0.0,0.0,0.0,0.0,0.0,0.0,0.0,0.0,0.0,0.0,0.0,0.0,0.0,0.0,0.0,0.0,0.0,0.0,0.0,0.0,9.2496,0.0,9.4739,9.3841,9.257,9.122,0.0,0.0,0.0,0.0,0.0,0.0,0.0,0.0,0.0,0.0,0.0,0.0,0.0,0.0,0.0,0.0,0.0,0.0,0.0,0.0,0.0,0.0,0.0,0.0,0.0,0.0,0.0,0.0,0.0,0.0,0.0,0.0,0.0,0.0,0.0,0.0,0.0,0.0,0.0,0.0,0.0,0.0,0.0,0.0,0.0,0.0,0.0,0.0,0.0,0.0,0.0,0.0,0.0,0.0,0.0,0.0,0.0,0.0,0.0,0.0,0.0,0.0,0.0,0.0,0.0,0.0,0.0,0.0,0.0,0.0,0.0,0.0,0.0,0.0,0.0,0.0,0.0,0.0,0.0,0.0,0.0,0.0,0.0,0.0,0.0,0.0,0.0,0.0,0.0,0.0,0.0,0.0,0.0,0.0,0.0,0.0,0.0,0.0,0.0,0.0,0.0,0.0,0.0,0.0,0.0,0.0,0.0,0.0,0.0,0.0,0.0,9.2496,9.1669,9.0846,0.0,0.0,0.0,0.0,0.0,0.0,0.0,0.0,0.0,0.0,0.0,0.0,0.0,0.0,0.0,0.0,0.0,0.0,0.0,0.0,0.0,0.0,0.0,0.0,0.0,0.0,0.0,0.0,0.0,0.0,0.0,0.0,0.0,0.0,0.0,0.0,0.0,0.0,0.0,0.0,0.0,0.0,0.0,0.0,0.0,0.0,0.0,0.0,0.0,0.0,0.0,0.0,0.0,0.0,0.0,0.0,0.0,0.0,0.0,0.0,0.0,0.0,0.0,0.0,0.0,0.0,0.0,0.0,0.0,0.0,0.0,0.0,0.0,0.0,0.0,0.0,0.0,0.0,0.0,0.0,0.0,0.0,0.0,0.0,0.0,0.0,0.0,0.0,0.0,0.0,0.0,0.0,0.0,0.0,0.0,0.0,0.0,0.0,0.0,0.0,0.0,0.0,0.0,0.0,0.0,0.0,0.0,0.0,0.0,0.0,0.0,9.0925,9.0921,9.0776,0.0,8.8545,0.0,0.0,0.0,0.0,0.0,0.0,0.0,0.0,0.0,0.0,0.0,0.0,0.0,0.0,0.0,0.0,0.0,0.0,0.0,0.0,0.0,0.0,0.0,0.0,0.0,0.0,0.0,0.0,0.0,0.0,0.0,0.0,0.0,0.0,0.0,0.0,0.0,0.0,0.0,0.0,0.0,0.0,0.0,0.0,0.0,0.0,0.0,0.0,0.0,0.0,0.0,0.0,0.0,0.0,0.0,0.0,0.0,0.0,0.0,0.0,0.0,0.0,0.0,0.0,0.0,0.0,0.0,0.0,0.0,0.0,0.0,0.0,0.0,0.0,0.0,0.0,0.0,0.0,0.0,0.0,0.0,0.0,0.0,0.0,0.0,0.0,0.0,0.0,0.0,0.0,0.0,0.0,0.0,0.0,0.0,0.0,0.0,0.0,0.0,0.0,0.0,0.0,0.0,0.0,0.0,0.0,0.0,0.0,0.0,0.0,0.0,0.0,8.7943,8.712,8.6676,0.0,0.0,0.0,0.0,0.0,0.0,0.0,0.0,0.0,0.0,0.0,0.0,0.0,0.0,0.0,0.0,0.0,0.0,0.0,0.0,0.0,0.0,0.0,0.0,0.0,0.0,0.0,0.0,0.0,0.0,0.0,0.0,0.0,0.0,0.0,0.0,0.0,0.0,0.0,0.0,0.0,0.0,0.0,0.0,0.0,0.0,0.0,0.0,0.0,0.0,0.0,0.0,0.0,0.0,0.0,0.0,0.0,0.0,0.0,0.0,0.0,0.0,0.0,0.0,0.0,0.0,0.0,0.0,0.0,0.0,0.0,0.0,0.0,0.0,0.0,0.0,0.0,0.0,0.0,0.0,0.0,0.0,0.0,0.0,0.0,0.0,0.0,0.0,0.0,0.0,0.0,0.0,0.0,0.0,0.0,0.0,0.0,0.0,0.0,0.0,0.0,0.0,0.0,0.0,0.0,0.0,0.0,0.0,0.0,0.0,8.6451,8.6372,8.5479,8.5022,8.5022,0.0,0.0,0.0,0.0,0.0,0.0,0.0,0.0,0.0,0.0,0.0,0.0,0.0,0.0,0.0,0.0,0.0,0.0,0.0,0.0,0.0,0.0,0.0,0.0,0.0,0.0,0.0,0.0,0.0,0.0,0.0,0.0,0.0,0.0,0.0,0.0,0.0,0.0,0.0,0.0,0.0,0.0,0.0,0.0,0.0,0.0,0.0,0.0,0.0,0.0,0.0,0.0,0.0,0.0,0.0,0.0,0.0,0.0,0.0,0.0,0.0,0.0,0.0,0.0,0.0,0.0,0.0,0.0,0.0,0.0,0.0,0.0,0.0,0.0,0.0,0.0,0.0,0.0,0.0,0.0,0.0,0.0,0.0,0.0,0.0,0.0,0.0,0.0,0.0,0.0,0.0,0.0,0.0,0.0,0.0,0.0,0.0,0.0,0.0,0.0,0.0,0.0,0.0,0.0,0.0,0.0,0.0,0.0,0.0,0.0,0.0,0.0,0.0,0.0,8.3373,0.0,0.0,0.0,0.0,0.0,0.0,0.0,0.0,0.0,0.0,0.0,0.0,0.0,0.0,0.0,0.0,0.0,0.0,0.0,0.0,0.0,0.0,0.0,0.0,0.0,0.0,0.0,0.0,0.0,0.0,0.0,0.0,0.0,0.0,0.0,0.0,0.0,0.0,0.0,0.0,0.0,0.0,0.0,0.0,0.0,0.0,0.0,0.0,0.0,0.0,0.0,0.0,0.0,0.0,0.0,0.0,0.0,0.0,0.0,0.0,0.0,0.0,0.0,0.0,0.0,0.0,0.0,0.0,0.0,0.0,0.0,0.0,0.0,0.0,0.0,0.0,0.0,0.0,0.0,0.0,0.0,0.0,0.0,0.0,0.0,0.0,0.0,0.0,0.0,0.0,0.0,0.0,0.0,0.0,0.0,0.0,0.0,0.0,0.0,0.0,0.0,0.0,0.0,0.0,0.0,0.0,0.0,0.0,0.0,0.0,0.0,0.0,0.0,0.0,0.0,0.0,0.0,0.0,0.0,0.0,0.0,0.0,0.0,0.0,0.0,0.0,0.0,0.0,0.0,0.0,0.0,0.0,0.0,0.0,0.0,0.0,0.0,0.0,0.0,0.0,0.0,0.0,0.0,0.0,0.0,0.0,0.0,0.0,0.0,0.0,0.0,0.0,0.0,0.0,0.0,0.0,0.0,0.0,0.0,0.0,0.0,0.0,0.0,0.0,0.0,0.0,0.0,0.0,0.0,0.0,0.0,0.0,0.0,0.0,0.0,0.0,0.0,0.0,0.0,0.0,0.0,0.0,0.0,0.0,0.0,0.0,0.0,0.0,0.0,0.0,0.0,0.0,0.0,0.0,0.0,0.0,0.0,0.0,0.0,0.0,0.0,0.0,0.0,0.0,0.0,0.0,0.0,0.0,0.0,0.0,0.0,0.0,0.0,0.0,0.0,0.0,0.0,0.0,0.0,0.0,0.0,0.0,0.0,0.0,0.0,0.0,0.0,0.0,0.0,0.0,0.0,0.0,0.0,0.0,0.0,0.0,0.0,0.0,0.0,0.0,0.0,0.0,0.0,0.0,0.0,0.0,0.0,0.0,0.0,0.0,0.0,0.0,0.0,0.0,0.0,0.0,0.0,0.0,0.0,0.0,0.0,0.0,0.0,0.0,0.0,0.0,0.0,0.0,0.0,0.0,0.0,0.0,0.0,0.0,0.0,0.0,0.0,0.0,0.0,0.0,0.0,0.0,0.0,0.0,0.0,0.0,0.0,0.0,0.0,0.0,0.0,0.0,0.0,0.0,0.0,0.0,0.0,0.0,0.0,0.0,0.0,0.0,0.0,0.0,0.0,0.0,0.0,0.0,0.0,0.0,0.0,0.0,0.0,0.0,0.0,0.0,0.0,0.0,0.0,0.0,0.0,0.0,0.0,0.0,0.0,0.0,0.0,0.0,0.0,0.0,0.0,0.0,0.0,0.0,0.0,0.0,0.0,0.0,0.0,0.0,0.0,0.0,0.0,0.0,0.0,0.0,0.0,0.0,0.0,0.0,0.0,0.0,0.0,0.0,0.0,0.0,0.0,0.0,0.0,0.0,0.0,0.0,0.0,0.0,0.0,0.0,0.0,0.0,0.0,0.0,0.0,0.0,0.0,0.0,0.0,0.0,0.0,0.0,0.0,0.0,0.0,0.0,0.0,0.0,0.0,0.0,0.0,0.0,0.0,0.0,0.0,0.0,0.0,0.0,0.0,0.0,0.0,0.0,0.0,0.0,0.0,0.0,0.0,0.0,0.0,0.0,0.0,0.0,0.0,0.0,0.0,0.0,0.0,0.0,0.0,0.0,0.0,0.0,0.0,0.0,0.0,0.0,0.0,0.0,0.0,0.0,0.0,0.0,0.0,0.0,0.0,0.0,0.0,0.0,0.0,0.0,0.0,0.0,0.0,0.0,0.0,0.0,0.0,0.0,0.0,0.0,0.0,0.0,0.0,0.0,0.0,0.0,0.0,0.0,0.0,0.0,0.0,0.0,0.0,0.0,0.0,0.0,0.0,0.0,0.0,0.0,0.0,0.0,0.0,0.0,0.0,0.0,0.0,0.0,0.0,0.0,0.0,0.0,0.0,0.0,0.0,0.0,0.0,0.0,0.0,0.0,0.0,0.0,0.0,0.0,0.0,0.0,0.0,0.0,0.0,0.0,0.0,0.0,0.0,0.0,0.0,0.0,0.0,0.0,0.0,0.0,0.0,0.0,0.0,0.0,0.0,0.0,0.0,0.0,0.0,0.0,0.0,0.0,0.0,0.0,0.0,0.0,0.0,0.0,0.0,0.0,0.0,0.0,0.0,0.0,0.0,0.0,0.0,0.0,0.0,0.0,0.0,0.0,0.0,0.0,0.0,0.0,0.0,0.0,0.0,0.0,0.0,0.0,0.0,0.0,0.0,0.0,0.0,0.0,0.0,0.0,0.0,0.0,0.0,0.0,0.0,0.0,0.0,0.0,0.0,0.0,0.0,0.0,0.0,0.0,0.0,0.0,0.0,0.0,0.0,0.0,0.0,0.0,0.0,0.0,0.0,0.0,0.0,0.0,0.0,0.0,0.0,0.0,0.0,0.0,0.0,0.0,0.0,0.0,0.0,0.0,0.0,0.0,0.0,0.0,0.0,0.0,0.0,0.0,0.0,0.0,0.0,0.0,0.0,0.0,0.0,0.0,0.0,0.0,0.0,0.0,0.0,0.0,0.0,0.0,0.0,0.0,0.0,0.0,0.0,0.0,0.0,0.0,0.0,0.0,0.0,0.0,0.0,0.0,0.0,0.0,0.0,0.0,0.0,0.0,0.0,0.0,0.0,0.0,0.0,0.0,0.0,0.0,0.0,0.0,0.0,0.0,0.0,0.0,0.0,0.0,0.0,0.0,0.0,0.0,0.0,0.0,0.0,0.0,0.0,0.0,0.0,0.0,0.0,0.0,0.0,0.0,0.0,0.0,0.0,0.0,0.0,0.0,0.0,0.0,0.0,0.0,0.0,0.0,0.0,0.0,0.0,0.0,0.0,0.0,0.0,0.0,0.0,0.0,0.0,0.0,0.0,0.0,0.0,0.0,0.0,0.0,0.0,0.0,0.0,0.0,0.0,0.0,0.0,0.0,0.0,0.0,0.0,0.0,0.0,0.0,0.0,0.0,0.0,0.0,0.0,0.0,0.0,0.0,0.0,0.0,0.0,0.0,0.0,0.0,0.0,0.0,0.0,0.0,0.0,0.0,0.0,0.0,0.0,0.0,0.0,0.0,0.0,0.0,0.0,0.0,0.0,0.0,0.0,0.0,0.0,0.0,0.0,0.0,0.0,0.0,0.0,0.0,0.0,0.0,0.0,0.0,0.0,0.0,0.0,0.0,0.0,0.0,0.0,0.0,0.0,0.0,0.0,0.0,0.0,0.0,0.0,0.0,0.0,0.0,0.0,0.0,0.0,0.0,0.0,0.0,0.0,0.0,0.0,0.0,0.0,0.0,0.0,0.0,0.0,0.0,0.0,0.0,0.0,0.0,0.0,0.0,0.0,0.0,0.0,0.0,0.0,0.0,0.0,0.0,0.0,0.0,0.0,0.0,0.0,0.0,0.0,0.0,0.0,0.0,0.0,0.0,0.0,0.0,0.0,0.0,0.0,0.0,0.0,0.0,0.0,0.0,0.0,0.0,0.0,0.0,0.0,0.0,0.0,0.0,0.0,0.0,0.0,0.0,0.0,0.0,0.0,0.0,0.0,0.0,0.0,0.0,0.0,0.0,0.0,0.0,0.0,0.0,0.0,0.0,0.0,0.0,0.0,0.0,0.0,0.0,0.0,0.0,0.0,0.0,0.0,0.0,0.0,0.0,0.0,0.0,0.0,0.0,0.0,0.0,0.0,0.0,0.0,0.0,0.0,0.0,0.0,0.0,0.0,0.0,0.0,0.0,0.0,0.0,0.0,0.0,0.0,0.0,0.0,0.0,0.0,0.0,0.0,0.0,0.0,0.0,0.0,0.0,0.0,0.0,0.0,0.0,0.0,0.0,0.0,0.0,0.0,0.0,0.0,0.0,0.0,0.0,0.0,0.0,0.0,0.0,0.0,0.0,0.0,0.0,0.0,0.0,0.0,0.0,0.0,0.0,0.0,0.0,0.0,0.0,0.0,0.0,0.0,0.0,0.0,0.0,0.0,0.0,0.0,0.0,0.0,0.0,0.0,0.0,0.0,0.0,0.0,0.0,0.0,0.0,0.0,0.0,0.0,0.0,0.0,0.0,0.0,0.0,0.0,0.0,0.0,0.0,0.0,0.0,0.0,0.0,0.0,0.0,0.0,0.0,0.0,0.0,0.0,0.0,0.0,0.0,0.0,0.0]}],[{"header":{"parameterUnit":"kt","parameterCategory":2,"dx":1,"dy":1,"la1":29.587661999999998,"la2":31.0,"lo1":-88.76705300000003,"lo2":-86.6583820000003,"nx":115,"ny":88,"refTime":"2022-09-29T06:00:00:Z","depth":0,"parameterNumber":2,"parameterNumberName":"V-component_of_WINDS"},"data":[15.8771,16.0776,16.0776,16.0776,16.0776,16.0776,16.0776,16.0776,16.0776,16.0776,16.0776,16.0776,16.0776,16.0776,16.0776,16.0776,16.0776,16.0671,15.9995,15.9313,15.8629,15.7578,15.5832,15.3532,15.094,14.6847,14.2449,13.8506,13.4438,13.1901,12.9636,12.6926,12.5729,12.5316,12.5198,12.5021,12.5021,12.5021,12.5021,12.5021,12.5021,12.5021,12.5021,12.5021,12.5021,12.5021,12.5021,12.5021,12.5021,12.5514,12.6577,12.7792,12.8779,12.96,12.9904,13.0018,13.0018,13.0018,13.0018,13.0018,13.0018,13.0018,13.0018,13.0018,13.0018,13.0018,13.0018,13.0018,13.0018,13.0018,13.0018,13.0018,13.0018,13.0018,13.0018,13.0018,13.0018,13.0018,13.0018,13.0018,13.0018,13.0056,13.0056,13.0398,13.1119,13.212,13.2956,13.3753,13.4411,13.4676,13.4904,13.4904,13.4904,13.4904,13.4904,13.4904,13.4904,13.4904,13.4904,13.4904,13.4904,13.4904,13.4904,13.4904,13.4904,13.4904,13.4904,13.4904,13.4904,13.4904,13.4904,13.4904,13.4904,13.4904,13.4904,15.8723,16.0629,16.0776,16.0776,16.0776,16.0776,16.0776,16.0776,16.0776,16.0776,16.0776,16.0776,16.0776,16.0776,16.0776,16.0776,16.0776,16.0776,16.0776,16.0152,15.9523,15.8844,15.7737,15.6412,15.4283,15.0731,14.6285,14.1509,13.6515,13.3477,13.0857,12.763,12.6515,12.6141,12.5316,12.5021,12.5021,12.5021,12.5021,12.5021,12.5021,12.5021,12.5021,12.5021,12.5021,12.5021,12.5021,12.5021,12.5021,12.559,12.6388,12.7527,12.8476,12.9311,12.9714,13.0018,13.0018,13.0018,13.0018,13.0018,13.0018,13.0018,13.0018,13.0018,13.0018,13.0018,13.0018,13.0018,13.0018,13.0018,13.0018,13.0018,13.0018,13.0018,13.0018,13.0018,13.0018,13.0018,13.0018,13.0018,13.0018,13.0018,13.0056,13.0056,13.0891,13.2107,13.2994,13.3791,13.4373,13.4714,13.4904,13.4904,13.4904,13.4904,13.4904,13.4904,13.4904,13.4904,13.4904,13.4904,13.4904,13.4904,13.4904,13.4904,13.4904,13.4904,13.4904,13.4904,13.4904,13.4904,13.4904,13.4904,13.4904,13.4904,13.4904,15.8329,15.9748,16.0483,16.0776,16.0776,16.0776,16.0776,16.0776,16.0776,16.0776,16.0776,16.0776,16.0776,16.0776,16.0776,16.0776,16.0776,16.0776,16.0776,16.0724,16.0257,15.9943,15.9418,15.8265,15.6624,15.4652,15.0287,14.5743,14.054,13.6531,13.2554,12.9461,12.7337,12.6279,12.5198,12.5021,12.5021,12.5021,12.5021,12.5021,12.5021,12.5021,12.5021,12.5021,12.5021,12.5021,12.5021,12.5021,12.5021,12.5362,12.5742,12.6669,12.7944,12.8893,12.9463,12.9866,13.0018,13.0018,13.0018,13.0018,13.0018,13.0018,13.0018,13.0018,13.0018,13.0018,13.0018,13.0018,13.0018,13.0018,13.0018,13.0018,13.0018,13.0018,13.0018,13.0018,13.0018,13.0018,13.0018,13.0018,13.0018,13.0056,13.0094,13.0132,13.1005,13.2221,13.3107,13.3842,13.4449,13.4904,13.4904,13.4904,13.4904,13.4904,13.4904,13.4904,13.4904,13.4904,13.4904,13.4904,13.4904,13.4904,13.4904,13.4904,13.4904,13.4904,13.4904,13.4904,13.4904,13.4904,13.4904,13.4904,13.4904,13.4904,13.4904,15.7831,15.9113,16.0288,16.0776,16.0776,16.0776,16.0776,16.0776,16.0776,16.0776,16.0776,16.0776,16.0776,16.0776,16.0776,16.0776,16.0776,16.0776,16.0776,16.0724,16.0724,16.0515,16.041,15.9576,15.8366,15.6518,15.4223,15.0513,14.4802,13.9185,13.461,13.0683,12.8683,12.6573,12.5139,12.5021,12.5021,12.5021,12.5021,12.5021,12.5021,12.5021,12.5021,12.5021,12.5021,12.5021,12.5021,12.5021,12.5021,12.5021,12.5021,12.578,12.7109,12.8172,12.9083,12.9828,13.0018,13.0018,13.0018,13.0018,13.0018,13.0018,13.0018,13.0018,13.0018,13.0018,13.0018,13.0018,13.0018,13.0018,13.0018,13.0018,13.0018,13.0018,13.0018,13.0018,13.0018,13.0018,13.0018,13.0018,13.0018,13.0094,13.017,13.0587,13.1385,13.2082,13.2956,13.3652,13.4183,13.479,13.479,13.4904,13.4904,13.4904,13.4904,13.4904,13.4904,13.4904,13.4904,13.4904,13.4904,13.4904,13.4904,13.4904,13.4904,13.4904,13.4904,13.4904,13.4904,13.4904,13.4904,13.4904,13.4904,13.4904,13.4904,15.7213,15.9012,16.0288,16.0776,16.0776,16.0776,16.0776,16.0776,16.0776,16.0776,16.0776,16.0776,16.0776,16.0776,16.0776,16.0776,16.0776,16.0776,16.0776,16.0776,16.0776,16.0776,16.0724,16.0518,15.9418,15.8207,15.6146,15.3102,14.8286,14.1902,13.547,13.0799,12.9111,12.7337,12.5552,12.5198,12.5021,12.5021,12.5021,12.5021,12.5021,12.5021,12.5021,12.5021,12.5021,12.5021,12.5021,12.5021,12.5021,12.5021,12.5097,12.54,12.6539,12.7602,12.8855,12.96,12.9942,13.0018,13.0018,13.0018,13.0018,13.0018,13.0018,13.0018,13.0018,13.0018,13.0018,13.0018,13.0018,13.0018,13.0018,13.0018,13.0018,13.0018,13.0018,13.0018,13.0018,13.0018,13.0018,13.0018,13.0018,13.0056,13.0132,13.017,13.0853,13.1399,13.2196,13.3107,13.3728,13.4525,13.4714,13.4904,13.4904,13.4904,13.4904,13.4904,13.4904,13.4904,13.4904,13.4904,13.4904,13.4904,13.4904,13.4904,13.4904,13.4904,13.4904,13.4904,13.4904,13.4904,13.4904,13.4904,13.4904,13.4904,13.4904,15.6361,15.7407,15.9683,16.0776,16.0776,16.0776,16.0776,16.0776,16.0776,16.0776,16.0776,16.0776,16.0776,16.0776,16.0776,16.0776,16.0776,16.0776,16.0776,16.0776,16.0776,16.0776,16.0776,16.0671,16.0047,15.8892,15.7049,15.4712,15.0015,14.3455,13.7127,13.2883,12.9753,12.7981,12.6338,12.5375,12.508,12.5021,12.5021,12.5021,12.5021,12.5021,12.5021,12.5021,12.5021,12.5021,12.5021,12.5021,12.5021,12.5021,12.5021,12.5211,12.559,12.6518,12.7656,12.9083,12.9676,13.0018,13.0018,13.0018,13.0018,13.0018,13.0018,13.0018,13.0018,13.0018,13.0018,13.0018,13.0018,13.0018,13.0018,13.0018,13.0018,13.0018,13.0018,13.0018,13.0018,13.0018,13.0018,13.0018,13.0018,13.0018,13.0018,13.0018,13.0322,13.1057,13.1855,13.2728,13.3525,13.4221,13.4563,13.4866,13.4904,13.4904,13.4904,13.4904,13.4904,13.4904,13.4904,13.4904,13.4904,13.4904,13.4904,13.4904,13.4904,13.4904,13.4904,13.4904,13.4904,13.4904,13.4904,13.4904,13.4904,13.4904,13.4904,15.4747,15.6158,15.8676,16.0222,16.0675,16.0776,16.0776,16.0776,16.0776,16.0776,16.0776,16.0776,16.0776,16.0776,16.0776,16.0776,16.0776,16.0776,16.0776,16.0776,16.0776,16.0776,16.0776,16.0724,16.0257,15.9313,15.7843,15.5667,15.1915,14.6561,14.0596,13.5028,13.1206,12.8644,12.6985,12.567,12.5257,12.5021,12.5021,12.5021,12.5021,12.5021,12.5021,12.5021,12.5021,12.5021,12.5021,12.5021,12.5021,12.5021,12.5021,12.5021,12.5059,12.5759,12.6669,12.8286,12.9311,13.0018,13.0018,13.0018,13.0018,13.0018,13.0018,13.0018,13.0018,13.0018,13.0018,13.0018,13.0018,13.0018,13.0018,13.0018,13.0018,13.0018,13.0018,13.0018,13.0018,13.0018,13.0018,13.0018,13.0018,13.0018,13.0018,13.0018,13.0208,13.0905,13.1703,13.2538,13.3335,13.3917,13.4373,13.479,13.4904,13.4904,13.4904,13.4904,13.4904,13.4904,13.4904,13.4904,13.4904,13.4904,13.4904,13.4904,13.4904,13.4904,13.4904,13.4904,13.4904,13.4904,13.4904,13.4904,13.4904,13.4904,13.4904,15.2009,15.5803,15.7073,15.8811,16.0522,16.057,16.0724,16.0776,16.0776,16.0776,16.0776,16.0776,16.0776,16.0776,16.0776,16.0776,16.0776,16.0776,16.0776,16.0776,16.0776,16.0776,16.0776,16.0776,16.0619,15.9838,15.8524,15.6677,15.4926,14.937,14.3188,13.7328,13.2595,12.9461,12.7395,12.6044,12.5316,12.5021,12.5021,12.5021,12.5021,12.5021,12.5021,12.5021,12.5021,12.5021,12.5021,12.5021,12.5021,12.5021,12.5021,12.5021,12.5249,12.5721,12.6518,12.7678,12.9106,12.9714,12.998,13.0018,13.0018,13.0018,13.0018,13.0018,13.0018,13.0018,13.0018,13.0018,13.0018,13.0018,13.0018,13.0018,13.0018,13.0018,13.0018,13.0018,13.0018,13.0018,13.0018,13.0018,13.0018,13.0018,13.0018,13.0018,13.0132,13.0777,13.1385,13.2196,13.2956,13.3601,13.4221,13.4676,13.4904,13.4904,13.4904,13.4904,13.4904,13.4904,13.4904,13.4904,13.4904,13.4904,13.4904,13.4904,13.4904,13.4904,13.4904,13.4904,13.4904,13.4904,13.4904,13.4904,13.4904,13.4904,13.4904,14.9879,15.2896,15.6037,15.8297,15.9479,15.9628,16.01,16.0724,16.0776,16.0776,16.0776,16.0776,16.0776,16.0776,16.0776,16.0776,16.0776,16.0776,16.0776,16.0776,16.0776,16.0776,16.0776,16.0776,16.0776,16.0358,15.905,15.7314,15.5459,15.1598,14.6461,14.0328,13.4167,13.0915,12.8508,12.6867,12.5808,12.508,12.5021,12.5021,12.5021,12.5021,12.5021,12.5021,12.5021,12.5021,12.5021,12.5021,12.5021,12.5021,12.5021,12.5021,12.5059,12.5303,12.578,12.6615,12.783,12.8878,12.9714,12.998,12.998,13.0018,13.0018,13.0018,13.0018,13.0018,13.0018,13.0018,13.0018,13.0018,13.0018,13.0018,13.0018,13.0018,13.0018,13.0018,13.0018,13.0018,13.0018,13.0018,13.0018,13.0018,13.0018,13.0018,13.0018,13.0512,13.1005,13.1741,13.2538,13.3335,13.4031,13.4563,13.4904,13.4904,13.4904,13.4904,13.4904,13.4904,13.4904,13.4904,13.4904,13.4904,13.4904,13.4904,13.4904,13.4904,13.4904,13.4904,13.4904,13.4904,13.4904,13.4904,13.4904,13.4904,13.4904,14.67,15.0073,15.3684,15.5832,15.6898,15.7893,15.9128,16.0103,16.057,16.0776,16.0776,16.0776,16.0776,16.0776,16.0776,16.0776,16.0776,16.0776,16.0776,16.0776,16.0776,16.0776,16.0776,16.0776,16.0776,16.0462,15.9523,15.7843,15.6093,15.321,14.9033,14.4401,13.8407,13.3477,13.1148,12.7981,12.6279,12.5257,12.5021,12.5021,12.5021,12.5021,12.5021,12.5021,12.5021,12.5021,12.5021,12.5021,12.5021,12.5021,12.5021,12.5021,12.5021,12.5021,12.5417,12.6176,12.6594,12.783,12.9045,12.96,12.9714,12.998,13.0018,13.0018,13.0018,13.0018,13.0018,13.0018,13.0018,13.0018,13.0018,13.0018,13.0018,13.0018,13.0018,13.0018,13.0018,13.0018,13.0018,13.0018,13.0018,13.0018,13.0018,13.0018,13.0018,13.0398,13.0512,13.1195,13.1993,13.2804,13.3652,13.4259,13.4828,13.4866,13.4904,13.4904,13.4904,13.4904,13.4904,13.4904,13.4904,13.4904,13.4904,13.4904,13.4904,13.4904,13.4904,13.4904,13.4904,13.4904,13.4904,13.4904,13.4904,13.4904,13.4904,14.2427,14.7436,14.9869,15.1528,15.2842,15.5941,15.7979,15.9216,16.0152,16.0671,16.0776,16.0776,16.0776,16.0776,16.0776,16.0776,16.0776,16.0776,16.0776,16.0776,16.0776,16.0776,16.0776,16.0776,16.0776,16.0466,15.9785,15.8686,15.7261,15.4712,15.1265,14.6782,14.2797,13.9087,13.5715,13.016,12.6515,12.5257,12.508,12.5021,12.5021,12.5021,12.5021,12.5021,12.5021,12.5021,12.5021,12.5021,12.5021,12.5021,12.5021,12.5021,12.5021,12.5021,12.5265,12.5948,12.6138,12.7011,12.8339,12.8529,12.9045,12.9638,12.998,13.0018,13.0018,13.0018,13.0018,13.0018,13.0018,13.0018,13.0018,13.0018,13.0018,13.0018,13.0018,13.0018,13.0018,13.0018,13.0018,13.0018,13.0018,13.0018,13.0018,13.0018,13.0018,13.0018,13.0056,13.0512,13.1347,13.2196,13.3145,13.3804,13.4563,13.4714,13.4904,13.4904,13.4904,13.4904,13.4904,13.4904,13.4904,13.4904,13.4904,13.4904,13.4904,13.4904,13.4904,13.4904,13.4904,13.4904,13.4904,13.4904,13.4904,13.4904,13.4904,13.9178,14.3059,14.6923,14.9091,15.0331,15.2819,15.5831,15.8643,15.937,15.9943,16.0776,16.0776,16.0776,16.0776,16.0776,16.0776,16.0776,16.0776,16.0776,16.0776,16.0776,16.0776,16.0776,16.0776,16.0776,16.0675,16.0204,15.9576,15.8265,15.6146,15.2994,14.9697,14.6406,14.2685,13.8123,13.2052,12.763,12.6338,12.5611,12.5021,12.5021,12.5021,12.5021,12.5021,12.5021,12.5021,12.5021,12.5021,12.5021,12.5021,12.5021,12.5021,12.5021,12.5021,12.5076,12.5417,12.5835,12.6328,12.6783,12.7049,12.758,12.8855,12.9524,12.9942,13.0018,13.0018,13.0018,13.0018,13.0018,13.0018,13.0018,13.0018,13.0018,13.0018,13.0018,13.0018,13.0018,13.0018,13.0018,13.0018,13.0018,13.0018,13.0018,13.0018,13.0018,13.0018,13.0056,13.0398,13.1043,13.1703,13.2576,13.3297,13.4145,13.4563,13.4904,13.4904,13.4904,13.4904,13.4904,13.4904,13.4904,13.4904,13.4904,13.4904,13.4904,13.4904,13.4904,13.4904,13.4904,13.4904,13.4904,13.4904,13.4904,13.4904,13.4904,13.5352,13.9099,14.1838,14.4124,14.6131,14.9634,15.3154,15.6323,15.7804,15.8949,16.0047,16.0518,16.0776,16.0776,16.0776,16.0776,16.0776,16.0776,16.0776,16.0776,16.0776,16.0776,16.0776,16.0776,16.0776,16.0776,16.0675,16.01,15.8998,15.7102,15.4451,15.2247,14.9424,14.5577,14.0779,13.5216,13.0335,12.7806,12.5729,12.5021,12.5021,12.5021,12.5021,12.5021,12.5021,12.5021,12.5021,12.5021,12.5021,12.5021,12.5021,12.5021,12.5021,12.5021,12.5059,12.5135,12.5379,12.5835,12.6176,12.6366,12.6594,12.7868,12.8817,12.9676,13.0018,13.0018,13.0018,13.0018,13.0018,13.0018,13.0018,13.0018,13.0018,13.0018,13.0018,13.0018,13.0018,13.0018,13.0018,13.0018,13.0018,13.0018,13.0018,13.0018,13.0018,13.0018,13.0094,13.0246,13.0739,13.1323,13.1779,13.2424,13.35,13.4107,13.4297,13.4638,13.4904,13.4904,13.4904,13.4904,13.4904,13.4904,13.4904,13.4904,13.4904,13.4904,13.4904,13.4904,13.4904,13.4904,13.4904,13.4904,13.4904,13.4904,13.4904,13.1353,13.5322,13.5376,13.7545,14.105,14.6291,14.9847,15.2698,15.5518,15.7435,15.8634,15.9943,16.0567,16.0776,16.0776,16.0776,16.0776,16.0776,16.0776,16.0776,16.0776,16.0776,16.0776,16.0776,16.0776,16.0776,16.0776,16.0152,15.9103,15.8001,15.6837,15.5246,15.1753,14.7782,14.3076,13.8123,13.3402,12.882,12.62,12.5434,12.508,12.5021,12.5021,12.5021,12.5021,12.5021,12.5021,12.5021,12.5021,12.5021,12.5021,12.5021,12.5021,12.5021,12.5021,12.5021,12.5173,12.5438,12.5721,12.591,12.61,12.6594,12.7504,12.8703,12.9638,12.9866,13.0018,13.0018,13.0018,13.0018,13.0018,13.0018,13.0018,13.0018,13.0018,13.0018,13.0018,13.0018,13.0018,13.0018,13.0018,13.0018,13.0018,13.0018,13.0018,13.0018,13.0056,13.0094,13.0549,13.0943,13.1285,13.1779,13.2855,13.35,13.3791,13.4145,13.46,13.4752,13.4866,13.4904,13.4904,13.4904,13.4904,13.4904,13.4904,13.4904,13.4904,13.4904,13.4904,13.4904,13.4904,13.4904,13.4904,13.4904,13.4904,12.8258,12.9417,13.0257,13.3551,13.8477,14.1505,14.5425,14.9763,15.2425,15.4639,15.6487,15.8423,15.989,16.0619,16.0776,16.0776,16.0776,16.0776,16.0776,16.0776,16.0776,16.0776,16.0776,16.0776,16.0776,16.0776,16.0776,16.0567,15.9943,15.9155,15.7948,15.6677,15.3371,14.9361,14.4857,14.0653,13.6328,13.109,12.8099,12.6141,12.5198,12.5021,12.5021,12.5021,12.5021,12.5021,12.5021,12.5021,12.5021,12.5021,12.5021,12.5021,12.5021,12.5021,12.5021,12.5021,12.5021,12.5173,12.5325,12.5476,12.5607,12.6062,12.6821,12.7542,12.8741,12.9752,13.0018,12.9942,12.998,13.0018,13.0018,13.0018,13.0018,13.0018,13.0018,13.0018,13.0018,13.0018,13.0018,13.0018,13.0018,13.0018,13.0018,13.0018,13.0018,13.0018,13.0018,13.0018,13.0398,13.0792,13.1019,13.1171,13.2196,13.2918,13.3297,13.3829,13.4297,13.46,13.4828,13.4904,13.4904,13.4904,13.4904,13.4904,13.4904,13.4904,13.4904,13.4904,13.4904,13.4904,13.4904,13.4904,13.5018,13.4904,13.5056,12.4811,12.5035,12.7206,13.0366,13.401,13.7816,14.1418,14.4925,14.8468,15.135,15.3574,15.5808,15.8102,15.9838,16.057,16.0776,16.0776,16.0776,16.0776,16.0776,16.0776,16.0776,16.0776,16.0776,16.0776,16.0776,16.0776,16.0776,16.0619,15.989,15.8792,15.7155,15.4705,15.1157,14.6837,14.3064,13.8676,13.434,13.0451,12.7454,12.5611,12.5021,12.5021,12.5021,12.5021,12.5021,12.5021,12.5021,12.5021,12.5021,12.5021,12.5021,12.5021,12.5021,12.5021,12.5021,12.5021,12.5021,12.5021,12.5021,12.5189,12.5569,12.6062,12.6556,12.7466,12.8628,12.9387,12.9486,12.979,13.0018,13.0018,13.0018,13.0018,13.0018,13.0018,13.0018,13.0018,13.0018,13.0018,13.0018,13.0018,13.0018,13.0018,13.0018,13.0018,13.0018,13.0018,13.0018,13.0284,13.0587,13.0701,13.0754,13.1475,13.2196,13.269,13.3145,13.3563,13.4107,13.4297,13.4563,13.4714,13.4904,13.4904,13.4904,13.4904,13.4904,13.4904,13.4942,13.498,13.4942,13.4942,13.5284,13.5625,13.5511,13.5815,12.1629,12.2157,12.5202,12.7372,12.9485,13.4107,13.7152,13.927,14.3977,14.7536,14.9778,15.2497,15.5371,15.8001,15.9576,16.057,16.0776,16.0776,16.0776,16.0776,16.0776,16.0776,16.0776,16.0776,16.0776,16.0776,16.0776,16.0776,16.0724,16.0724,15.9523,15.7684,15.588,15.321,14.8595,14.4679,14.0934,13.6458,13.2439,12.8878,12.6162,12.5198,12.5021,12.5021,12.5021,12.5021,12.5021,12.5021,12.5021,12.5021,12.5021,12.5021,12.5021,12.5021,12.5021,12.5021,12.5021,12.5021,12.5021,12.5021,12.5038,12.5189,12.5569,12.5986,12.6669,12.758,12.8362,12.8453,12.9273,12.9714,12.9714,12.9942,13.0018,13.0018,13.0018,13.0018,13.0018,13.0018,13.0018,13.0018,13.0018,13.0018,13.0018,13.0018,13.0018,13.0018,13.0018,13.0018,13.0094,13.017,13.0284,13.0398,13.0929,13.1323,13.1779,13.2158,13.269,13.3487,13.3791,13.4031,13.4373,13.4714,13.479,13.4866,13.4904,13.4904,13.4904,13.4942,13.5018,13.5132,13.5359,13.5803,13.6221,13.6486,13.6676,12.0359,12.1931,12.2607,12.47,12.7579,12.9802,13.228,13.5369,13.9118,14.2375,14.5403,14.9332,15.2565,15.5211,15.7737,15.9838,16.0776,16.0776,16.0776,16.0776,16.0776,16.0776,16.0776,16.0776,16.0776,16.0776,16.0776,16.0776,16.0776,16.0776,15.9943,15.837,15.6412,15.3586,14.9806,14.5788,14.1552,13.7313,13.3172,12.9985,12.7884,12.6103,12.5021,12.5021,12.5021,12.5021,12.5021,12.5021,12.5021,12.5021,12.5021,12.5021,12.5021,12.5021,12.5021,12.5021,12.5021,12.5021,12.5021,12.5021,12.5021,12.5021,12.5151,12.5531,12.6062,12.648,12.7071,12.7716,12.8476,12.8969,12.9159,12.9638,12.9942,13.0018,13.0018,13.0018,13.0018,13.0018,13.0018,13.0018,13.0018,13.0018,13.0018,13.0018,13.0018,13.0018,13.0018,13.0018,13.0018,13.0018,13.0056,13.0132,13.0284,13.0663,13.1005,13.1423,13.1855,13.2576,13.2994,13.3487,13.3917,13.4449,13.4638,13.4752,13.479,13.4904,13.4904,13.4942,13.5284,13.5651,13.5879,13.6297,13.6942,13.7322,13.7625,11.9377,12.051,12.1496,12.2945,12.4739,12.6388,12.8502,13.0985,13.4322,13.7579,14.1221,14.5298,14.9054,15.2404,15.5383,15.7895,15.9576,16.0462,16.0776,16.0776,16.0776,16.0776,16.0776,16.0776,16.0776,16.0776,16.0776,16.0776,16.0776,16.0776,16.0047,15.884,15.7314,15.4605,15.0994,14.6947,14.3008,13.8562,13.4151,13.0625,12.8644,12.6221,12.5139,12.5021,12.5021,12.5021,12.5021,12.5021,12.5021,12.5021,12.5021,12.5021,12.5021,12.5021,12.5021,12.5021,12.5021,12.5021,12.5021,12.5021,12.5021,12.5021,12.5021,12.5189,12.5455,12.5683,12.5986,12.6745,12.7542,12.8248,12.8628,12.9083,12.9539,12.9904,13.0018,13.0018,13.0018,13.0018,13.0018,13.0018,13.0018,13.0018,13.0018,13.0018,13.0018,13.0018,13.0018,13.0018,13.0018,13.0018,13.0018,13.0094,13.0132,13.036,13.0474,13.0701,13.1005,13.1589,13.2158,13.2804,13.3373,13.3879,13.4183,13.4487,13.4752,13.4904,13.498,13.517,13.5625,13.6107,13.6524,13.7018,13.7663,13.8233,13.8575,11.8547,11.8907,12.0643,12.1629,12.2213,12.3972,12.5537,12.6993,13.0099,13.3221,13.6622,14.0751,14.5199,14.9178,15.206,15.5152,15.779,15.9628,16.0515,16.0776,16.0776,16.0776,16.0776,16.0776,16.0776,16.0776,16.0776,16.0776,16.0776,16.0724,16.01,15.8998,15.7737,15.54,15.2015,14.8485,14.4179,13.951,13.4742,13.105,12.8703,12.6397,12.5021,12.5021,12.5021,12.5021,12.5021,12.5021,12.5021,12.5021,12.5021,12.5021,12.5021,12.5021,12.5021,12.5021,12.5021,12.5021,12.5021,12.5021,12.5021,12.5021,12.5021,12.5059,12.5,12.5097,12.5379,12.5986,12.6691,12.7337,12.8149,12.8628,12.9045,12.9539,12.9866,13.0018,13.0018,13.0018,13.0018,13.0018,13.0018,13.0018,13.0018,13.0018,13.0018,13.0018,13.0018,13.0018,13.0018,13.0018,13.0018,13.0018,13.0018,13.0018,13.0018,13.017,13.0322,13.1019,13.1475,13.2158,13.2677,13.3259,13.3829,13.4107,13.4373,13.479,13.5132,13.5397,13.5955,13.6638,13.7208,13.7739,13.8347,13.8954,13.9372,11.7466,11.8813,11.9095,12.0265,12.178,12.227,12.3131,12.4459,12.6771,12.9311,13.1964,13.6306,14.0686,14.4953,14.8979,15.2304,15.5057,15.7478,15.9684,16.0414,16.0671,16.0776,16.0776,16.0776,16.0776,16.0776,16.0776,16.0776,16.0776,16.0671,15.9995,15.8998,15.779,15.5186,15.2015,14.8485,14.4234,13.9567,13.4742,13.0992,12.8703,12.6338,12.508,12.5021,12.5021,12.5021,12.5021,12.5021,12.5021,12.5021,12.5021,12.5021,12.5021,12.5021,12.5021,12.5021,12.5021,12.5021,12.5021,12.5021,12.5021,12.5021,12.5021,12.5021,12.5021,12.5021,12.5135,12.5325,12.5455,12.5932,12.6556,12.7694,12.8628,12.9045,12.9676,12.998,13.0018,13.0018,13.0018,13.0018,13.0018,13.0018,13.0018,13.0018,13.0018,13.0018,13.0018,13.0018,13.0018,13.0018,13.0018,13.0018,13.0018,13.0018,13.0018,13.0132,13.0132,13.0625,13.0891,13.1447,13.1851,13.2701,13.3525,13.3829,13.4183,13.4638,13.5056,13.5473,13.6183,13.6991,13.7663,13.8157,13.884,13.9638,13.9751,11.6706,11.7466,11.7883,11.8903,12.0132,12.0265,12.117,12.2698,12.3955,12.5943,12.8923,13.202,13.6122,14.0544,14.4446,14.8605,15.1964,15.4597,15.6999,15.9426,16.0466,16.0724,16.0776,16.0776,16.0776,16.0776,16.0776,16.0776,16.0567,16.01,15.9576,15.8897,15.6571,15.4062,15.1048,14.6947,14.2952,13.8661,13.4036,13.0625,12.8644,12.6338,12.5021,12.5021,12.5021,12.5021,12.5021,12.5021,12.5021,12.5021,12.5021,12.5021,12.5021,12.5021,12.5021,12.5021,12.5021,12.5021,12.5021,12.5021,12.5021,12.5021,12.5021,12.5021,12.5021,12.5021,12.5021,12.5021,12.5097,12.5303,12.6138,12.739,12.8248,12.8703,12.9463,12.998,13.0018,13.0018,13.0018,13.0018,13.0018,13.0018,13.0018,13.0018,13.0018,13.0018,13.0018,13.0018,13.0018,13.0018,13.0018,13.0018,13.0018,13.0018,13.0018,13.0018,13.0018,13.0246,13.0549,13.0839,13.1319,13.2245,13.3145,13.3677,13.4069,13.4525,13.5018,13.5511,13.6145,13.6866,13.7587,13.8385,13.903,13.9448,13.9713,11.6099,11.6327,11.6879,11.7676,11.8415,11.8547,11.9393,12.0904,12.1377,12.325,12.5847,12.8478,13.1979,13.6056,13.9847,14.3952,14.8369,15.1346,15.3896,15.766,15.9277,16.0309,16.0361,16.0724,16.0724,16.0776,16.0776,16.0619,16.0204,15.9471,15.8686,15.7684,15.5133,15.2501,14.947,14.5456,14.1483,13.7468,13.3056,13.0044,12.8157,12.6103,12.5021,12.5021,12.5021,12.5021,12.5021,12.5021,12.5021,12.5021,12.5021,12.5021,12.5021,12.5021,12.5021,12.5021,12.5021,12.5021,12.5021,12.5021,12.5021,12.5021,12.5021,12.5021,12.5021,12.5021,12.5021,12.5021,12.5021,12.5227,12.5797,12.6729,12.7489,12.8286,12.9083,12.9714,12.979,12.9904,13.0018,13.0018,13.0018,13.0018,13.0018,13.0018,13.0018,13.0018,13.0018,13.0018,13.0018,13.0018,13.0018,13.0018,13.0018,13.0018,13.0018,13.0018,13.0018,13.017,13.0208,13.0421,13.0991,13.1865,13.2639,13.3259,13.3917,13.4411,13.4866,13.5397,13.5803,13.6486,13.7273,13.7739,13.8347,13.9144,13.9524,11.5605,11.6289,11.6327,11.6858,11.7486,11.7562,11.7787,11.8349,11.9835,12.0925,12.2251,12.5688,12.8705,13.1298,13.5655,13.9781,14.3474,14.7979,15.11,15.4008,15.6793,15.8958,15.9015,15.9748,16.0212,16.0361,16.0724,16.0047,15.9261,15.8945,15.7414,15.5186,15.4163,15.1419,14.7387,14.4401,14.0765,13.623,13.2248,12.9461,12.7395,12.5867,12.5021,12.5021,12.5021,12.5021,12.5021,12.5021,12.4945,12.4983,12.5021,12.4831,12.4848,12.4945,12.4907,12.4831,12.4831,12.4907,12.4945,12.4945,12.5021,12.5021,12.5021,12.5021,12.5021,12.5021,12.5021,12.5021,12.5021,12.5038,12.5362,12.5835,12.6631,12.7527,12.8362,12.8779,12.8969,12.9539,13.0018,13.0018,13.0018,13.0018,13.0018,13.0018,13.0018,13.0018,13.0018,13.0018,13.0018,13.0018,13.0018,13.0018,13.0018,13.0018,13.0018,13.0018,13.0018,13.0018,13.0018,13.0132,13.0801,13.1499,13.2221,13.3032,13.4069,13.4714,13.4904,13.5094,13.5397,13.5967,13.6562,13.7018,13.7474,13.8271,13.884,11.528,11.5567,11.5567,11.6023,11.6689,11.6689,11.6993,11.7559,11.8384,11.9148,12.0191,12.2429,12.4981,12.7875,13.1082,13.5017,13.9487,14.3274,14.6937,15.0298,15.356,15.5678,15.6931,15.7456,15.816,15.859,15.8735,15.8423,15.7843,15.6624,15.5447,15.3633,15.1257,14.8202,14.4834,14.1777,13.8109,13.4225,13.109,12.8703,12.6985,12.567,12.508,12.5021,12.5021,12.5021,12.5021,12.5021,12.4755,12.4299,12.3785,12.352,12.352,12.352,12.352,12.352,12.4072,12.4299,12.4375,12.4755,12.4983,12.5021,12.5021,12.5021,12.5021,12.5021,12.5021,12.5021,12.5021,12.5021,12.5,12.5227,12.5835,12.6691,12.7489,12.8172,12.8703,12.9463,12.9942,13.0018,13.0018,13.0018,13.0018,13.0018,13.0018,13.0018,13.0018,13.0018,13.0018,13.0018,13.0018,13.0018,13.0018,13.0018,13.0018,13.0018,13.0018,13.0018,13.0018,13.0018,13.0701,13.1499,13.231,13.3335,13.4259,13.4904,13.4904,13.5018,13.5208,13.5435,13.5955,13.641,13.679,13.7398,13.7815,11.5128,11.5128,11.5128,11.5378,11.5909,11.5947,11.6289,11.6765,11.6993,11.7715,11.8624,11.9704,12.1866,12.4413,12.6977,13.0476,13.4726,13.8379,14.265,14.6633,14.869,15.0669,15.2776,15.4458,15.5588,15.5995,15.654,15.6518,15.5827,15.3955,15.2663,15.1961,14.7982,14.4834,14.2212,13.8888,13.5315,13.2034,12.952,12.763,12.6435,12.5434,12.5021,12.5021,12.5021,12.5021,12.5021,12.5021,12.4565,12.354,12.2761,12.2457,12.2571,12.2571,12.2609,12.2685,12.316,12.3464,12.3578,12.3899,12.4413,12.4641,12.4603,12.4734,12.4945,12.5021,12.5021,12.5021,12.5021,12.5021,12.5021,12.5059,12.5227,12.5835,12.6594,12.7504,12.8491,12.9425,13.0018,13.0018,13.0018,13.0018,13.0018,13.0018,13.0018,13.0018,13.0018,13.0018,13.0018,13.0018,13.0018,13.0018,13.0018,13.0018,13.0018,13.0018,13.0018,13.0018,13.0018,13.0018,13.0549,13.1095,13.2082,13.331,13.3993,13.479,13.4904,13.4904,13.4904,13.5018,13.5359,13.5625,13.6069,13.6562,13.698,11.509,11.5128,11.509,11.496,11.4998,11.5112,11.5188,11.534,11.5985,11.6437,11.6863,11.8432,11.959,12.0721,12.4018,12.6767,12.9049,13.4266,13.8433,14.015,14.1811,14.3505,14.6909,15.1031,15.2601,15.2798,15.4188,15.4129,15.2447,15.0994,14.947,14.7542,14.4901,14.2324,13.9624,13.6385,13.3345,13.0625,12.8333,12.6515,12.5316,12.5021,12.5021,12.5021,12.4945,12.4907,12.4869,12.4755,12.411,12.2799,12.2457,12.2305,12.2381,12.2457,12.2267,12.2267,12.2457,12.2533,12.2533,12.2799,12.316,12.3768,12.3882,12.4148,12.462,12.4755,12.4831,12.4869,12.4945,12.5021,12.5021,12.5021,12.5021,12.5211,12.5872,12.7011,12.8476,12.9463,12.998,13.0018,13.0018,13.0018,13.0018,13.0018,13.0018,13.0018,13.0018,13.0018,13.0018,13.0018,13.0018,13.0018,13.0018,13.0018,13.0018,13.0018,13.0018,13.0018,13.0018,13.0018,13.0284,13.0549,13.1157,13.25,13.3538,13.4411,13.4866,13.4904,13.4904,13.4904,13.4904,13.4904,13.5284,13.5841,13.6259,11.3495,11.3495,11.3495,11.3495,11.3533,11.4049,11.4239,11.439,11.515,11.5491,11.5698,11.6914,11.7807,11.8895,12.0786,12.3188,12.5916,12.9376,13.1353,13.2016,13.4863,13.783,14.0274,14.4631,14.7036,14.8005,14.8821,14.8997,14.8704,14.7652,14.6274,14.4457,14.2212,13.951,13.6385,13.4151,13.1495,12.8683,12.7395,12.6318,12.5219,12.5021,12.5021,12.4945,12.4489,12.4299,12.4186,12.373,12.2875,12.1946,12.1775,12.1452,12.0901,12.0863,12.0863,12.0939,12.1338,12.168,12.1756,12.204,12.2647,12.2837,12.2951,12.3102,12.3406,12.4034,12.4224,12.4337,12.4679,12.5021,12.5021,12.5021,12.5021,12.4962,12.5683,12.6631,12.783,12.922,12.9942,13.0018,13.0018,13.0018,13.0018,13.0018,13.0018,13.0018,13.0018,13.0018,13.0018,13.0018,13.0018,13.0018,13.0018,13.0018,13.0018,13.0018,13.0018,13.0018,13.0018,13.0018,13.0056,13.0284,13.0625,13.1969,13.2956,13.3728,13.4221,13.4411,13.46,13.4904,13.4904,13.4866,13.4828,13.5347,13.5613,11.2507,11.2507,11.2507,11.2507,11.2621,11.31,11.3365,11.3441,11.3973,11.4293,11.4444,11.5112,11.5889,11.6827,11.8295,12.0279,12.2518,12.3587,12.4699,12.6186,12.9956,13.2904,13.4978,13.7986,14.0683,14.2674,14.3479,14.3965,14.393,14.3312,14.2548,14.1215,13.8831,13.6157,13.3765,13.1669,12.9636,12.7102,12.6573,12.5811,12.4759,12.4603,12.4489,12.4165,12.373,12.3236,12.2971,12.2173,12.1281,12.0522,12.0522,12.0085,11.9364,11.9118,11.9118,11.9194,11.9744,12.018,12.0522,12.0996,12.1452,12.1926,12.2135,12.2154,12.2495,12.3085,12.3388,12.3464,12.4148,12.4641,12.4679,12.4831,12.5021,12.5021,12.597,12.6859,12.764,12.903,12.9904,13.0018,13.0018,13.0018,13.0018,13.0018,13.0018,13.0018,13.0018,13.0018,13.0018,13.0018,13.0018,13.0018,13.0018,13.0018,13.0018,13.0018,13.0018,13.0018,13.0018,13.0018,13.0132,13.0284,13.0739,13.1475,13.2234,13.288,13.3335,13.3601,13.3728,13.3955,13.4297,13.4449,13.4563,13.479,13.5056,11.2431,11.2393,11.2507,11.2355,11.2317,11.2469,11.2545,11.2545,11.2659,11.2811,11.2963,11.3517,11.3897,11.4394,11.6498,11.7849,11.8053,11.7836,11.9573,12.2818,12.5429,12.8122,13.0865,13.2547,13.4827,13.7445,13.9253,13.949,13.8729,13.8283,13.801,13.7355,13.4455,13.2728,13.2266,12.9111,12.7161,12.6496,12.5576,12.4624,12.3978,12.3806,12.3464,12.2723,12.2381,12.1984,12.1319,12.0427,11.963,11.8946,11.8832,11.8377,11.7752,11.7638,11.7506,11.7638,11.7562,11.7941,11.8681,11.8946,11.9706,12.0655,12.1206,12.1414,12.1888,12.2305,12.2495,12.2609,12.3274,12.3844,12.3996,12.4413,12.4793,12.5097,12.616,12.7071,12.764,12.8954,13.0018,12.9942,13.0018,13.0018,13.0018,13.0018,13.0018,13.0018,13.0018,13.0018,13.0018,13.0018,13.0018,13.0018,13.0018,13.0018,13.0018,13.0018,13.0018,13.0018,13.0018,13.0018,13.0132,13.017,13.0549,13.0815,13.1575,13.1855,13.231,13.2918,13.307,13.3259,13.3424,13.3753,13.3867,13.3993,13.4335,11.0252,11.0798,11.0784,11.0836,11.0912,11.1391,11.1619,11.1695,11.2279,11.2507,11.2583,11.2811,11.291,11.313,11.387,11.4313,11.4328,11.4938,11.6154,11.8148,12.0945,12.3489,12.5834,12.821,13.0301,13.2085,13.3927,13.4753,13.4611,13.3832,13.3294,13.3016,13.1901,13.0393,12.88,12.7571,12.6187,12.4965,12.442,12.3768,12.3047,12.2875,12.2723,12.2267,12.0845,11.982,11.9554,11.8719,11.8093,11.7866,11.7828,11.7714,11.7448,11.7393,11.7393,11.7393,11.741,11.7562,11.779,11.7883,11.8055,11.8624,11.9174,11.963,12.0009,12.0996,12.1566,12.1832,12.2439,12.3236,12.3578,12.3464,12.352,12.4224,12.5173,12.6008,12.6615,12.8096,12.9007,12.9258,12.9638,12.998,13.0018,13.0018,13.0018,13.0018,13.0018,13.0018,13.0018,13.0018,13.0018,13.0018,13.0018,13.0018,13.0018,13.0018,13.0018,13.0018,13.0018,13.0018,13.0056,13.0056,13.0208,13.0322,13.0625,13.0929,13.1399,13.212,13.2462,13.2614,13.2766,13.288,13.3032,13.3221,13.3373,10.862,10.9127,10.9113,10.9113,10.9151,10.9645,10.9873,10.9948,11.0746,11.1125,11.1201,11.1824,11.2089,11.2051,11.1444,11.133,11.1686,11.2676,11.3871,11.5225,11.7191,11.9375,12.1544,12.3472,12.5212,12.6769,12.8096,12.911,12.9853,12.9635,12.943,12.9393,12.9087,12.8098,12.6639,12.6033,12.5026,12.3543,12.335,12.2933,12.2173,12.2059,12.1756,12.1053,11.9232,11.8263,11.8301,11.7714,11.7145,11.6575,11.6537,11.6272,11.5757,11.5627,11.5681,11.5681,11.5681,11.5778,11.6082,11.6348,11.6651,11.6993,11.7807,11.8339,11.8491,11.9212,11.9895,12.0104,12.0883,12.1509,12.1908,12.1794,12.1908,12.2895,12.4148,12.5227,12.5872,12.7201,12.8286,12.84,12.9007,12.9714,12.9904,13.0018,13.0018,13.0018,13.0018,13.0018,13.0018,13.0018,13.0018,13.0018,13.0018,13.0018,13.0018,13.0018,13.0018,13.0018,13.0018,13.0018,13.0018,13.0018,13.0018,13.0208,13.017,13.0436,13.0587,13.1233,13.1271,13.1499,13.1855,13.1969,13.2107,13.2614,13.269,10.7481,10.7557,10.7468,10.7595,10.7557,10.7633,10.7595,10.7771,10.8379,10.8682,10.8948,11.0238,11.1011,11.086,10.9403,10.9151,11.0,11.0722,11.2136,11.3851,11.4164,11.5728,11.83,11.851,11.9856,12.2325,12.2853,12.3636,12.4979,12.5595,12.6437,12.7161,12.6138,12.5441,12.5208,12.4372,12.3312,12.2495,12.2419,12.2059,12.1357,12.1168,12.037,11.8908,11.7828,11.7334,11.7258,11.7203,11.6499,11.496,11.4976,11.4293,11.2902,11.2659,11.2735,11.2735,11.2712,11.3001,11.3729,11.4504,11.528,11.5947,11.6575,11.722,11.7182,11.7486,11.7676,11.7524,11.8852,11.9288,11.8927,11.9402,12.0237,12.1319,12.3312,12.4451,12.4772,12.6236,12.7321,12.7451,12.8096,12.8855,12.9714,12.998,12.9904,12.9866,12.998,13.0018,13.0018,13.0018,13.0018,13.0018,13.0018,13.0018,13.0018,13.0018,13.0018,13.0018,13.0018,13.0018,13.0018,13.0018,13.0018,13.0018,13.0018,13.0018,13.0018,13.0132,13.0322,13.0512,13.0967,13.1095,13.1233,13.1955,13.2107,10.6949,10.7481,10.7519,10.7519,10.7519,10.7519,10.7519,10.7557,10.7746,10.7822,10.7898,10.8316,10.8544,10.8468,10.805,10.7885,10.8278,10.8986,11.0028,11.114,11.1788,11.3223,11.5438,11.6667,11.8146,11.9536,12.0764,12.1494,12.1728,12.2382,12.3019,12.3727,12.3495,12.3321,12.3263,12.3031,12.2439,12.168,12.1566,12.1206,12.0351,11.9744,11.8908,11.7828,11.6955,11.6289,11.5719,11.5057,11.4223,11.3305,11.3229,11.3001,11.2598,11.2507,11.2507,11.2507,11.2507,11.2659,11.2887,11.3115,11.3343,11.3609,11.4261,11.4981,11.5681,11.6289,11.6765,11.7145,11.6727,11.6403,11.6268,11.7352,11.87,12.0123,12.0807,12.185,12.3064,12.462,12.5666,12.5818,12.6919,12.7944,12.821,12.8703,12.9045,12.9121,12.9539,13.0018,13.0018,12.998,12.998,13.0018,13.0018,12.998,13.0018,12.9904,13.0018,13.0018,12.9904,12.9866,13.0018,13.0018,13.0018,12.9562,12.9904,12.998,12.9866,12.9942,13.0094,13.0094,13.0208,13.0398,13.0474,13.0549,13.0739,10.6076,10.6494,10.6443,10.6494,10.6494,10.6443,10.6494,10.6481,10.6873,10.7025,10.681,10.5035,10.4408,10.4796,10.5537,10.6028,10.6418,10.7605,10.8506,10.9037,10.9783,11.0997,11.2543,11.3898,11.55,11.7133,11.8115,11.8796,11.9267,11.9949,12.0902,12.187,12.2022,12.1984,12.2022,12.1984,12.1566,12.0788,12.075,12.0313,11.9478,11.8643,11.7845,11.6917,11.5778,11.4998,11.4504,11.3707,11.2834,11.2089,11.1672,11.1368,11.1026,11.0684,11.0494,11.0494,11.0494,11.0494,11.0494,11.0784,11.1087,11.1467,11.2264,11.31,11.3989,11.4482,11.4732,11.4792,11.439,11.4065,11.4179,11.5188,11.6424,11.7693,11.8511,11.9573,12.1243,12.2629,12.3654,12.4072,12.5438,12.6463,12.6653,12.7489,12.8134,12.8286,12.859,12.8916,12.903,12.9273,12.9425,12.9425,12.9159,12.9068,12.8992,12.903,12.8992,12.903,12.903,12.903,12.8954,12.903,12.903,12.8992,12.8878,12.8992,12.9387,12.9463,12.9676,13.0018,13.0018,13.0018,13.0018,13.0018,13.0018,10.4438,10.4438,10.4538,10.4587,10.4538,10.4686,10.4736,10.4812,10.5433,10.5674,10.4721,10.093,9.9527,10.0349,10.2041,10.3283,10.4105,10.6292,10.7202,10.7265,10.8138,10.8948,10.9693,11.0551,11.2128,11.3969,11.4586,11.5551,11.6996,11.7941,11.9212,12.075,12.1016,12.1054,12.1168,12.1168,12.0788,11.9971,11.9895,11.944,11.8643,11.7752,11.6879,11.6006,11.4526,11.3653,11.3426,11.272,11.19,11.1011,11.0176,10.9365,10.8504,10.7656,10.7202,10.7087,10.7012,10.6949,10.7012,10.7744,10.8474,10.9461,11.0181,11.0991,11.184,11.1825,11.1431,11.1067,11.1537,11.2007,11.2302,11.2901,11.3725,11.4878,11.6128,11.766,11.91,12.037,12.1395,12.2154,12.3616,12.4717,12.4907,12.6046,12.7033,12.7071,12.7489,12.7853,12.7891,12.8248,12.859,12.8362,12.802,12.764,12.7701,12.7587,12.7777,12.7701,12.7564,12.7716,12.7853,12.7777,12.7587,12.8043,12.7777,12.7982,12.84,12.8628,12.8855,12.9296,12.9524,12.9714,12.979,12.979,12.9714,10.0743,10.0829,10.1515,10.1808,10.1906,10.2649,10.3039,10.2941,10.2338,10.0757,9.8427,9.6624,9.5853,9.6201,9.8044,9.941,10.0772,10.3754,10.5234,10.541,10.6961,10.7452,10.7038,10.8272,10.8776,10.8829,11.075,11.2603,11.4231,11.5374,11.6706,11.8169,11.8984,11.963,12.0237,12.0237,12.0161,11.9933,11.9326,11.8605,11.7714,11.6917,11.5778,11.4412,11.3881,11.3084,11.1847,11.0974,11.0176,10.9251,10.8506,10.7617,10.6625,10.5823,10.4968,10.4084,10.3476,10.3105,10.318,10.3972,10.4789,10.5606,10.6548,10.7475,10.8122,10.7074,10.6449,10.7095,10.7874,10.9027,11.0152,11.0541,11.1139,11.262,11.3709,11.4593,11.5737,11.7911,11.963,12.0465,12.1414,12.2459,12.3026,12.3996,12.4869,12.5628,12.6729,12.7511,12.7587,12.7602,12.7451,12.7049,12.7223,12.7299,12.7549,12.7435,12.7359,12.7549,12.7435,12.7245,12.7223,12.7435,12.7511,12.7223,12.7397,12.7435,12.764,12.7754,12.7868,12.8195,12.8308,12.8232,12.8308,12.859,12.8817,9.7605,9.823,9.9161,9.9796,10.0235,10.1305,10.1742,10.1349,9.7629,9.4436,9.1985,9.043,8.9757,8.9885,9.208,9.3919,9.5429,9.9491,10.1659,10.2234,10.4427,10.4885,10.4029,10.4657,10.4855,10.4806,10.6604,10.8613,11.0997,11.3221,11.5017,11.631,11.758,11.8567,11.9364,11.9402,11.9592,11.9877,11.8738,11.7769,11.6879,11.6424,11.5399,11.3767,11.3365,11.2378,11.0708,10.9873,10.8986,10.8151,10.657,10.5386,10.4706,10.2822,10.1394,10.0709,9.9858,9.9355,9.9318,9.9841,10.0422,10.1237,10.255,10.2696,10.0933,10.1447,10.2403,10.3277,10.4562,10.5928,10.7278,10.735,10.7767,10.9047,10.9849,11.0761,11.2096,11.4558,11.6537,11.7442,11.929,12.0807,12.1243,12.2381,12.3368,12.3747,12.4527,12.5325,12.5704,12.5476,12.4962,12.462,12.4848,12.5211,12.5173,12.5151,12.5211,12.5151,12.5151,12.5211,12.5211,12.5211,12.5173,12.5211,12.5173,12.5514,12.6312,12.635,12.6767,12.7109,12.7549,12.7549,12.7587,12.783,12.7716,9.3942,9.5033,9.6249,9.7207,9.8025,9.923,9.9737,9.921,9.2553,8.8197,8.5784,8.3586,8.2552,8.2529,8.5287,8.7495,8.9494,9.4218,9.6947,0.0,10.0481,10.1172,10.0295,9.9889,10.0103,10.083,10.1819,10.3923,10.7255,11.0654,11.3145,11.452,11.6217,11.7466,11.8187,11.8453,11.8908,11.9554,11.8017,11.6917,11.6289,11.6023,11.515,11.3615,11.2758,11.1596,10.9924,10.8948,10.8024,10.6924,10.4458,10.2812,10.2277,9.8924,9.6923,9.674,9.5593,9.4933,9.504,9.5181,9.5535,9.6364,9.8182,9.7217,9.2569,9.5548,9.8245,9.9279,10.0822,10.2398,10.3284,10.3189,10.3438,10.4405,10.521,10.6376,10.8038,11.0644,11.2704,11.4001,11.6972,11.8893,11.9365,12.0787,12.185,12.2078,12.2457,12.2781,12.3388,12.2761,12.2267,12.2419,12.2457,12.2457,12.2837,12.2495,12.2761,12.2457,12.2685,12.2875,12.2875,12.2875,12.2875,12.2571,12.2837,12.3216,12.4279,12.4641,12.5135,12.6084,12.6388,12.6463,12.6426,12.6312,12.6046,8.7198,8.7975,8.9937,9.1008,9.1445,9.3397,9.4313,9.4132,0.0,0.0,0.0,7.7242,7.5929,7.5816,7.8599,8.0759,8.2756,8.8078,9.1125,9.2198,9.399,9.4792,9.4562,9.3456,9.3238,9.3997,9.5745,9.8685,10.2794,10.623,10.9127,11.1558,11.4185,11.5567,11.5812,11.6993,11.7714,11.7828,11.6917,11.6403,11.6251,11.4868,11.3691,11.2811,11.1885,11.067,10.8948,10.8113,10.662,10.4208,10.2253,10.0102,9.7581,9.4144,9.1875,9.0915,8.8718,8.7747,8.8355,8.9046,8.9672,9.0317,9.2856,9.2069,8.6627,8.9506,9.2382,9.4268,9.5455,9.689,9.859,9.7945,9.7908,9.9324,10.0278,10.151,10.3366,10.5902,10.8549,11.1246,11.3286,11.5055,11.6713,11.8397,11.963,12.0313,12.0921,12.1756,12.2305,12.1319,12.0787,12.1888,12.2002,12.2305,12.2419,12.2267,12.2457,12.2192,12.2305,12.2457,12.2457,12.2457,12.2457,12.2154,12.2457,12.2495,12.2761,12.2837,12.3026,12.3292,12.3368,12.3368,12.3292,12.2857,12.2553,8.1101,0.0,8.4198,8.5423,0.0,8.821,8.756,8.4919,8.313,7.9443,7.4583,7.2132,7.0694,7.0179,7.2483,7.4424,7.619,8.1209,8.4289,8.5661,8.8145,8.9124,8.8541,8.7131,8.6914,8.781,8.9156,9.2202,9.7017,10.1074,10.4701,10.7929,11.0894,11.275,11.3633,11.5332,11.5833,11.496,11.4542,11.4352,11.4368,11.3517,11.272,11.19,0.0,0.0,0.0,0.0,0.0,0.0,0.0,0.0,0.0,0.0,0.0,8.4774,8.235,8.1021,8.1069,8.1793,8.2293,8.2647,8.4521,8.397,7.9959,8.4045,8.7451,8.9273,9.0817,9.2267,9.3554,9.3257,9.3163,9.3967,9.4822,9.604,9.7903,10.0413,10.341,10.6651,10.9544,11.2162,11.4487,11.6358,11.7769,11.8549,11.9042,11.963,12.0256,11.9516,11.889,11.9725,11.9915,11.9915,11.9915,11.9915,11.9877,11.9915,11.9915,11.9915,11.9915,11.9915,11.9915,11.9915,11.9915,12.0104,12.0465,12.0617,12.0731,12.1053,12.1167,12.0578,11.7969,11.846,11.9271,7.5461,7.6552,7.846,7.978,8.0679,8.1716,7.9603,7.5459,7.5972,7.3887,7.0087,6.7877,6.6409,6.5701,6.7303,6.8777,7.03,7.4571,7.7467,7.9132,8.212,8.3207,8.2642,8.0992,8.0917,8.212,8.2865,8.5828,9.0948,9.5816,10.0093,10.3907,10.7403,10.9896,11.1435,0.0,0.0,0.0,11.2507,11.2507,11.2507,11.2355,11.19,11.1011,11.0176,0.0,10.7088,10.4734,10.2712,10.1101,9.5874,0.0,0.0,0.0,0.0,0.0,0.0,0.0,0.0,0.0,0.0,0.0,7.5526,7.5064,7.343,7.814,8.2135,8.3979,8.5911,8.7366,8.8092,8.8175,8.8191,8.8405,8.8949,9.0182,9.2355,9.4631,9.7574,10.145,10.5313,10.8693,11.1552,11.3943,11.5597,11.671,11.6955,11.7089,11.7226,11.6661,11.6396,11.6396,11.6568,11.6605,11.6346,11.6273,11.6275,11.6346,11.6346,11.6329,11.6255,11.6311,11.6329,11.6218,11.6346,11.6555,11.7214,11.7421,11.7405,11.8196,11.8422,11.7201,11.2793,11.3754,11.5593,7.0241,7.0913,7.2185,7.3212,7.3747,7.1166,6.9726,6.9114,7.0013,6.9314,6.7253,6.4742,6.3316,6.2978,6.4086,6.4948,6.5802,6.9246,7.1708,7.3261,7.4846,7.6194,7.7272,7.5318,7.5253,7.6811,7.7919,8.0923,8.5593,9.0775,9.5302,9.9295,10.4506,10.7691,10.8858,10.9218,11.0383,11.2507,11.2507,11.2507,11.2507,11.1771,11.0974,11.0176,10.9341,10.7733,10.5419,10.4095,10.1547,9.7466,9.32,8.9559,8.6907,8.0436,7.6026,0.0,7.0793,0.0,0.0,0.0,0.0,0.0,0.0,0.0,0.0,7.0864,7.4504,7.7982,7.9797,8.1045,8.1459,8.1526,8.1825,8.2419,8.2675,8.3991,8.7181,8.8513,9.1039,9.5934,9.959,10.3282,10.7039,10.9839,11.2572,11.4634,11.5008,11.4081,11.2416,11.2387,11.2854,11.2795,11.3395,11.3462,11.2641,11.2366,11.2274,11.2274,11.2237,11.2311,11.2237,11.2237,11.2274,11.2274,11.22,11.2274,11.2514,11.2514,11.2551,11.2625,11.283,11.1909,10.8966,10.893,11.0498,6.6593,6.6661,6.8052,6.7106,6.475,6.4426,6.4635,6.5299,6.594,6.5498,6.4218,6.2668,6.1653,6.1069,6.1506,6.2161,6.3121,6.5149,6.7178,6.902,7.0564,7.1976,7.3198,7.1992,7.214,7.3561,7.4071,7.6536,8.071,8.4826,8.9046,9.3476,9.8772,10.1715,10.2266,10.4893,10.7327,10.9516,11.0598,11.1178,11.114,11.0798,11.0138,10.9303,10.805,10.6343,10.4156,10.1201,9.7925,9.4144,8.8981,8.4352,8.035,7.4326,6.9712,0.0,0.0,0.0,0.0,0.0,0.0,0.0,0.0,0.0,0.0,0.0,7.0616,0.0,7.5413,0.0,7.6792,7.6506,7.6319,7.6358,7.657,7.7697,8.0293,8.2438,8.5429,8.9754,9.4157,9.8389,10.2207,10.563,10.8473,11.0782,10.9294,10.8048,10.8232,10.867,10.9289,11.027,11.0748,11.0592,10.9509,10.8403,10.7679,10.7697,10.7371,10.7171,10.7171,10.7171,10.7171,10.7171,10.7171,10.7171,10.7135,10.7171,10.7171,10.6776,10.4749,10.2624,10.1921,10.2895,10.455,6.3163,6.2523,6.3121,6.0932,5.7302,5.9071,6.0525,6.1646,6.1989,6.1561,6.0712,6.0176,5.9426,5.8525,5.8609,5.9168,6.0063,6.148,6.3267,6.5502,6.7215,6.8833,7.0133,6.983,7.0094,7.0934,7.1189,7.2987,7.6211,7.9607,8.3478,8.7772,9.1515,9.3942,9.5204,10.0202,10.4023,10.6426,10.8593,10.9797,10.9986,10.9797,10.92,10.802,10.6482,10.4521,10.2092,9.8084,9.4309,9.092,8.4844,7.9406,7.4831,6.8975,0.0,0.0,0.0,0.0,0.0,0.0,0.0,0.0,0.0,5.806,5.8659,0.0,6.6377,0.0,7.1026,7.3124,7.3278,7.246,0.0,0.0,7.1037,7.1673,7.3456,7.6109,7.9455,8.3511,8.8351,9.3052,9.7451,10.0949,10.333,10.36,10.1659,10.1045,10.3413,10.3875,10.4461,10.5817,10.5925,10.5677,10.4661,10.3273,10.1979,10.1944,10.1329,10.0923,10.0923,10.0923,10.0923,10.0923,10.0923,10.0923,10.0871,10.0923,10.052,9.8859,9.5327,9.271,9.4573,9.6449,9.8307,5.9469,5.8025,5.5915,5.4285,5.333,5.4725,5.6073,5.7242,5.7279,5.6973,5.647,5.6419,5.5684,5.4528,5.5002,0.0,0.0,5.7815,6.0155,6.2423,6.4365,6.6446,6.8557,6.8584,6.8559,6.8712,6.9634,7.0808,7.234,7.6102,7.9626,8.2903,8.2844,8.4817,8.9074,9.5174,10.0361,10.4574,10.7366,10.9176,11.0,10.9176,10.7917,10.6182,10.447,10.1918,9.835,9.5317,9.1915,8.7887,8.131,7.603,7.2463,0.0,0.0,0.0,0.0,0.0,0.0,0.0,0.0,0.0,0.0,0.0,0.0,0.0,0.0,0.0,6.5777,0.0,7.0841,6.9542,0.0,0.0,0.0,6.6069,6.7717,6.942,7.2332,7.7283,0.0,0.0,0.0,0.0,9.5988,9.2399,9.3161,9.4735,9.6578,9.6872,9.7326,9.8668,9.783,9.7114,9.7195,9.6164,9.5176,9.447,9.3664,9.3347,9.3347,9.3313,9.3279,9.3347,9.3228,9.3279,9.3279,9.3073,9.1609,8.6472,8.5417,8.6071,8.8222,8.9862,9.1752,5.4418,4.9545,4.836,4.7746,4.7744,4.8846,5.048,5.2425,5.24,5.2301,5.2078,5.1757,5.0873,4.9555,4.95,0.0,0.0,0.0,5.7089,6.0743,6.2739,6.5366,6.8276,6.8431,6.8431,6.8456,6.8815,6.9634,7.0706,7.2936,7.3499,7.2425,0.0,0.0,8.3419,8.9388,9.5301,10.1093,10.501,10.7726,10.9176,10.8834,10.7006,10.3588,10.1015,9.7729,9.3486,9.0493,8.6477,8.1213,7.5994,7.0848,0.0,0.0,0.0,0.0,0.0,0.0,0.0,0.0,0.0,0.0,0.0,5.0524,0.0,0.0,0.0,0.0,5.948,6.2096,6.542,6.5733,0.0,0.0,0.0,0.0,0.0,0.0,0.0,6.9804,7.5239,8.0296,8.4069,8.4862,8.5195,8.5332,8.6508,8.8267,9.0402,0.0,9.1432,9.3421,9.3257,9.2565,9.1522,9.0951,9.0038,8.8321,8.7502,8.7055,8.7055,8.7055,8.7055,8.7055,8.7055,8.7055,8.7055,8.4081,8.0961,7.93,7.966,8.0962,8.2895,8.4231,8.5751,4.7612,0.0,0.0,0.0,0.0,4.2872,4.4632,4.6685,4.692,4.6965,4.6776,4.642,0.0,0.0,0.0,0.0,0.0,0.0,5.3505,5.7468,6.0752,6.4028,6.7195,6.7221,6.7374,6.7652,6.7184,6.7247,6.7813,6.783,6.6423,6.3783,0.0,0.0,0.0,0.0,9.0806,9.746,10.2667,10.6225,10.8252,10.8341,10.634,10.2373,9.8129,9.3548,8.8724,8.5253,8.0808,7.5269,7.0318,0.0,0.0,0.0,0.0,0.0,0.0,0.0,0.0,0.0,0.0,0.0,0.0,0.0,0.0,0.0,0.0,0.0,0.0,0.0,6.0354,6.2016,6.2198,0.0,0.0,0.0,0.0,0.0,0.0,0.0,0.0,0.0,7.31,7.3965,7.5637,0.0,0.0,8.2087,8.4042,8.4351,8.5055,8.7117,0.0,0.0,0.0,8.5194,8.4355,8.2367,8.1505,8.1042,8.1094,8.0537,8.0174,8.0306,8.0488,8.0044,7.8699,7.5018,7.2859,7.3443,7.4266,7.5393,7.6935,7.8028,7.9235,0.0,0.0,0.0,0.0,0.0,0.0,0.0,0.0,4.0608,4.0636,0.0,4.0149,0.0,0.0,0.0,0.0,0.0,0.0,0.0,0.0,5.7831,6.2171,6.4278,6.4278,6.4874,6.5834,6.4246,6.3202,6.2401,5.9873,0.0,0.0,0.0,0.0,0.0,0.0,8.7402,9.3954,10.0261,10.4746,10.7341,10.7506,10.6166,10.3222,9.6037,8.9649,8.4296,7.9796,7.5353,7.0892,6.4368,0.0,0.0,0.0,0.0,0.0,0.0,0.0,0.0,0.0,0.0,0.0,0.0,0.0,0.0,0.0,0.0,0.0,0.0,0.0,0.0,5.8666,0.0,0.0,0.0,0.0,0.0,0.0,0.0,0.0,0.0,0.0,5.9727,6.4026,6.8573,7.1188,0.0,0.0,0.0,0.0,7.7709,7.8824,7.8129,7.7818,7.8743,7.8019,7.7094,7.6254,0.0,0.0,7.5102,7.3369,7.2145,7.2593,7.3096,7.1966,6.7434,6.6411,6.6695,6.811,6.8488,6.8897,6.9899,7.0859,7.1881,0.0,0.0,0.0,0.0,0.0,0.0,0.0,0.0,0.0,0.0,0.0,3.3985,0.0,0.0,0.0,0.0,0.0,0.0,0.0,0.0,5.0558,5.466,5.8091,5.8701,5.9552,0.0,5.9995,5.7129,0.0,0.0,0.0,0.0,0.0,0.0,0.0,0.0,8.1348,8.9025,9.6681,10.1678,10.3792,10.497,10.3561,9.9474,9.4373,8.7023,7.717,7.3519,6.9152,0.0,0.0,0.0,0.0,0.0,0.0,0.0,0.0,0.0,0.0,0.0,0.0,0.0,0.0,0.0,0.0,0.0,0.0,0.0,0.0,0.0,0.0,0.0,5.6986,0.0,0.0,0.0,0.0,0.0,0.0,0.0,0.0,0.0,5.2247,5.675,6.1851,6.5941,6.9069,7.1772,7.3788,0.0,0.0,0.0,0.0,0.0,0.0,0.0,7.3334,7.2623,7.1831,7.0904,6.9807,6.7873,6.6512,6.668,0.0,0.0,6.0358,6.0168,6.1137,6.1982,6.2744,6.3354,6.3777,6.4839,6.6126,0.0,0.0,0.0,0.0,0.0,0.0,0.0,0.0,0.0,2.8808,2.852,0.0,0.0,0.0,0.0,0.0,0.0,0.0,0.0,0.0,0.0,0.0,5.1451,5.2619,0.0,0.0,0.0,0.0,0.0,0.0,0.0,0.0,0.0,0.0,0.0,0.0,7.6552,8.4597,9.2993,9.8261,10.0332,10.1302,9.9703,9.5397,9.1562,8.4643,7.4185,0.0,0.0,0.0,0.0,0.0,0.0,0.0,0.0,0.0,0.0,0.0,0.0,0.0,0.0,0.0,0.0,0.0,0.0,0.0,0.0,0.0,0.0,0.0,0.0,0.0,5.2866,0.0,0.0,0.0,0.0,0.0,0.0,0.0,0.0,0.0,0.0,0.0,5.4877,5.9978,6.3979,6.7288,6.9675,7.0643,7.1301,0.0,0.0,0.0,0.0,0.0,0.0,0.0,0.0,0.0,0.0,0.0,0.0,0.0,0.0,5.5995,5.3342,5.3437,5.431,5.5709,0.0,0.0,0.0,0.0,0.0,0.0,0.0,0.0,0.0,0.0,0.0,0.0,0.0,0.0,0.0,0.0,0.0,0.0,2.1761,0.0,0.0,0.0,0.0,0.0,0.0,0.0,0.0,0.0,0.0,0.0,0.0,0.0,0.0,0.0,0.0,0.0,0.0,0.0,0.0,0.0,0.0,0.0,8.0874,8.9098,9.4569,9.6962,9.652,9.4595,9.1341,8.7578,8.227,7.5333,0.0,0.0,0.0,0.0,0.0,0.0,0.0,0.0,0.0,0.0,0.0,0.0,0.0,0.0,0.0,0.0,0.0,0.0,0.0,0.0,0.0,0.0,0.0,0.0,0.0,0.0,4.9522,5.1742,5.1927,0.0,0.0,0.0,0.0,0.0,0.0,0.0,0.0,0.0,0.0,5.8713,6.2936,6.4912,6.6993,6.8456,6.8534,6.8456,6.8456,6.8508,6.8482,6.7633,0.0,0.0,0.0,0.0,0.0,0.0,0.0,0.0,0.0,0.0,0.0,0.0,0.0,0.0,0.0,0.0,0.0,0.0,0.0,0.0,0.0,0.0,0.0,0.0,0.0,0.0,0.0,0.0,0.0,0.0,0.0,0.0,0.0,0.0,0.0,0.0,0.0,0.0,0.0,0.0,0.0,0.0,0.0,0.0,0.0,0.0,0.0,0.0,0.0,0.0,0.0,0.0,0.0,0.0,6.864,7.5675,8.4566,8.9519,9.0288,9.1306,8.9406,8.4269,8.141,7.6953,0.0,0.0,0.0,0.0,0.0,0.0,0.0,0.0,0.0,0.0,0.0,0.0,0.0,0.0,0.0,0.0,0.0,0.0,0.0,0.0,0.0,0.0,0.0,0.0,0.0,0.0,0.0,0.0,4.9861,4.9639,4.6076,0.0,0.0,0.0,0.0,0.0,0.0,0.0,0.0,0.0,0.0,5.9101,6.3064,6.5344,6.6969,6.7783,6.7885,6.7885,6.7885,6.7885,6.6986,6.4448,0.0,0.0,0.0,0.0,0.0,0.0,0.0,0.0,0.0,0.0,0.0,0.0,0.0,0.0,0.0,0.0,0.0,0.0,0.0,0.0,0.0,0.0,0.0,0.0,0.0,0.0,0.0,0.0,0.0,0.0,0.0,0.0,0.0,0.0,0.0,0.0,0.0,0.0,0.0,0.0,0.0,0.0,0.0,0.0,0.0,0.0,0.0,0.0,0.0,0.0,0.0,0.0,0.0,6.4237,7.1159,7.9896,8.4501,8.4755,8.5616,8.3809,7.9118,7.6343,7.2172,0.0,0.0,0.0,0.0,0.0,0.0,0.0,0.0,0.0,0.0,0.0,0.0,0.0,0.0,0.0,0.0,0.0,0.0,0.0,0.0,0.0,0.0,0.0,0.0,0.0,0.0,0.0,0.0,4.4559,4.5499,4.353,0.0,0.0,0.0,0.0,0.0,0.0,0.0,0.0,0.0,0.0,5.51,5.9892,6.2737,0.0,0.0,6.643,6.6682,6.6656,6.6992,6.6074,6.2383,6.0554,0.0,0.0,0.0,0.0,0.0,0.0,0.0,0.0,0.0,0.0,0.0,0.0,0.0,0.0,0.0,0.0,0.0,0.0,0.0,0.0,0.0,0.0,0.0,0.0,0.0,0.0,0.0,0.0,0.0,0.0,0.0,0.0,0.0,0.0,0.0,0.0,0.0,0.0,0.0,0.0,0.0,0.0,0.0,0.0,0.0,0.0,0.0,0.0,0.0,0.0,0.0,0.0,0.0,6.7103,7.5052,7.9431,8.0134,7.9612,7.8103,7.5639,7.2211,6.8155,0.0,0.0,0.0,0.0,0.0,0.0,0.0,0.0,0.0,0.0,0.0,0.0,0.0,0.0,0.0,0.0,0.0,0.0,0.0,0.0,0.0,0.0,0.0,0.0,0.0,0.0,0.0,0.0,0.0,0.0,0.0,0.0,0.0,0.0,0.0,0.0,0.0,0.0,0.0,0.0,0.0,5.1259,5.5838,5.9375,6.1953,0.0,0.0,6.4787,6.4787,6.5596,6.4587,5.9437,0.0,0.0,0.0,0.0,0.0,0.0,0.0,0.0,0.0,0.0,0.0,0.0,0.0,0.0,0.0,0.0,0.0,0.0,0.0,0.0,0.0,0.0,0.0,0.0,0.0,0.0,0.0,0.0,0.0,0.0,0.0,0.0,0.0,0.0,0.0,0.0,0.0,0.0,0.0,0.0,0.0,0.0,0.0,0.0,0.0,0.0,0.0,0.0,0.0,0.0,0.0,0.0,0.0,0.0,6.3412,7.0159,7.4062,7.5093,7.4951,7.3786,7.1532,6.8576,0.0,0.0,0.0,0.0,0.0,0.0,0.0,0.0,0.0,0.0,0.0,0.0,0.0,0.0,0.0,0.0,0.0,0.0,0.0,0.0,0.0,0.0,0.0,0.0,0.0,0.0,0.0,2.6436,0.0,0.0,0.0,0.0,0.0,0.0,0.0,0.0,0.0,0.0,0.0,0.0,0.0,0.0,4.8665,5.3224,5.6419,5.9124,0.0,0.0,6.1581,6.1458,6.2194,6.0768,0.0,0.0,0.0,0.0,0.0,0.0,0.0,0.0,0.0,0.0,0.0,0.0,0.0,0.0,0.0,0.0,0.0,0.0,0.0,0.0,0.0,0.0,0.0,0.0,0.0,0.0,0.0,0.0,0.0,0.0,0.0,0.0,0.0,0.0,0.0,0.0,0.0,0.0,0.0,0.0,0.0,0.0,0.0,0.0,0.0,0.0,0.0,0.0,0.0,0.0,0.0,0.0,0.0,0.0,5.2622,5.9987,6.5882,6.9839,7.18,7.1878,7.1063,6.9378,6.6533,6.3538,0.0,0.0,0.0,0.0,0.0,0.0,0.0,0.0,0.0,0.0,0.0,0.0,0.0,0.0,0.0,0.0,0.0,0.0,0.0,0.0,0.0,0.0,0.0,0.0,0.0,0.0,0.0,0.0,0.0,0.0,0.0,0.0,0.0,0.0,0.0,0.0,0.0,0.0,0.0,0.0,0.0,0.0,4.9185,5.15,0.0,0.0,0.0,5.6872,5.708,0.0,0.0,0.0,0.0,0.0,0.0,0.0,0.0,0.0,0.0,0.0,0.0,0.0,0.0,0.0,0.0,0.0,0.0,0.0,0.0,0.0,0.0,0.0,0.0,0.0,0.0,0.0,0.0,0.0,0.0,0.0,0.0,0.0,0.0,0.0,0.0,0.0,0.0,0.0,0.0,0.0,0.0,0.0,0.0,0.0,0.0,0.0,0.0,0.0,0.0,0.0,0.0,0.0,0.0,0.0,0.0,0.0,5.6595,6.2062,6.6428,6.9401,6.9762,6.9378,6.843,6.5756,6.2972,0.0,0.0,0.0,0.0,0.0,0.0,0.0,0.0,0.0,0.0,0.0,0.0,0.0,0.0,0.0,0.0,0.0,0.0,0.0,0.0,0.0,0.0,0.0,0.0,0.0,0.0,0.0,0.0,0.0,0.0,0.0,0.0,0.0,0.0,0.0,0.0,0.0,0.0,0.0,0.0,0.0,3.9994,4.5029,4.6242,4.6971,0.0,0.0,0.0,5.2088,5.2797,0.0,0.0,0.0,0.0,0.0,0.0,0.0,0.0,0.0,0.0,0.0,0.0,0.0,0.0,0.0,0.0,0.0,0.0,0.0,0.0,0.0,0.0,0.0,0.0,0.0,0.0,0.0,0.0,0.0,0.0,0.0,0.0,0.0,0.0,0.0,0.0,0.0,0.0,0.0,0.0,0.0,0.0,0.0,0.0,0.0,0.0,0.0,0.0,0.0,0.0,0.0,0.0,0.0,0.0,0.0,0.0,5.3063,5.9124,6.3834,6.7174,6.8251,6.861,6.8379,6.6535,6.3778,0.0,0.0,0.0,0.0,0.0,0.0,0.0,0.0,0.0,0.0,0.0,0.0,0.0,0.0,0.0,0.0,0.0,0.0,0.0,0.0,0.0,0.0,0.0,0.0,0.0,0.0,0.0,0.0,0.0,0.0,0.0,0.0,0.0,0.0,0.0,0.0,0.0,0.0,0.0,0.0,0.0,3.8975,4.4185,4.4247,0.0,0.0,0.0,0.0,4.795,4.768,0.0,0.0,0.0,0.0,0.0,0.0,0.0,0.0,0.0,0.0,0.0,0.0,0.0,0.0,0.0,0.0,0.0,0.0,0.0,0.0,0.0,0.0,0.0,0.0,0.0,0.0,0.0,0.0,0.0,0.0,0.0,0.0,0.0,0.0,0.0,0.0,0.0,0.0,0.0,0.0,0.0,0.0,0.0,0.0,0.0,0.0,0.0,0.0,0.0,0.0,0.0,0.0,0.0,0.0,0.0,0.0,5.0103,5.6048,6.15,6.6507,6.7841,6.8431,6.8379,6.7029,6.425,0.0,0.0,0.0,0.0,0.0,0.0,0.0,0.0,0.0,0.0,0.0,0.0,0.0,0.0,0.0,0.0,0.0,0.0,0.0,0.0,0.0,0.0,0.0,0.0,0.0,0.0,0.0,0.0,0.0,0.0,0.0,0.0,0.0,0.0,0.0,0.0,0.0,0.0,0.0,0.0,3.1542,3.4915,3.9005,0.0,0.0,0.0,0.0,0.0,0.0,4.2126,4.0688,0.0,0.0,0.0,0.0,0.0,0.0,0.0,0.0,0.0,0.0,0.0,0.0,0.0,0.0,0.0,0.0,0.0,0.0,0.0,0.0,0.0,0.0,0.0,0.0,0.0,0.0,0.0,0.0,0.0,0.0,0.0,0.0,0.0,0.0,0.0,0.0,0.0,0.0,0.0,0.0,0.0,0.0,0.0,0.0,0.0,0.0,0.0,0.0,0.0,0.0,0.0,0.0,0.0,0.0,0.0,4.7308,5.2982,5.9089,6.5643,6.7328,6.82,6.8379,6.721,6.4331,5.9731,0.0,0.0,0.0,0.0,0.0,0.0,0.0,0.0,0.0,0.0,0.0,0.0,0.0,0.0,0.0,0.0,0.0,0.0,0.0,0.0,0.0,0.0,0.0,0.0,0.0,0.0,0.0,0.0,0.0,0.0,0.0,0.0,0.0,0.0,0.0,0.0,0.0,0.0,0.0,2.6898,3.014,0.0,0.0,0.0,0.0,0.0,0.0,0.0,0.0,3.5385,0.0,0.0,0.0,0.0,0.0,0.0,0.0,0.0,0.0,0.0,0.0,0.0,0.0,0.0,0.0,0.0,0.0,0.0,0.0,0.0,0.0,0.0,0.0,0.0,0.0,0.0,0.0,0.0,0.0,0.0,0.0,0.0,0.0,0.0,0.0,0.0,0.0,0.0,0.0,0.0,0.0,0.0,0.0,0.0,0.0,0.0,0.0,0.0,0.0,0.0,0.0,0.0,0.0,0.0,0.0,0.0,5.0178,5.6488,6.2041,6.5315,6.743,6.8354,6.6847,6.3627,0.0,0.0,0.0,0.0,0.0,0.0,0.0,0.0,0.0,0.0,0.0,0.0,0.0,0.0,0.0,0.0,0.0,0.0,0.0,0.0,0.0,0.0,0.0,0.0,0.0,0.0,0.0,0.0,0.0,0.0,0.0,0.0,0.0,0.0,0.0,0.0,0.0,0.0,0.0,1.6667,2.2169,0.0,0.0,0.0,0.0,0.0,0.0,0.0,0.0,3.2287,0.0,0.0,0.0,0.0,0.0,0.0,0.0,0.0,0.0,0.0,0.0,0.0,0.0,0.0,0.0,0.0,0.0,0.0,0.0,0.0,0.0,0.0,0.0,0.0,0.0,0.0,0.0,0.0,0.0,0.0,0.0,0.0,0.0,0.0,0.0,0.0,0.0,0.0,0.0,0.0,0.0,0.0,0.0,0.0,0.0,0.0,0.0,0.0,0.0,0.0,0.0,0.0,0.0,0.0,0.0,0.0,0.0,0.0,5.4427,6.0867,6.471,6.7225,6.8199,6.4822,6.0929,0.0,0.0,0.0,0.0,0.0,0.0,0.0,0.0,0.0,0.0,0.0,0.0,0.0,0.0,0.0,0.0,0.0,0.0,0.0,0.0,0.0,0.0,0.0,0.0,0.0,0.0,0.0,0.0,0.0,0.0,0.0,0.0,0.0,0.0,0.0,0.0,0.0,0.0,0.0,0.0,0.0,0.0,0.0,0.0,0.0,0.0,0.0,0.0,0.0,0.0,0.0,0.0,0.0,0.0,0.0,0.0,0.0,0.0,0.0,0.0,0.0,0.0,0.0,0.0,0.0,0.0,0.0,0.0,0.0,0.0,0.0,0.0,0.0,0.0,0.0,0.0,0.0,0.0,0.0,0.0,0.0,0.0,0.0,0.0,0.0,0.0,0.0,0.0,0.0,0.0,0.0,0.0,0.0,0.0,0.0,0.0,0.0,0.0,0.0,0.0,0.0,0.0,0.0,0.0,0.0,0.0,0.0,0.0,5.2336,5.9292,6.3983,6.7019,6.8405,6.2408,5.7497,0.0,0.0,0.0,0.0,0.0,0.0,0.0,0.0,0.0,0.0,0.0,0.0,0.0,0.0,0.0,0.0,0.0,0.0,0.0,0.0,0.0,0.0,0.0,0.0,0.0,0.0,0.0,0.0,0.0,0.0,0.0,0.0,0.0,0.0,0.0,0.0,0.0,0.0,0.0,0.0,0.0,0.0,0.0,0.0,0.0,0.0,0.0,0.0,2.57,0.0,0.0,0.0,0.0,0.0,0.0,0.0,0.0,0.0,0.0,0.0,0.0,0.0,0.0,0.0,0.0,0.0,0.0,0.0,0.0,0.0,0.0,0.0,0.0,0.0,0.0,0.0,0.0,0.0,0.0,0.0,0.0,0.0,0.0,0.0,0.0,0.0,0.0,0.0,0.0,0.0,0.0,0.0,0.0,0.0,0.0,0.0,0.0,0.0,0.0,0.0,0.0,0.0,0.0,0.0,0.0,0.0,0.0,0.0,4.9751,5.5516,6.1916,6.6299,6.8096,6.0181,5.3605,0.0,0.0,0.0,0.0,0.0,0.0,0.0,0.0,0.0,0.0,0.0,0.0,0.0,0.0,0.0,0.0,0.0,0.0,0.0,0.0,0.0,0.0,0.0,0.0,0.0,0.0,0.0,0.0,0.0,0.0,0.0,0.0,0.0,0.0,0.0,0.0,0.0,0.0,0.0,0.0,0.0,0.0,0.0,0.0,0.0,0.0,0.0,0.0,0.0,0.0,0.0,0.0,0.0,0.0,0.0,0.0,0.0,0.0,0.0,0.0,0.0,0.0,0.0,0.0,0.0,0.0,0.0,0.0,0.0,0.0,0.0,0.0,0.0,0.0,0.0,0.0,0.0,0.0,0.0,0.0,0.0,0.0,0.0,0.0,0.0,0.0,0.0,0.0,0.0,0.0,0.0,0.0,0.0,0.0,0.0,0.0,0.0,0.0,0.0,0.0,0.0,0.0,0.0,0.0,0.0,0.0,0.0,0.0,4.6228,5.3178,5.8777,6.0669,5.8759,5.3082,4.8116,0.0,0.0,0.0,0.0,0.0,0.0,0.0,0.0,0.0,0.0,0.0,0.0,0.0,0.0,0.0,0.0,0.0,0.0,0.0,0.0,0.0,0.0,0.0,0.0,0.0,0.0,0.0,0.0,0.0,0.0,0.0,0.0,0.0,0.0,0.0,0.0,0.0,0.0,0.0,0.0,0.0,0.0,0.0,0.0,0.0,0.0,0.0,0.0,0.0,0.0,0.0,0.0,0.0,0.0,0.0,0.0,0.0,0.0,0.0,0.0,0.0,0.0,0.0,0.0,0.0,0.0,0.0,0.0,0.0,0.0,0.0,0.0,0.0,0.0,0.0,0.0,0.0,0.0,0.0,0.0,0.0,0.0,0.0,0.0,0.0,0.0,0.0,0.0,0.0,0.0,0.0,0.0,0.0,0.0,0.0,0.0,0.0,0.0,0.0,0.0,0.0,0.0,0.0,0.0,0.0,0.0,0.0,0.0,0.0,4.9087,5.2375,5.2355,4.8906,4.5601,4.2114,0.0,0.0,0.0,0.0,0.0,0.0,0.0,0.0,0.0,0.0,0.0,0.0,0.0,0.0,0.0,0.0,0.0,0.0,0.0,0.0,0.0,0.0,0.0,0.0,0.0,0.0,0.0,0.0,0.0,0.0,0.0,0.0,0.0,0.0,0.0,0.0,0.0,0.0,0.0,0.0,0.0,0.0,0.0,0.0,0.0,0.0,0.0,0.0,0.0,0.0,0.0,0.0,0.0,0.0,0.0,0.0,0.0,0.0,0.0,0.0,0.0,0.0,0.0,0.0,0.0,0.0,0.0,0.0,0.0,0.0,0.0,0.0,0.0,0.0,0.0,0.0,0.0,0.0,0.0,0.0,0.0,0.0,0.0,0.0,0.0,0.0,0.0,0.0,0.0,0.0,0.0,0.0,0.0,0.0,0.0,0.0,0.0,0.0,0.0,0.0,0.0,0.0,0.0,0.0,0.0,0.0,0.0,0.0,0.0,4.1946,4.1069,4.0868,4.1311,3.8816,3.5682,0.0,0.0,0.0,0.0,0.0,0.0,0.0,0.0,0.0,0.0,0.0,0.0,0.0,0.0,0.0,0.0,0.0,0.0,0.0,0.0,0.0,0.0,0.0,0.0,0.0,0.0,0.0,0.0,0.0,0.0,0.0,0.0,0.0,0.0,0.0,0.0,0.0,0.0,0.0,0.0,0.0,0.0,0.0,0.0,0.0,0.0,0.0,0.0,0.0,0.0,0.0,0.0,0.0,0.0,0.0,0.0,0.0,0.0,0.0,0.0,0.0,0.0,0.0,0.0,0.0,0.0,0.0,0.0,0.0,0.0,0.0,0.0,0.0,0.0,0.0,0.0,0.0,0.0,0.0,0.0,0.0,0.0,0.0,0.0,0.0,0.0,0.0,0.0,0.0,0.0,0.0,0.0,0.0,0.0,0.0,0.0,0.0,0.0,0.0,0.0,0.0,0.0,0.0,0.0,0.0,0.0,0.0,0.0,0.0,3.0897,3.2323,3.2812,3.2178,3.1881,3.011,2.6801,0.0,0.0,0.0,0.0,0.0,0.0,0.0,0.0,0.0,0.0,0.0,0.0,0.0,0.0,0.0,0.0,0.0,0.0,0.0,0.0,0.0,0.0,0.0,0.0,0.0,0.0,0.0,0.0,0.0,0.0,0.0,0.0,0.0,0.0,0.0,0.0,0.0,0.0,0.0,0.0,0.0,0.0,0.0,0.0,0.0,0.0,0.0,0.0,0.0,0.0,0.0,0.0,0.0,0.0,0.0,0.0,0.0,0.0,0.0,0.0,0.0,0.0,0.0,0.0,0.0,0.0,0.0,0.0,0.0,0.0,0.0,0.0,0.0,0.0,0.0,0.0,0.0,0.0,0.0,0.0,0.0,0.0,0.0,0.0,0.0,0.0,0.0,0.0,0.0,0.0,0.0,0.0,0.0,0.0,0.0,0.0,0.0,0.0,0.0,0.0,0.0,0.0,0.0,0.0,0.0,0.0,0.0,0.0,2.3653,2.5907,2.6607,2.5571,2.6092,2.5224,0.0,0.0,0.0,0.0,0.0,0.0,0.0,0.0,0.0,0.0,0.0,0.0,0.0,0.0,0.0,0.0,0.0,0.0,0.0,0.0,0.0,0.0,0.0,0.0,0.0,0.0,0.0,0.0,0.0,0.0,0.0,0.0,0.0,0.0,0.0,0.0,0.0,0.0,0.0,0.0,0.0,0.0,0.0,0.0,0.0,0.0,0.0,0.0,0.0,0.0,0.0,0.0,0.0,0.0,0.0,0.0,0.0,0.0,0.0,0.0,0.0,0.0,0.0,0.0,0.0,0.0,0.0,0.0,0.0,0.0,0.0,0.0,0.0,0.0,0.0,0.0,0.0,0.0,0.0,0.0,0.0,0.0,0.0,0.0,0.0,0.0,0.0,0.0,0.0,0.0,0.0,0.0,0.0,0.0,0.0,0.0,0.0,0.0,0.0,0.0,0.0,0.0,0.0,0.0,0.0,0.0,0.0,0.0,0.0,2.1489,2.2051,2.2334,2.2212,2.192,2.1097,0.0,0.0,0.0,0.0,0.0,0.0,0.0,0.0,0.0,0.0,0.0,0.0,0.0,0.0,0.0,0.0,0.0,0.0,0.0,0.0,0.0,0.0,0.0,0.0,0.0,0.0,0.0,0.0,0.0,0.0,0.0,0.0,0.0,0.0,0.0,0.0,0.0,0.0,0.0,0.0,0.0,0.0,0.0,0.0,0.0,0.0,0.0,0.0,0.0,0.0,0.0,0.0,0.0,0.0,0.0,0.0,0.0,0.0,0.0,0.0,0.0,0.0,0.0,0.0,0.0,0.0,0.0,0.0,0.0,0.0,0.0,0.0,0.0,0.0,0.0,0.0,0.0,0.0,0.0,0.0,0.0,0.0,0.0,0.0,0.0,0.0,0.0,0.0,0.0,0.0,0.0,0.0,0.0,0.0,0.0,0.0,0.0,0.0,0.0,0.0,0.0,0.0,0.0,0.0,0.0,0.0,0.0,0.0,0.0,1.8651,0.0,2.0008,0.0,1.9828,1.9477,0.0,0.0,0.0,0.0,0.0,0.0,0.0,0.0,0.0,0.0,0.0,0.0,0.0,0.0,0.0,0.0,0.0,0.0,0.0,0.0,0.0,0.0,0.0,0.0,0.0,0.0,0.0,0.0,0.0,0.0,0.0,0.0,0.0,0.0,0.0,0.0,0.0,0.0,0.0,0.0,0.0,0.0,0.0,0.0,0.0,0.0,0.0,0.0,0.0,0.0,0.0,0.0,0.0,0.0,0.0,0.0,0.0,0.0,0.0,0.0,0.0,0.0,0.0,0.0,0.0,0.0,0.0,0.0,0.0,0.0,0.0,0.0,0.0,0.0,0.0,0.0,0.0,0.0,0.0,0.0,0.0,0.0,0.0,0.0,0.0,0.0,0.0,0.0,0.0,0.0,0.0,0.0,0.0,0.0,0.0,0.0,0.0,0.0,0.0,0.0,0.0,0.0,0.0,0.0,0.0,0.0,0.0,0.0,0.0,1.6877,1.7984,1.8334,0.0,1.8337,1.8081,0.0,0.0,0.0,0.0,0.0,0.0,0.0,0.0,0.0,0.0,0.0,0.0,0.0,0.0,0.0,0.0,0.0,0.0,0.0,0.0,0.0,0.0,0.0,0.0,0.0,0.0,0.0,0.0,0.0,0.0,0.0,0.0,0.0,0.0,0.0,0.0,0.0,0.0,0.0,0.0,0.0,0.0,0.0,0.0,0.0,0.0,0.0,0.0,0.0,0.0,0.0,0.0,0.0,0.0,0.0,0.0,0.0,0.0,0.0,0.0,0.0,0.0,0.0,0.0,0.0,0.0,0.0,0.0,0.0,0.0,0.0,0.0,0.0,0.0,0.0,0.0,0.0,0.0,0.0,0.0,0.0,0.0,0.0,0.0,0.0,0.0,0.0,0.0,0.0,0.0,0.0,0.0,0.0,0.0,0.0,0.0,0.0,0.0,0.0,0.0,0.0,0.0,0.0,0.0,0.0,0.0,0.0,0.0,0.0,0.0,1.689,1.7272,1.7285,1.7272,1.6904,0.0,0.0,0.0,0.0,0.0,0.0,0.0,0.0,0.0,0.0,0.0,0.0,0.0,0.0,0.0,0.0,0.0,0.0,0.0,0.0,0.0,0.0,0.0,0.0,0.0,0.0,0.0,0.0,0.0,0.0,0.0,0.0,0.0,0.0,0.0,0.0,0.0,0.0,0.0,0.0,0.0,0.0,0.0,0.0,0.0,0.0,0.0,0.0,0.0,0.0,0.0,0.0,0.0,0.0,0.0,0.0,0.0,0.0,0.0,0.0,0.0,0.0,0.0,0.0,0.0,0.0,0.0,0.0,0.0,0.0,0.0,0.0,0.0,0.0,0.0,0.0,0.0,0.0,0.0,0.0,0.0,0.0,0.0,0.0,0.0,0.0,0.0,0.0,0.0,0.0,0.0,0.0,0.0,0.0,0.0,0.0,0.0,0.0,0.0,0.0,0.0,0.0,0.0,0.0,0.0,0.0,0.0,0.0,0.0,0.0,1.6335,0.0,1.6732,1.6573,1.6349,1.6136,0.0,0.0,0.0,0.0,0.0,0.0,0.0,0.0,0.0,0.0,0.0,0.0,0.0,0.0,0.0,0.0,0.0,0.0,0.0,0.0,0.0,0.0,0.0,0.0,0.0,0.0,0.0,0.0,0.0,0.0,0.0,0.0,0.0,0.0,0.0,0.0,0.0,0.0,0.0,0.0,0.0,0.0,0.0,0.0,0.0,0.0,0.0,0.0,0.0,0.0,0.0,0.0,0.0,0.0,0.0,0.0,0.0,0.0,0.0,0.0,0.0,0.0,0.0,0.0,0.0,0.0,0.0,0.0,0.0,0.0,0.0,0.0,0.0,0.0,0.0,0.0,0.0,0.0,0.0,0.0,0.0,0.0,0.0,0.0,0.0,0.0,0.0,0.0,0.0,0.0,0.0,0.0,0.0,0.0,0.0,0.0,0.0,0.0,0.0,0.0,0.0,0.0,0.0,0.0,0.0,0.0,0.0,0.0,0.0,0.0,0.0,1.6335,1.6215,1.607,0.0,0.0,0.0,0.0,0.0,0.0,0.0,0.0,0.0,0.0,0.0,0.0,0.0,0.0,0.0,0.0,0.0,0.0,0.0,0.0,0.0,0.0,0.0,0.0,0.0,0.0,0.0,0.0,0.0,0.0,0.0,0.0,0.0,0.0,0.0,0.0,0.0,0.0,0.0,0.0,0.0,0.0,0.0,0.0,0.0,0.0,0.0,0.0,0.0,0.0,0.0,0.0,0.0,0.0,0.0,0.0,0.0,0.0,0.0,0.0,0.0,0.0,0.0,0.0,0.0,0.0,0.0,0.0,0.0,0.0,0.0,0.0,0.0,0.0,0.0,0.0,0.0,0.0,0.0,0.0,0.0,0.0,0.0,0.0,0.0,0.0,0.0,0.0,0.0,0.0,0.0,0.0,0.0,0.0,0.0,0.0,0.0,0.0,0.0,0.0,0.0,0.0,0.0,0.0,0.0,0.0,0.0,0.0,0.0,0.0,0.0,1.6058,1.6083,1.6032,0.0,1.5563,0.0,0.0,0.0,0.0,0.0,0.0,0.0,0.0,0.0,0.0,0.0,0.0,0.0,0.0,0.0,0.0,0.0,0.0,0.0,0.0,0.0,0.0,0.0,0.0,0.0,0.0,0.0,0.0,0.0,0.0,0.0,0.0,0.0,0.0,0.0,0.0,0.0,0.0,0.0,0.0,0.0,0.0,0.0,0.0,0.0,0.0,0.0,0.0,0.0,0.0,0.0,0.0,0.0,0.0,0.0,0.0,0.0,0.0,0.0,0.0,0.0,0.0,0.0,0.0,0.0,0.0,0.0,0.0,0.0,0.0,0.0,0.0,0.0,0.0,0.0,0.0,0.0,0.0,0.0,0.0,0.0,0.0,0.0,0.0,0.0,0.0,0.0,0.0,0.0,0.0,0.0,0.0,0.0,0.0,0.0,0.0,0.0,0.0,0.0,0.0,0.0,0.0,0.0,0.0,0.0,0.0,0.0,0.0,0.0,0.0,0.0,0.0,1.5482,1.5337,1.5235,0.0,0.0,0.0,0.0,0.0,0.0,0.0,0.0,0.0,0.0,0.0,0.0,0.0,0.0,0.0,0.0,0.0,0.0,0.0,0.0,0.0,0.0,0.0,0.0,0.0,0.0,0.0,0.0,0.0,0.0,0.0,0.0,0.0,0.0,0.0,0.0,0.0,0.0,0.0,0.0,0.0,0.0,0.0,0.0,0.0,0.0,0.0,0.0,0.0,0.0,0.0,0.0,0.0,0.0,0.0,0.0,0.0,0.0,0.0,0.0,0.0,0.0,0.0,0.0,0.0,0.0,0.0,0.0,0.0,0.0,0.0,0.0,0.0,0.0,0.0,0.0,0.0,0.0,0.0,0.0,0.0,0.0,0.0,0.0,0.0,0.0,0.0,0.0,0.0,0.0,0.0,0.0,0.0,0.0,0.0,0.0,0.0,0.0,0.0,0.0,0.0,0.0,0.0,0.0,0.0,0.0,0.0,0.0,0.0,0.0,1.5195,1.5205,1.5024,1.4992,1.4992,0.0,0.0,0.0,0.0,0.0,0.0,0.0,0.0,0.0,0.0,0.0,0.0,0.0,0.0,0.0,0.0,0.0,0.0,0.0,0.0,0.0,0.0,0.0,0.0,0.0,0.0,0.0,0.0,0.0,0.0,0.0,0.0,0.0,0.0,0.0,0.0,0.0,0.0,0.0,0.0,0.0,0.0,0.0,0.0,0.0,0.0,0.0,0.0,0.0,0.0,0.0,0.0,0.0,0.0,0.0,0.0,0.0,0.0,0.0,0.0,0.0,0.0,0.0,0.0,0.0,0.0,0.0,0.0,0.0,0.0,0.0,0.0,0.0,0.0,0.0,0.0,0.0,0.0,0.0,0.0,0.0,0.0,0.0,0.0,0.0,0.0,0.0,0.0,0.0,0.0,0.0,0.0,0.0,0.0,0.0,0.0,0.0,0.0,0.0,0.0,0.0,0.0,0.0,0.0,0.0,0.0,0.0,0.0,0.0,0.0,0.0,0.0,0.0,0.0,1.4724,0.0,0.0,0.0,0.0,0.0,0.0,0.0,0.0,0.0,0.0,0.0,0.0,0.0,0.0,0.0,0.0,0.0,0.0,0.0,0.0,0.0,0.0,0.0,0.0,0.0,0.0,0.0,0.0,0.0,0.0,0.0,0.0,0.0,0.0,0.0,0.0,0.0,0.0,0.0,0.0,0.0,0.0,0.0,0.0,0.0,0.0,0.0,0.0,0.0,0.0,0.0,0.0,0.0,0.0,0.0,0.0,0.0,0.0,0.0,0.0,0.0,0.0,0.0,0.0,0.0,0.0,0.0,0.0,0.0,0.0,0.0,0.0,0.0,0.0,0.0,0.0,0.0,0.0,0.0,0.0,0.0,0.0,0.0,0.0,0.0,0.0,0.0,0.0,0.0,0.0,0.0,0.0,0.0,0.0,0.0,0.0,0.0,0.0,0.0,0.0,0.0,0.0,0.0,0.0,0.0,0.0,0.0,0.0,0.0,0.0,0.0,0.0,0.0,0.0,0.0,0.0,0.0,0.0,0.0,0.0,0.0,0.0,0.0,0.0,0.0,0.0,0.0,0.0,0.0,0.0,0.0,0.0,0.0,0.0,0.0,0.0,0.0,0.0,0.0,0.0,0.0,0.0,0.0,0.0,0.0,0.0,0.0,0.0,0.0,0.0,0.0,0.0,0.0,0.0,0.0,0.0,0.0,0.0,0.0,0.0,0.0,0.0,0.0,0.0,0.0,0.0,0.0,0.0,0.0,0.0,0.0,0.0,0.0,0.0,0.0,0.0,0.0,0.0,0.0,0.0,0.0,0.0,0.0,0.0,0.0,0.0,0.0,0.0,0.0,0.0,0.0,0.0,0.0,0.0,0.0,0.0,0.0,0.0,0.0,0.0,0.0,0.0,0.0,0.0,0.0,0.0,0.0,0.0,0.0,0.0,0.0,0.0,0.0,0.0,0.0,0.0,0.0,0.0,0.0,0.0,0.0,0.0,0.0,0.0,0.0,0.0,0.0,0.0,0.0,0.0,0.0,0.0,0.0,0.0,0.0,0.0,0.0,0.0,0.0,0.0,0.0,0.0,0.0,0.0,0.0,0.0,0.0,0.0,0.0,0.0,0.0,0.0,0.0,0.0,0.0,0.0,0.0,0.0,0.0,0.0,0.0,0.0,0.0,0.0,0.0,0.0,0.0,0.0,0.0,0.0,0.0,0.0,0.0,0.0,0.0,0.0,0.0,0.0,0.0,0.0,0.0,0.0,0.0,0.0,0.0,0.0,0.0,0.0,0.0,0.0,0.0,0.0,0.0,0.0,0.0,0.0,0.0,0.0,0.0,0.0,0.0,0.0,0.0,0.0,0.0,0.0,0.0,0.0,0.0,0.0,0.0,0.0,0.0,0.0,0.0,0.0,0.0,0.0,0.0,0.0,0.0,0.0,0.0,0.0,0.0,0.0,0.0,0.0,0.0,0.0,0.0,0.0,0.0,0.0,0.0,0.0,0.0,0.0,0.0,0.0,0.0,0.0,0.0,0.0,0.0,0.0,0.0,0.0,0.0,0.0,0.0,0.0,0.0,0.0,0.0,0.0,0.0,0.0,0.0,0.0,0.0,0.0,0.0,0.0,0.0,0.0,0.0,0.0,0.0,0.0,0.0,0.0,0.0,0.0,0.0,0.0,0.0,0.0,0.0,0.0,0.0,0.0,0.0,0.0,0.0,0.0,0.0,0.0,0.0,0.0,0.0,0.0,0.0,0.0,0.0,0.0,0.0,0.0,0.0,0.0,0.0,0.0,0.0,0.0,0.0,0.0,0.0,0.0,0.0,0.0,0.0,0.0,0.0,0.0,0.0,0.0,0.0,0.0,0.0,0.0,0.0,0.0,0.0,0.0,0.0,0.0,0.0,0.0,0.0,0.0,0.0,0.0,0.0,0.0,0.0,0.0,0.0,0.0,0.0,0.0,0.0,0.0,0.0,0.0,0.0,0.0,0.0,0.0,0.0,0.0,0.0,0.0,0.0,0.0,0.0,0.0,0.0,0.0,0.0,0.0,0.0,0.0,0.0,0.0,0.0,0.0,0.0,0.0,0.0,0.0,0.0,0.0,0.0,0.0,0.0,0.0,0.0,0.0,0.0,0.0,0.0,0.0,0.0,0.0,0.0,0.0,0.0,0.0,0.0,0.0,0.0,0.0,0.0,0.0,0.0,0.0,0.0,0.0,0.0,0.0,0.0,0.0,0.0,0.0,0.0,0.0,0.0,0.0,0.0,0.0,0.0,0.0,0.0,0.0,0.0,0.0,0.0,0.0,0.0,0.0,0.0,0.0,0.0,0.0,0.0,0.0,0.0,0.0,0.0,0.0,0.0,0.0,0.0,0.0,0.0,0.0,0.0,0.0,0.0,0.0,0.0,0.0,0.0,0.0,0.0,0.0,0.0,0.0,0.0,0.0,0.0,0.0,0.0,0.0,0.0,0.0,0.0,0.0,0.0,0.0,0.0,0.0,0.0,0.0,0.0,0.0,0.0,0.0,0.0,0.0,0.0,0.0,0.0,0.0,0.0,0.0,0.0,0.0,0.0,0.0,0.0,0.0,0.0,0.0,0.0,0.0,0.0,0.0,0.0,0.0,0.0,0.0,0.0,0.0,0.0,0.0,0.0,0.0,0.0,0.0,0.0,0.0,0.0,0.0,0.0,0.0,0.0,0.0,0.0,0.0,0.0,0.0,0.0,0.0,0.0,0.0,0.0,0.0,0.0,0.0,0.0,0.0,0.0,0.0,0.0,0.0,0.0,0.0,0.0,0.0,0.0,0.0,0.0,0.0,0.0,0.0,0.0,0.0,0.0,0.0,0.0,0.0,0.0,0.0,0.0,0.0,0.0,0.0,0.0,0.0,0.0,0.0,0.0,0.0,0.0,0.0,0.0,0.0,0.0,0.0,0.0,0.0,0.0,0.0,0.0,0.0,0.0,0.0,0.0,0.0,0.0,0.0,0.0,0.0,0.0,0.0,0.0,0.0,0.0,0.0,0.0,0.0,0.0,0.0,0.0,0.0,0.0,0.0,0.0,0.0,0.0,0.0,0.0,0.0,0.0,0.0,0.0,0.0,0.0,0.0,0.0,0.0,0.0,0.0,0.0,0.0,0.0,0.0,0.0,0.0,0.0,0.0,0.0,0.0,0.0,0.0,0.0,0.0,0.0,0.0,0.0,0.0,0.0,0.0,0.0,0.0,0.0,0.0,0.0,0.0,0.0,0.0,0.0,0.0,0.0,0.0,0.0,0.0,0.0,0.0,0.0,0.0,0.0,0.0,0.0,0.0,0.0,0.0,0.0,0.0,0.0,0.0,0.0,0.0,0.0,0.0,0.0,0.0,0.0,0.0,0.0,0.0,0.0,0.0,0.0,0.0,0.0,0.0,0.0,0.0,0.0,0.0,0.0,0.0,0.0,0.0,0.0,0.0,0.0,0.0,0.0,0.0,0.0,0.0,0.0,0.0,0.0,0.0,0.0,0.0,0.0,0.0,0.0,0.0,0.0,0.0,0.0,0.0,0.0,0.0,0.0,0.0,0.0,0.0,0.0,0.0,0.0,0.0,0.0,0.0,0.0,0.0,0.0,0.0,0.0,0.0,0.0,0.0,0.0,0.0,0.0,0.0,0.0,0.0,0.0,0.0,0.0,0.0,0.0,0.0,0.0,0.0,0.0,0.0,0.0,0.0,0.0,0.0,0.0,0.0,0.0,0.0,0.0,0.0,0.0,0.0,0.0,0.0,0.0,0.0,0.0,0.0,0.0,0.0,0.0,0.0,0.0,0.0,0.0,0.0,0.0,0.0,0.0,0.0,0.0,0.0,0.0,0.0,0.0,0.0,0.0,0.0,0.0,0.0,0.0,0.0,0.0,0.0,0.0,0.0,0.0,0.0,0.0,0.0,0.0,0.0,0.0,0.0,0.0,0.0,0.0,0.0,0.0,0.0,0.0,0.0,0.0,0.0,0.0,0.0,0.0,0.0,0.0,0.0,0.0,0.0,0.0,0.0,0.0,0.0,0.0,0.0,0.0,0.0,0.0,0.0,0.0,0.0,0.0,0.0,0.0,0.0,0.0,0.0,0.0,0.0,0.0,0.0,0.0,0.0,0.0,0.0,0.0,0.0,0.0,0.0,0.0,0.0,0.0,0.0,0.0,0.0,0.0,0.0,0.0,0.0,0.0,0.0,0.0,0.0,0.0,0.0,0.0,0.0,0.0,0.0,0.0,0.0,0.0,0.0,0.0,0.0,0.0,0.0,0.0,0.0,0.0,0.0,0.0,0.0,0.0,0.0,0.0,0.0,0.0,0.0,0.0,0.0,0.0,0.0,0.0,0.0,0.0,0.0,0.0,0.0,0.0,0.0]}]]]